Selectionnez le mois :


30/06/2018:Eq:La Crim Team-les grenades : saurug(2480)-vladtepes(2510):1/2-1/2
30/06/2018:le temps des cerises 1 malmignatte(1989)-yyyg(1510):1-0
30/06/2018:le temps des cerises 1 yyyg(1510)-malmignatte(1989):0-1
30/06/2018:Défi algors(1740)-tonton77(1760):0-1
30/06/2018:Tournoi n°18261 gaspard83(1610)-zozo(1660):1-0
30/06/2018:Coupe Niveau 3 yatman(1960)-verson(1820):1-0
30/06/2018:Défi zozo(1640)-jhz(1670):1-0
30/06/2018:Bella ciao leet(1890)-verson(1820):1-0
30/06/2018:Tournoi n°18190 waltermelonman(1370)-bastien1(1300):0-1
30/06/2018:Tournoi n°18252 chomi64(1980)-verson(1800):1-0
30/06/2018:Tournoi n°18319 silveur(1970)-darkchossete(1820):0-1
30/06/2018:Tournoi n°18253 blueberry(2130)-breitenbach(2290):0-1
30/06/2018:Tournoi n°18338 saruman(1800)-jaimelamer(2050):1-0
30/06/2018:Tournoi n°18366 gregmasten(1810)-verson(1790):1-0
30/06/2018:Coupe Niveau 1 yyyg(1620)-yann56(1770):0-1
30/06/2018:Coupe Niveau 2 jlr(1520)-verson(1800):0-1
30/06/2018:Coupe Niveau 1 verson(1810)-jmarcboury(1940):0-1
30/06/2018:Défi intrigue(1600)-cowboyarthur(1880):0-1
30/06/2018:Défi bastien1(1300)-marcol(1120):1-0
30/06/2018:Défi malmignatte(1499)-voyageur14(1240):1-0
30/06/2018:Défi damotte(1990)-nassim(1799):0-1
30/06/2018:Défi nuitetoilee(999)-dan84(1430):0-1
30/06/2018:Le vieux Roi 11 intrigue(1590)-yyyg(1610):1-0
30/06/2018:Memorial Lara XXXIII jyf(1890)-tiounet(1640):0-1
30/06/2018:Interne 1pur cicerond(1410)-bigkahuna(1720):0-1
30/06/2018:Interne 1pur bigkahuna(1720)-cicerond(1410):1-0
30/06/2018:le temps des cerises 1 yyyg(1510)-mistralgagnant(1970):0-1
30/06/2018:le temps des cerises 1 yyyg(1510)-leet(1900):0-1
30/06/2018:Tournoi échelle division 3 bam333(1830)-blitzman(2700):0-1
30/06/2018:Tournoi échelle division 3 gregmasten(1740)-yyyg(1510):1-0
30/06/2018:Tournoi échelle division 2 jlr(1560)-uji40(1590):0-1
30/06/2018:Tournoi n°18144 zozo(1620)-yyyg(1660):1-0
30/06/2018:Tournoi n°18272 sylvainwb(1690)-thierry06(1640):1/2-1/2
30/06/2018:Tournoi n°18320 loal(1510)-coyotov(1670):0-1
30/06/2018:Tournoi n°18318 jlr(1580)-coyotov(1670):0-1
30/06/2018:Tournoi n°18328 blackbishop(1860)-oliver5(1710):1-0
30/06/2018:Tournoi n°18371 ffred(1540)-coyotov(1630):1-0
30/06/2018:Eq:Pirates du Mat-Les Seigneurs de l Atlantide : totorov(2460)-pgcd(2310):1/2-1/2
30/06/2018:Eq:Les Quebecois-les grenades : davchess(1830)-perepeinard34(1260):1-0
30/06/2018:Eq:Les Rebelles-Vikings : nassim(2020)-doudou(1680):1-0
30/06/2018:Coupe Niveau 2 verson(1830)-yann56(1690):1-0
30/06/2018:Défi jajaf1959(1910)-jimi50(1880):1-0
30/06/2018:Défi malmignatte(1499)-pgo(1690):1-0
30/06/2018:Défi bigoudi(1000)-mc2108(1060):0-1
30/06/2018:Défi azur(1590)-temistocles(1400):1-0
30/06/2018:Défi riothamus(1690)-tomislav(1790):1-0
30/06/2018:La Française qui avance bis flmnh(1750)-yyyg(1580):1-0
30/06/2018:les pirates interne rackam(2130)-totorov(2460):1/2-1/2
30/06/2018:portes ouvertes en Espagnol flmnh(1720)-yyyg(1670):1-0
30/06/2018:Le vieux Roi 13 zozo(1650)-bigkahuna(1690):0-1
30/06/2018:Bella ciao mistralgagnant(1970)-chessmat(1809):1-0
30/06/2018:Bella ciao emmanuel(1920)-pgo(1690):0-1
30/06/2018:Tournoi n°18356 verson(1810)-jmarcboury(1940):0-1
30/06/2018:Tournoi n°18358 leredoutable(1770)-verson(1800):0-1
30/06/2018:Tournoi n°18357 verson(1810)-leredoutable(1770):1-0
30/06/2018:Tournoi n°18234 doudou(1690)-estrafolis(1400):1-0
30/06/2018:Tournoi n°18303 jazzzz(1980)-verson(1800):0-1
30/06/2018:Tournoi n°18356 zax(2010)-salut(1940):1-0
30/06/2018:Eq:Mission Impossible-Pirates du Mat : totorov(2450)-anakin(2060):1-0
30/06/2018:Eq:Les Quebecois-Danielsen City : pionfou(1760)-xao(1550):1-0
30/06/2018:Coupe Niveau 1 verson(1770)-senegaulois(1950):1-0
30/06/2018:Défi nassim(2120)-woozie(2110):0-1
30/06/2018:Défi bastien1(1320)-chrispga(1390):1-0
30/06/2018:Défi lancov(1910)-elghribi(1960):1-0
30/06/2018:Défi tinenfant(1860)-campa(1770):1-0
30/06/2018:Défi eltche(2460)-toutankhamon24(2199):1-0
30/06/2018:Bella ciao intrigue(1610)-chessmat(1809):1-0
30/06/2018:Bella ciao verson(1820)-emmanuel(1920):1/2-1/2
30/06/2018:Tournoi échelle division 1 dragon(1920)-gonzok67(1710):1-0
30/06/2018:Tournoi n°18329 oliver5(1700)-legrillon(1700):0-1
30/06/2018:Tournoi n°18286 vb83(1400)-mayaapof(1630):0-1
30/06/2018:Tournoi n°18329 oliver5(1700)-miramar(1590):1-0
30/06/2018:Défi maitressesse(1420)-fisher22(2159):0-1
30/06/2018:Défi anumisme(1360)-tootsienet(1060):1-0
30/06/2018:Défi malmignatte(1499)-roger72(1500):1-0
30/06/2018:Défi emmanuel(1920)-kaby771(2090):1-0
30/06/2018:Défi jazzzz(1950)-fisher22(1799):0-1
30/06/2018:Défi berjay(1690)-aramis(1730):0-1
30/06/2018:Défi anumisme(1410)-joelcouturier(1220):1-0
30/06/2018:Défi comte57(1660)-epoldic(1420):1-0
30/06/2018:Défi vb83(1440)-jpmr(1510):0-1
30/06/2018:Défi anumisme(1380)-bigoudi(1010):1-0
30/06/2018:Défi tootsienet(1050)-roger72(1500):0-1
30/06/2018:les pirates interne philou(1870)-totorov(2460):0-1
30/06/2018:Le vieux Roi 13 coyotov(1630)-roschecx(1640):1-0
30/06/2018:Le vieux Roi 13 tartu(1620)-legrillon(1710):0-1
30/06/2018:Tournoi n°18352 kala(1900)-darkchossete(1840):0-1
30/06/2018:Tournoi n°18333 mathador93(1470)-bonafous(1380):0-1
30/06/2018:Tournoi n°18371 coyotov(1650)-miramar(1610):0-1
30/06/2018:Défi roidechecs(1200)-anumisme(1450):0-1
30/06/2018:Défi zayka(1870)-matsonic(1890):0-1
30/06/2018:Défi oliver5(1700)-turbo(1520):1-0
30/06/2018:Tournoi n°18090 berthe(1800)-kendo2d(1850):1-0
30/06/2018:Tournoi n°18347 kaspalex(1649)-katastrofic(1430):1-0
30/06/2018:Tournoi n°18109 clafouti(2060)-mazdaroket(2040):0-1
30/06/2018:Tournoi n°18328 intrigue(1630)-oliver5(1710):0-1
30/06/2018:Tournoi n°18339 simer(1660)-leredoutable(1740):0-1
30/06/2018:Tournoi n°18370 upsalin(1880)-verson(1820):1-0
30/06/2018:Eq:Les Seigneurs de l Atlantide-les fous de bassans : mrmatchnul(2300)-kendo2d(1830):1-0
30/06/2018:Défi ramo(1770)-intrigue(1600):0-1
30/06/2018:Défi hugues(1530)-patrick(1620):1-0
30/06/2018:Défi anumisme(1420)-roidechecs(1220):0-1
30/06/2018:Défi vvvv(1750)-trueman(1940):0-1
30/06/2018:Défi owow44(1780)-kaspy(2000):0-1
30/06/2018:Défi tootsienet(1040)-anumisme(1380):0-1
30/06/2018:Bella ciao pgo(1690)-leet(1890):0-1
30/06/2018:Bella ciao verson(1820)-leet(1890):0-1
30/06/2018:Tournoi échelle division 1 electronlibre(1840)-pgo(1660):1-0
30/06/2018:Tournoi n°17643 maitreabord(2770)-z1000(2540):1/2-1/2
30/06/2018:Tournoi n°18323 xercott(1710)-arno(1690):0-1
30/06/2018:Tournoi n°18355 coyotov(1650)-nimzoindien(1700):0-1
30/06/2018:Eq:Les Quebecois-Vikings : casparuf(1500)-chloridrix(1510):0-1
30/06/2018:Défi naxomi(1779)-xao(1550):0-1
30/06/2018:Défi malvina(1280)-dan84(1430):0-1
01/07/2018:Tournoi n°18294 bastien1(1440)-magyar(1480):1-0
01/07/2018:Tournoi n°18271 leet(1870)-luckyluc(2040):0-1
01/07/2018:Tournoi n°18336 oliver5(1710)-panchoa(1580):0-1
01/07/2018:Tournoi n°18336 jlr(1550)-panchoa(1580):1-0
01/07/2018:Eq:les modestes-cotenstock : akkullanu(2590)-sherezo(2780):1/2-1/2
01/07/2018:Eq:les modestes-Les Corsaires de Lechiquier : mohamedarab(2820)-valentinov(2750):0-1
01/07/2018:Eq:La Crim Team-les grenades : lechat(2870)-letyjo(2860):1/2-1/2
01/07/2018:Défi gonzok67(1720)-ptitefrez(2030):0-1
01/07/2018:Défi temistocles(1400)-xao(1540):0-1
01/07/2018:Tetraktus 1 gregmasten(1720)-flmnh(1690):0-1
01/07/2018:Tournoi échelle élite chronik(2160)-zincou75(2090):1/2-1/2
01/07/2018:Tournoi n°18200 verson(1790)-willkommen54(2000):1/2-1/2
01/07/2018:Tournoi n°18253 annakhine(2110)-chedru2000(2180):1-0
01/07/2018:Tournoi n°18370 verson(1820)-scarfield(1710):0-1
01/07/2018:Eq:Royal Kids-1pur : pgo(1720)-tranquillou66(1150):1-0
01/07/2018:Défi cloclo(1820)-nassim(2120):0-1
01/07/2018:Défi vvvv(1720)-tiounet(1630):1-0
01/07/2018:Défi turbo(1520)-jhz(1670):1-0
01/07/2018:Défi hberlioz(1630)-pgo(1670):0-1
01/07/2018:Interne 1pur dukehemon(2130)-cicerond(1410):1-0
01/07/2018:Interne 1pur cicerond(1410)-dukehemon(2130):0-1
01/07/2018:Tournoi échelle élite chronik(2160)-nicodemouscron(2150):1-0
01/07/2018:Tournoi n°17416 fly(1990)-emmanuel(1940):1-0
01/07/2018:Tournoi n°18359 ghostdog(1640)-upsalin(1840):0-1
01/07/2018:Tournoi n°18190 zacharie(1599)-maldorox(1460):1-0
01/07/2018:Tournoi n°18256 linselleschti(1540)-coyotov(1660):1-0
01/07/2018:Tournoi n°18235 gonzok67(1710)-legrillon(1760):1-0
01/07/2018:Tournoi n°18267 mokanne(1560)-qsdmlk(1590):0-1
01/07/2018:Tournoi n°18328 1thibou(1810)-blackbishop(1850):0-1
01/07/2018:Tournoi n°18340 bastien1(1470)-coyotov(1650):0-1
01/07/2018:Tournoi n°18364 simer(1670)-verson(1810):0-1
01/07/2018:Eq:Pirates du Mat-Les Gens du Sud : volatile(2510)-emmanuel(1970):1-0
01/07/2018:Défi loco11(1950)-bonamur(2010):1-0
01/07/2018:Défi guillaumefi(1640)-zozo(1640):0-1
01/07/2018:Défi guillaumefi(1590)-mokanne(1540):0-1
01/07/2018:Défi steph65(1580)-fisher(1620):1-0
01/07/2018:Défi vb83(1430)-zozo(1660):1-0
01/07/2018:Défi alain84(1740)-chobi(1720):0-1
01/07/2018:Défi bastien1(1530)-roidechecs(1270):1-0
01/07/2018:Bella ciao leet(1890)-emmanuel(1920):1-0
01/07/2018:Bella ciao pgo(1690)-emmanuel(1920):0-1
01/07/2018:Tournoi n°17444 chomi64(1800)-1bri(1810):1/2-1/2
01/07/2018:Tournoi n°18279 tartu(1620)-legrillon(1710):0-1
01/07/2018:Tournoi n°18347 coyotov(1670)-kaspalex(1649):0-1
01/07/2018:Tournoi n°18346 bastien1(1450)-coyotov(1660):0-1
01/07/2018:Tournoi n°18378 jlr(1480)-coyotov(1630):1-0
01/07/2018:Tournoi n°18238 tartu(1610)-jlr(1530):1-0
01/07/2018:Tournoi n°18361 arno(1720)-tartu(1610):1-0
01/07/2018:Eq:Les Gens du Sud-Danielsen City : philippelg(2130)-emmanuel(1940):1-0
01/07/2018:Défi bastien1(1320)-stephane300(1380):1-0
01/07/2018:Défi clemantoine(1099)-roidechecs(1210):1-0
01/07/2018:Tournoi n°18219 thierry7ardeche(1990)-manulatus(1910):1-0
01/07/2018:Tournoi n°18270 verson(1790)-gilcello(1690):1-0
01/07/2018:Eq:Royal Kids-O fou d hello : tartu(1600)-junior1966(1340):1-0
01/07/2018:Coupe Niveau 2 jlr(1530)-elghribi(1960):1-0
01/07/2018:Défi rambonov(1280)-kerenor(1600):0-1
01/07/2018:Défi ephixe(1750)-holyhour(1580):0-1
01/07/2018:Défi gambou(1780)-pierre1(1740):0-1
01/07/2018:Défi intrigue(1600)-gilberthellemans(1600):1-0
01/07/2018:Défi jmr(1590)-maluel(1600):1/2-1/2
01/07/2018:Défi jmr(1570)-upsalin(1870):1-0
01/07/2018:Tournoi n°18361 pionperdu(1719)-arno(1730):0-1
01/07/2018:Tournoi n°18323 jhz(1680)-deric(1620):0-1
01/07/2018:Tournoi n°18317 minecraft(1840)-verson(1760):1-0
01/07/2018:Tournoi n°18321 vvvv(1750)-scarfield(1750):0-1
01/07/2018:Coupe Niveau 2 emmanuel69(1800)-jlr(1470):1-0
01/07/2018:Coupe Niveau 3 verson(1820)-elghribi(1970):1-0
01/07/2018:Défi guillaumefi(1600)-tombelaine(2210):0-1
01/07/2018:Défi nuitetoilee(999)-dan84(1430):1-0
01/07/2018:Tournoi échelle champions verson(1820)-elghribi(1970):0-1
01/07/2018:Tournoi n°18239 chaton(1030)-lantana(1240):1-0
01/07/2018:Tournoi n°18348 legros(1710)-verson(1850):0-1
01/07/2018:Tournoi n°18265 spectre(1860)-legrillon(1730):1-0
01/07/2018:Eq:Les Quebecois-Les Rebelles : bezug66(1830)-kaspi007(2110):0-1
01/07/2018:Eq:Les Seigneurs de l Atlantide-London : capitaine(2080)-paulinechess(1830):1-0
01/07/2018:Eq:Les Seigneurs de l Atlantide-London : paulinechess(1830)-capitaine(2080):0-1
01/07/2018:Défi pioupiou22(1780)-fisher22(1799):0-1
01/07/2018:Défi bubbly(1320)-fisher22(1799):0-1
01/07/2018:Défi roidechecs(1280)-bastien1(1540):1-0
01/07/2018:Défi bonafous(1390)-anumisme(1390):1-0
01/07/2018:Défi naxomi(1779)-castor(1350):1-0
01/07/2018:Défi pivoine78(1180)-anumisme(1430):0-1
01/07/2018:Défi sergiodevienne(1780)-vvvv(1730):0-1
01/07/2018:Défi roidechecs(1270)-bastien1(1540):0-1
01/07/2018:Défi anumisme(1330)-roidechecs(1270):1-0
01/07/2018:Tournoi échelle division 1 kaspadesbrik(1720)-bezug66(1840):1-0
01/07/2018:Tournoi n°18266 spectre(1860)-kiki(1900):1-0
01/07/2018:Tournoi n°18338 manulatus(1850)-verson(1860):1/2-1/2
01/07/2018:Eq:Les Gens du Sud-Royal Kids : manulatus(1850)-verson(1860):1-0
01/07/2018:Eq:Les Quebecois-Royal Kids : bezug66(1850)-pgo(1720):1-0
01/07/2018:Coupe Niveau 5 bobo(2240)-elghribi(1950):1/2-1/2
01/07/2018:Défi loco11(1930)-gfcyoupi(2110):0-1
01/07/2018:Défi anumisme(1430)-largo(999):1-0
01/07/2018:Défi roidechecs(1270)-bastien1(1540):0-1
01/07/2018:Défi felicio(2160)-morloch(1900):1-0
01/07/2018:Défi titit1(1300)-anumisme(1440):1-0
01/07/2018:Tournoi n°18254 mandrak(1610)-arno(1630):0-1
01/07/2018:Tournoi n°18266 arno(1620)-kiki(1900):0-1
01/07/2018:Tournoi n°18370 simer(1690)-upsalin(1880):0-1
01/07/2018:Eq:Les Rebelles-Mission Impossible : joel(1480)-blackbishop(1850):0-1
01/07/2018:Défi katastrofic(1430)-turbo(1510):1-0
01/07/2018:Défi perepeinard34(1270)-turbo(1530):0-1
01/07/2018:Défi anumisme(1460)-amoursincere(1170):0-1
01/07/2018:Défi thierry06(1650)-asvel69(1720):1-0
01/07/2018:Tournoi échelle division 2 pgo(1620)-linselleschti(1550):1-0
02/07/2018:Tournoi n°18333 bonafous(1380)-janul13(1440):0-1
02/07/2018:Tournoi n°18346 coyotov(1660)-albescab(1510):1-0
02/07/2018:Tournoi n°18249 selmoun(1490)-malmignatte(1839):0-1
02/07/2018:Tournoi n°18167 pournelle(2700)-letyjo(2890):1/2-1/2
02/07/2018:Eq:les modestes-Les Corsaires de Lechiquier : buats007(2690)-izemassalas(2650):1/2-1/2
02/07/2018:Eq:Pirates du Mat-Les Oiseaux d Amsterdam : 2nsppp(1620)-daiwen(2320):0-1
02/07/2018:Eq:Les Quebecois-Royal Kids : pgo(1720)-bezug66(1850):0-1
02/07/2018:Défi plaisance(1930)-morloch(1890):0-1
02/07/2018:Défi turbo(1550)-albescab(1500):0-1
02/07/2018:Défi julia(1540)-castor(1330):1-0
02/07/2018:Défi cortaz(1760)-algors(1760):1-0
02/07/2018:Défi bonafous(1380)-joel(1470):1/2-1/2
02/07/2018:Défi papymiche(1700)-cortaz(1820):0-1
02/07/2018:Défi tryphon(1510)-turbo(1500):0-1
02/07/2018:Défi pierre1(1710)-alain84(1740):1-0
02/07/2018:Tournoi n°17942 gtx(1800)-fly(1960):0-1
02/07/2018:Tournoi n°18261 zozo(1650)-jlr(1580):0-1
02/07/2018:Eq:Les Corsaires de Lechiquier-Les Gens du Sud : ychiduodlatour(2760)-emmanuel(1910):1-0
02/07/2018:Défi malmignatte(1499)-adrienne(1070):1-0
02/07/2018:Tournoi n°18353 fooy33(1800)-arno(1720):1-0
02/07/2018:Tournoi n°18297 papillon22(1790)-upsalin(1830):0-1
02/07/2018:Tournoi n°18292 verson(1790)-nico(1950):0-1
02/07/2018:Tournoi n°18273 breitenbach(2250)-vachefolle(2070):1-0
02/07/2018:Tournoi n°18274 malmignatte(1959)-janul13(1440):1-0
02/07/2018:Tournoi n°18327 manulatus(1850)-patau(1820):1-0
02/07/2018:Tournoi n°18362 coyotov(1630)-qsdmlk(1620):1-0
02/07/2018:Tournoi n°18370 upsalin(1880)-scarfield(1700):1-0
02/07/2018:Eq:Fair play-O fou d hello : lejardinier(2060)-olivyeah(1880):0-1
02/07/2018:Eq:LA CITE ARDENTE-Les Seigneurs de l Atlantide : mazdaroket(2040)-bigbobo(2180):1/2-1/2
02/07/2018:Défi pierrejean(1440)-malmignatte(1499):0-1
02/07/2018:Le vieux Roi 13 tiounet(1640)-bigkahuna(1690):0-1
02/07/2018:Tournoi échelle champions ptitefrez(2010)-patau(1820):1-0
02/07/2018:Tournoi n°18232 patau(1800)-philou(1840):0-1
02/07/2018:Tournoi n°18322 nicodemouscron(2130)-mazdaroket(2030):1-0
02/07/2018:Coupe Niveau 3 radar(2309)-senegaulois(1940):1-0
02/07/2018:Coupe Niveau 2 emmanuel69(1800)-elghribi(1950):0-1
02/07/2018:Coupe Niveau 3 elghribi(1960)-senegaulois(1950):0-1
02/07/2018:Défi uliczny(1880)-mysport(1939):0-1
02/07/2018:Défi castor(1340)-lecevenol(1360):0-1
02/07/2018:Défi apocalypce(1740)-tinenfant(1860):1-0
02/07/2018:Défi perepeinard34(1290)-kerenor(1580):0-1
02/07/2018:Défi patau(1830)-flmnh(1700):1-0
02/07/2018:Caro kann flmnh(1690)-pgo(1670):1-0
02/07/2018:Bella ciao emmanuel(1920)-chessmat(1809):1-0
02/07/2018:Tournoi n°18075 morlante(1650)-oliver5(1700):1-0
02/07/2018:Tournoi n°18320 loal(1510)-magyar(1480):0-1
02/07/2018:Tournoi n°18354 ffred(1550)-jlr(1500):1-0
02/07/2018:Tournoi n°18284 manu32(1820)-arno(1650):1-0
02/07/2018:Tournoi n°18286 jlr(1590)-ffred(1500):0-1
02/07/2018:Eq:Du sucre et des vices-Royal Kids : graffenstaden(1970)-uliczny(1890):0-1
02/07/2018:Coupe Niveau 1 jlr(1520)-elghribi(1960):0-1
02/07/2018:Défi albescab(1500)-baloo(1590):1-0
02/07/2018:Défi tetene(1780)-owow44(1740):1-0
02/07/2018:Défi malmignatte(1499)-lecouz(1670):1-0
02/07/2018:Défi azur(1550)-guillaumefi(1640):0-1
02/07/2018:Défi lecevenol(1370)-katastrofic(1430):0-1
02/07/2018:Défi nimzoindien(1700)-jajaf1959(1910):1/2-1/2
02/07/2018:Bella ciao chessmat(1809)-mistralgagnant(1970):0-1
02/07/2018:Tournoi n°17563 colyoun(1470)-jlr(1420):1-0
02/07/2018:Tournoi n°18042 chomi64(1990)-mistralgagnant(1970):1-0
02/07/2018:Tournoi n°18386 coyotov(1650)-jlr(1490):0-1
02/07/2018:Tournoi n°18346 albescab(1510)-legrillon(1690):1-0
02/07/2018:Tournoi n°18271 uliczny(1870)-desaintfegor(1840):1/2-1/2
02/07/2018:Tournoi n°18265 legrillon(1730)-patau(1780):0-1
02/07/2018:Tournoi n°18268 jlr(1570)-bastien1(1400):0-1
02/07/2018:Tournoi n°18329 miramar(1590)-legrillon(1700):1/2-1/2
02/07/2018:Tournoi n°18339 leredoutable(1750)-scarfield(1750):0-1
02/07/2018:Tournoi n°18364 legrillon(1760)-upsalin(1870):1/2-1/2
02/07/2018:Tournoi n°18369 patau(1840)-arno(1710):1-0
02/07/2018:Coupe Niveau 5 retraite53(2210)-dpcarballo(2170):1/2-1/2
02/07/2018:Défi rocketman(2010)-baudoin(1970):1-0
02/07/2018:Défi gobois(1640)-malmignatte(1499):0-1
02/07/2018:Défi riothamus(1690)-homer31(1720):0-1
02/07/2018:le temps des cerises 1 mistralgagnant(1970)-yyyg(1510):1-0
02/07/2018:Tournoi échelle division 1 spectre(1890)-tinenfant(1860):0-1
02/07/2018:Tournoi n°17960 chomi64(2010)-mistralgagnant(1940):0-1
02/07/2018:Tournoi n°18359 upsalin(1840)-leredoutable(1770):1-0
02/07/2018:Tournoi n°18376 patau(1840)-verson(1820):1-0
02/07/2018:Tournoi n°18314 moris54(2000)-patau(1810):1-0
02/07/2018:Tournoi n°18348 patau(1820)-leredoutable(1760):0-1
02/07/2018:Tournoi n°18359 leredoutable(1770)-verson(1810):1/2-1/2
02/07/2018:Tournoi n°18348 leredoutable(1750)-scarfield(1760):0-1
02/07/2018:Tournoi n°18359 leredoutable(1770)-simer(1670):0-1
02/07/2018:Tournoi n°18311 pionfou(1780)-verson(1790):0-1
02/07/2018:Tournoi n°18311 upsalin(1820)-pionfou(1780):1/2-1/2
02/07/2018:Tournoi n°18299 bastien1(1520)-clemantoine(1669):0-1
02/07/2018:Tournoi n°18330 thierry06(1650)-bastien1(1490):1-0
02/07/2018:Coupe Niveau 8 anderssen(2450)-maitreabord(2770):0-1
02/07/2018:Défi nuitetoilee(1459)-pgo(1690):1-0
02/07/2018:Défi anumisme(1380)-vb83(1430):0-1
02/07/2018:Défi kala(1880)-gambou(1770):1-0
02/07/2018:Défi vb83(1340)-chevalice(1680):0-1
02/07/2018:Défi roidechecs(1270)-bastien1(1530):1-0
02/07/2018:Interne 1pur c0d3(1240)-spectre(1890):0-1
02/07/2018:Bella ciao pgo(1690)-ptitefrez(2030):0-1
02/07/2018:Tournoi n°18114 yyyg(1670)-darkchossete(1780):0-1
02/07/2018:Tournoi n°18351 darkchossete(1840)-philou(1860):0-1
02/07/2018:Tournoi n°18370 biquet(1820)-verson(1820):1/2-1/2
02/07/2018:Tournoi n°18370 biquet(1820)-upsalin(1880):0-1
02/07/2018:Eq:LA CITE ARDENTE-LES CHATTERBOX : micmoun(2050)-onetwoyve(1730):1-0
02/07/2018:Coupe Niveau 3 elghribi(1950)-yatman(1960):1/2-1/2
02/07/2018:Coupe Niveau 1 patau(1850)-legrillon(1760):1-0
02/07/2018:Défi malvina(1290)-fisher22(2030):0-1
02/07/2018:Défi max2007(1300)-kerenor(1580):0-1
02/07/2018:Défi bidoche(1690)-pgo(1670):0-1
02/07/2018:Défi youliyouli(1830)-owow44(1740):1-0
02/07/2018:Défi koi34(1840)-zayka(1860):0-1
02/07/2018:Défi bastien1(1370)-gervaise(1140):1-0
02/07/2018:Défi perepeinard34(1260)-hberlioz(1580):0-1
02/07/2018:Défi katastrofic(1410)-jetjet91330(2080):0-1
02/07/2018:Défi roidechecs(1270)-bastien1(1540):1-0
02/07/2018:HONOLULU 50 janolapin(1880)-yyyg(1640):1-0
02/07/2018:Interne 1pur cicerond(1410)-bastien1(1400):0-1
02/07/2018:Interne 1pur bastien1(1400)-cicerond(1410):1-0
02/07/2018:Bella ciao mistralgagnant(1970)-pgo(1690):1-0
02/07/2018:Tournoi échelle division 1 tinenfant(1870)-domenico(1770):0-1
02/07/2018:Tournoi n°18124 patau(1840)-kynyo(1810):1-0
02/07/2018:Tournoi n°18358 simer(1660)-leredoutable(1770):0-1
02/07/2018:Tournoi n°18108 jlr(1510)-gonzok67(1700):0-1
02/07/2018:Tournoi n°18184 willkommen54(2000)-karkaskat(2030):1/2-1/2
02/07/2018:Tournoi n°18302 oliver5(1710)-xercott(1730):0-1
02/07/2018:Tournoi n°18371 miramar(1610)-ffred(1540):0-1
02/07/2018:Eq:LA CITE ARDENTE-Les Oiseaux d Amsterdam : ales17(1980)-bigbobo(2190):0-1
02/07/2018:Eq:La Crim Team-Les Corsaires de Lechiquier : fredelebouric12(2560)-pessoa(2190):1-0
02/07/2018:Eq:cotenstock-les fous de bassans : fisher22(1850)-djayphil(2150):0-1
02/07/2018:Coupe Niveau 1 elghribi(1930)-intrigue(1660):1-0
02/07/2018:Coupe Niveau 1 elghribi(1930)-verson(1830):1-0
02/07/2018:Défi scarfield(1820)-fisher22(1799):0-1
02/07/2018:Défi kerenor(1590)-roidechecs(1200):1-0
02/07/2018:Défi roidechecs(1180)-fisher22(2080):0-1
02/07/2018:Défi malmignatte(1499)-anglais(1660):1-0
02/07/2018:Défi intrigue(1600)-tetene(1780):1/2-1/2
02/07/2018:Défi hberlioz(1620)-jazzzz(1980):1-0
02/07/2018:Défi mayaapof(1700)-berjay(1710):0-1
02/07/2018:Défi asvel69(1700)-intrigue(1590):1-0
02/07/2018:Défi elghribi(1950)-moi50(1810):1-0
02/07/2018:Défi jazzzz(1980)-tartu(1640):1-0
02/07/2018:Défi manu32(1760)-fisher22(1799):1-0
02/07/2018:Défi intrigue(1590)-jazzzz(1990):0-1
02/07/2018:Défi nassim(2030)-regor(2030):1-0
02/07/2018:Défi vb83(1420)-bonafous(1380):0-1
02/07/2018:VACHEFOLLE2 tartu(1650)-gregmasten(1700):0-1
02/07/2018:le temps des cerises 1 leet(1900)-tartu(1620):1-0
02/07/2018:poutatine intrigue(1620)-lecevenol(1380):1-0
02/07/2018:Tournoi échelle champions karkaskat(2070)-jazzzz(1990):1-0
02/07/2018:Tournoi échelle division 1 coyotov(1640)-fredbauduret(1980):0-1
02/07/2018:Tournoi échelle division 1 fredbauduret(1980)-pgo(1690):1-0
02/07/2018:Tournoi n°18371 zed34(1510)-coyotov(1630):0-1
02/07/2018:Défi roschecx(1610)-pheno(1740):0-1
02/07/2018:Défi gilberthellemans(1610)-payne42(1680):1-0
02/07/2018:Défi pivoine78(1210)-bigoudi(1000):1-0
02/07/2018:Défi turbo(1500)-bonheurinterdit(1340):0-1
02/07/2018:Défi bb7553(1760)-cortaz(1820):1-0
02/07/2018:Défi jipepe(1680)-epoldic(1420):1-0
02/07/2018:Défi cortaz(1810)-asvel69(1720):1-0
02/07/2018:HONOLULU 50 janolapin(1880)-gregmasten(1730):1-0
02/07/2018:MARGARITA leet(1850)-karkaskat(2060):1/2-1/2
02/07/2018:Tournoi n°18363 simer(1670)-leredoutable(1740):1-0
02/07/2018:Tournoi n°18345 clemantoine(1770)-verson(1820):1/2-1/2
02/07/2018:Tournoi n°18339 scarfield(1750)-ghostdog(1630):1-0
02/07/2018:Défi anumisme(1410)-roxane(1600):0-1
02/07/2018:Défi malmignatte(1499)-kawa750(1500):1-0
02/07/2018:Défi jazzzz(2000)-caramanlisse(2070):1-0
02/07/2018:Défi supernono(1490)-geld108(1480):1-0
02/07/2018:Défi vb83(1440)-albescab(1500):0-1
02/07/2018:Défi skyfall(1960)-tichaton(1470):1-0
02/07/2018:Défi kawa750(1510)-maximeg(1450):1-0
03/07/2018:Tournoi n°18227 jlr(1560)-uji40(1600):0-1
03/07/2018:Tournoi n°18041 joel(1440)-jlr(1510):1-0
03/07/2018:Tournoi n°18373 coyotov(1650)-thierry06(1680):1-0
03/07/2018:Eq:Pirates du Mat-Danielsen City : eanouis(2080)-totorov(2460):1-0
03/07/2018:Défi steph65(1580)-jmjustice(1580):0-1
03/07/2018:Coupe Niveau 3 guig47(2040)-elghribi(1960):0-1
03/07/2018:Tournoi n°17642 jlr(1370)-panchoa(1580):0-1
03/07/2018:Francaise avec e5 flmnh(1720)-retinolls(1930):1-0
03/07/2018:Tournoi n°18363 simer(1670)-blackrider(1880):1-0
03/07/2018:Tournoi n°18352 scarfield(1720)-vvvv(1740):0-1
03/07/2018:Tournoi n°18364 verson(1800)-leredoutable(1730):1-0
03/07/2018:Eq:Les Gens du Sud-les modestes : dragon(1930)-mpatruyo(2350):0-1
03/07/2018:Coupe Niveau 3 yatman(1960)-stanyves(1980):0-1
03/07/2018:Coupe Niveau 2 guig47(2030)-dragon(1910):1-0
03/07/2018:Coupe Niveau 3 silveur(1970)-dragon(1910):1-0
03/07/2018:Défi patau(1780)-magyar(1540):0-1
03/07/2018:Défi geantvert06(1490)-malmignatte(1499):0-1
03/07/2018:Défi vvvv(1700)-guig47(2050):0-1
03/07/2018:Défi penelope45(1280)-kerenor(1580):0-1
03/07/2018:Kawai Chess 2 turbo(1520)-legrillon(1710):0-1
03/07/2018:Tournoi n°18357 patau(1830)-upsalin(1830):0-1
03/07/2018:Tournoi n°18284 arno(1650)-patau(1780):1-0
03/07/2018:Tournoi n°18318 ffred(1540)-oliver5(1690):0-1
03/07/2018:Tournoi n°18343 pilouface(1460)-gwada50(1280):1-0
03/07/2018:Tournoi n°18122 coyotov(1630)-trebillig(1560):1-0
03/07/2018:Tournoi n°18378 pionperdu(1590)-ffred(1550):1-0
03/07/2018:Tournoi n°18313 ffred(1530)-jlr(1570):1-0
03/07/2018:Tournoi n°18270 pionfou(1750)-patau(1790):1-0
03/07/2018:Eq:1pur-Les Oiseaux d Amsterdam : spectre(1820)-crca(1940):1-0
03/07/2018:Eq:Royal Kids-Les Rebelles : nassim(2030)-uliczny(1900):0-1
03/07/2018:Défi pheno(1700)-berjay(1710):0-1
03/07/2018:Défi berjay(1690)-cortaz(1770):0-1
03/07/2018:Défi malmignatte(1499)-turbo(1520):1-0
03/07/2018:Défi azur(1570)-noos(1560):1-0
03/07/2018:Défi jyf(1900)-morloch(1870):1/2-1/2
03/07/2018:Défi fragol(1790)-cramsnellac(1820):0-1
03/07/2018:Défi rambonov(1320)-calcedoine(1870):0-1
03/07/2018:Défi jajaf1959(1910)-patau(1860):1-0
03/07/2018:VACHEFOLLE2 garlik(2020)-karkaskat(2050):0-1
03/07/2018:Tournoi n°18066 u27940(1990)-berniz(2240):0-1
03/07/2018:Tournoi n°18359 verson(1810)-ghostdog(1640):0-1
03/07/2018:Tournoi n°18225 maximeg(1300)-clemantoine(1099):0-1
03/07/2018:Tournoi n°18378 coyotov(1650)-ffred(1550):0-1
03/07/2018:Défi tabich38(2070)-crca(1860):1-0
03/07/2018:Défi halhor(2320)-chermet(2300):0-1
03/07/2018:Défi ghostdog(1630)-oliver5(1710):1-0
03/07/2018:Défi lancov(1920)-pj612(1800):1-0
03/07/2018:Défi tropa(1420)-malmignatte(1499):0-1
03/07/2018:Défi superman(1710)-maximeg(1450):1-0
03/07/2018:Défi gregmasten(1770)-riothamus(1680):0-1
03/07/2018:Défi blueberry(2080)-calcedoine(1880):0-1
03/07/2018:Défi fisher(1620)-rambonov(1320):1-0
03/07/2018:Bella ciao verson(1820)-chessmat(1809):1-0
03/07/2018:Tournoi n°18218 jlr(1520)-intrigue(1630):1-0
03/07/2018:Tournoi n°18308 coyotov(1630)-panchoa(1590):1-0
03/07/2018:Tournoi n°18283 jlr(1590)-intrigue(1590):0-1
03/07/2018:Tournoi n°18337 arno(1700)-intrigue(1630):1-0
03/07/2018:Tournoi n°18266 kiki(1900)-intrigue(1610):1-0
03/07/2018:Défi baloo(1600)-gilberthellemans(1590):1-0
03/07/2018:Défi tropa(1410)-pilouface(1460):0-1
03/07/2018:Défi petitlulu64(1640)-gobois(1650):0-1
03/07/2018:Défi trueman(1950)-sinople(2210):0-1
03/07/2018:HONOLULU 50 petitlulu64(1630)-gregmasten(1730):1-0
03/07/2018:Mario et Luigi 48 turbo(1520)-mario46(1370):1-0
03/07/2018:le temps des cerises 1 tartu(1620)-chessmat(1809):1-0
03/07/2018:Eq:Les Quebecois-Les Gens du Sud : emmanuel69(1810)-chloridrix(1540):1-0
03/07/2018:Coupe Niveau 1 senegaulois(1950)-jlr(1510):1-0
03/07/2018:Coupe Niveau 5 nunnmiles(2570)-stanyves(2150):1-0
03/07/2018:Défi fr7d(1520)-wenoketo(1580):0-1
03/07/2018:Défi u27940(2030)-scroff(2680):0-1
03/07/2018:Défi bastien1(1540)-roidechecs(1270):1-0
03/07/2018:Défi pgo(1700)-albescab(1530):1-0
03/07/2018:Défi pourquoipas(1480)-bonafous(1390):0-1
03/07/2018:Défi bastien1(1520)-roidechecs(1290):0-1
03/07/2018:Défi fisher(1620)-intrigue(1590):1-0
03/07/2018:VACHEFOLLE2 karkaskat(2050)-gregmasten(1700):1-0
03/07/2018:Caro kann gregmasten(1720)-ptitefrez(2030):0-1
03/07/2018:Bella ciao leet(1890)-chessmat(1809):1-0
03/07/2018:Bella ciao chessmat(1809)-leet(1890):0-1
03/07/2018:Bella ciao emmanuel(1920)-leet(1890):1-0
03/07/2018:Tournoi n°18281 spectre(1880)-desaintfegor(1830):1-0
03/07/2018:Tournoi n°17970 conde7(2850)-rons(2540):1-0
03/07/2018:Tournoi n°18386 ffred(1570)-coyotov(1660):0-1
03/07/2018:Défi alphatauri(1510)-lilou(1420):0-1
03/07/2018:Défi cortaz(1770)-fisher(1610):1-0
03/07/2018:Défi skyfall(1960)-azur(1530):1-0
03/07/2018:HONOLULU 50 gregmasten(1730)-brettsinclair(1730):0-1
03/07/2018:HONOLULU 50 brettsinclair(1730)-legrillon(1760):0-1
03/07/2018:HONOLULU 50 gregmasten(1730)-pgo(1670):0-1
03/07/2018:poutatine legrillon(1690)-lecevenol(1380):1-0
03/07/2018:Tournoi échelle champions salut(1940)-spectre(1910):1/2-1/2
03/07/2018:Tournoi n°18354 blagnaque(1570)-jlr(1500):1-0
03/07/2018:Tournoi n°18320 bastien1(1500)-malmignatte(1499):0-1
03/07/2018:Tournoi n°18382 willkommen54(1970)-verson(1830):1-0
03/07/2018:Tournoi n°18288 retraite53(2280)-oranmore(2000):1-0
03/07/2018:Tournoi n°18367 manulatus(1860)-verson(1810):1-0
03/07/2018:Défi ohnopleyel(1440)-malmignatte(1499):0-1
03/07/2018:Défi malmignatte(1499)-pilouface(1450):1-0
03/07/2018:Défi plaisance(1930)-campa(1770):1-0
03/07/2018:Défi kasad(1600)-verone(2010):1-0
03/07/2018:Défi intrigue(1600)-cloclo(1840):0-1
03/07/2018:Défi malmignatte(1499)-malvina(1280):1-0
03/07/2018:Défi roidechecs(1300)-bastien1(1510):1-0
03/07/2018:Défi gregmasten(1420)-fisher22(2109):0-1
03/07/2018:Défi azur(1580)-chess54(1530):1-0
03/07/2018:Défi roidechecs(1270)-anumisme(1330):0-1
03/07/2018:Défi adrienne(1030)-anumisme(1410):0-1
03/07/2018:Défi ramo(1750)-tonton77(1760):0-1
03/07/2018:Défi bastien1(1510)-roidechecs(1300):0-1
03/07/2018:portes ouvertes en Espagnol tiounet(1600)-saruman(1750):1-0
03/07/2018:L Espagnole selon Marshall fly(2010)-paulinechess(1810):1-0
03/07/2018:Bella ciao chessmat(1809)-ptitefrez(2030):0-1
03/07/2018:le temps des cerises 1 pgo(1700)-malmignatte(1989):0-1
03/07/2018:Tournoi n°18123 lantana(1290)-kiki37(1300):0-1
03/07/2018:Tournoi n°18207 virinc(2070)-walnux(1880):0-1
03/07/2018:Tournoi n°18235 ghostdog(1610)-gonzok67(1710):1-0
03/07/2018:Tournoi n°18364 verson(1790)-legrillon(1760):1-0
03/07/2018:Tournoi n°18373 mokanne(1550)-coyotov(1650):1/2-1/2
03/07/2018:Eq:O fou d hello-LechiquierDesHurlus : yab414(1600)-linselleschti(1560):0-1
03/07/2018:Eq:Pirates du Mat-Les Corsaires de Lechiquier : totorov(2460)-blitzman(2680):0-1
03/07/2018:Coupe Niveau 1 elghribi(1960)-legrillon(1730):1-0
03/07/2018:Défi mimie(1650)-legrillon(1650):0-1
03/07/2018:Défi vb83(1440)-jhz(1670):1-0
03/07/2018:Défi malmignatte(1499)-jlouism(1490):1-0
03/07/2018:Défi tichaton(1480)-guitare59(1009):0-1
03/07/2018:Défi moi50(1860)-chocotov(2000):1-0
03/07/2018:Défi morloch(1890)-elghribi(1970):0-1
03/07/2018:Défi geantvert06(1460)-buzz84(1430):1-0
03/07/2018:Défi oliver5(1700)-mokanne(1550):0-1
03/07/2018:Défi vb83(1420)-upsalin(1860):0-1
03/07/2018:les pirates interne totorov(2460)-volatile(2510):0-1
03/07/2018:2200 2600 n°1 fredelebouric12(2550)-silv(2280):1-0
03/07/2018:Mario et Luigi 48 mario46(1370)-lecevenol(1370):0-1
03/07/2018:Bella ciao emmanuel(1920)-ptitefrez(2030):1-0
03/07/2018:Kawai Chess 2 turbo(1520)-petitlulu64(1650):1-0
03/07/2018:Tournoi n°18264 panchoa(1610)-intrigue(1620):0-1
03/07/2018:Tournoi n°18184 leet(1840)-willkommen54(2000):1/2-1/2
03/07/2018:Tournoi n°18336 panchoa(1580)-legrillon(1680):0-1
03/07/2018:Eq:Royal Kids-CHESS MASTER : malmignatte(2030)-c69(1350):1-0
03/07/2018:Défi caraca2(1760)-cineyxp(2000):0-1
03/07/2018:Défi owow44(1740)-jimi50(1890):0-1
03/07/2018:Défi malmignatte(1499)-lecavaliernoir(1530):1-0
03/07/2018:Défi cortaz(1810)-tbeau44(1710):1-0
04/07/2018:Défi gilberthellemans(1590)-fisher(1610):1-0
04/07/2018:Défi lens37(2420)-tranquille(2210):0-1
04/07/2018:Défi neddy(1200)-tootsienet(1070):1-0
04/07/2018:MARGARITA juantonio(1830)-flmnh(1670):0-1
04/07/2018:Mario et Luigi 48 mario46(1370)-petitlulu64(1650):0-1
04/07/2018:2100 2600 n°4 hallon(2390)-nunnmiles(2570):1/2-1/2
04/07/2018:Tournoi n°18373 panchoa(1590)-coyotov(1640):1-0
04/07/2018:Tournoi n°18350 bigkahuna(1660)-pionperdu(1499):0-1
04/07/2018:Tournoi n°18192 c0d3(1280)-ditmir(999):1-0
04/07/2018:Défi tootsienet(1050)-anumisme(1350):0-1
04/07/2018:Défi baudoin(1980)-fisher22(1799):1-0
04/07/2018:Défi chessmat(1809)-pgo(1690):0-1
04/07/2018:Bella ciao chessmat(1809)-intrigue(1610):0-1
04/07/2018:Bella ciao chessmat(1809)-pgo(1690):0-1
04/07/2018:le temps des cerises 1 chessmat(1809)-pgo(1700):0-1
04/07/2018:le temps des cerises 1 chessmat(1809)-zozo(1640):0-1
04/07/2018:le temps des cerises 1 uliczny(1940)-chessmat(1809):1-0
04/07/2018:Coupe Niveau 1 legionnaire(1540)-non(1699):1-0
04/07/2018:Défi gregmasten(1730)-kasad(1600):0-1
04/07/2018:HONOLULU 50 gregmasten(1730)-petitlulu64(1630):0-1
04/07/2018:Tournoi n°18284 patau(1780)-leet(1900):0-1
04/07/2018:Tournoi n°18277 leredoutable(1710)-mick13(1720):1-0
04/07/2018:Tournoi n°18327 walnux(1900)-patau(1820):1-0
04/07/2018:Eq:Pirates du Mat-Les Gens du Sud : emmanuel(2010)-daiwen(2310):0-1
04/07/2018:Eq:Les Gens du Sud-Danielsen City : emmanuel(1940)-philippelg(2130):0-1
04/07/2018:Eq:Danielsen City-Les Gens du Sud : xao(1540)-verson(1790):0-1
04/07/2018:Coupe Niveau 1 senegaulois(1940)-clafouti(2010):1-0
04/07/2018:Défi tryphon(1510)-mokanne(1550):0-1
04/07/2018:Défi gregmasten(1710)-albescab(1550):1-0
04/07/2018:Défi pj612(1790)-gregmasten(1700):0-1
04/07/2018:Défi turbo(1540)-cortaz(1800):0-1
04/07/2018:Kawai Chess 2 legrillon(1710)-malmignatte(1989):0-1
04/07/2018:Tournoi n°18354 blagnaque(1570)-ffred(1540):1-0
04/07/2018:Tournoi n°18353 verson(1850)-fooy33(1800):0-1
04/07/2018:Tournoi n°18242 arno(1680)-atestamora(1600):0-1
04/07/2018:Tournoi n°18253 chedru2000(2180)-breitenbach(2290):1-0
04/07/2018:Tournoi n°18371 miramar(1610)-zed34(1510):1-0
04/07/2018:Coupe Niveau 1 verson(1820)-jlr(1540):1-0
04/07/2018:Défi pasq60(1180)-anumisme(1370):0-1
04/07/2018:Défi max2007(1350)-titit1(1280):1-0
04/07/2018:Défi patau(1750)-domenico(1780):1-0
04/07/2018:Défi anumisme(1380)-bigoudi(1010):1-0
04/07/2018:2200 2700 n°3 tombelaine(2220)-azerty1(2220):1-0
04/07/2018:Tournoi échelle division 1 pgo(1710)-domenico(1750):1-0
04/07/2018:Tournoi n°18286 oliver5(1700)-jlr(1600):1-0
04/07/2018:Tournoi n°18246 jlr(1530)-oliver5(1680):0-1
04/07/2018:Tournoi n°18251 jlr(1540)-gonzok67(1690):0-1
04/07/2018:Tournoi n°18175 oliver5(1680)-jlr(1520):1-0
04/07/2018:Tournoi n°18375 ffred(1550)-tartu(1640):1-0
04/07/2018:Tournoi n°18375 ffred(1550)-vb83(1440):1-0
04/07/2018:Tournoi n°18247 mage(1820)-dragon(1900):1-0
04/07/2018:Tournoi n°18344 patau(1860)-spectre(1920):0-1
04/07/2018:Tournoi n°18380 patau(1800)-verson(1800):1/2-1/2
04/07/2018:Eq:Pirates du Mat-cotenstock : lekaribou(2350)-sp52(2380):1-0
04/07/2018:Coupe Niveau 3 spectre(1910)-patau(1820):1-0
04/07/2018:Défi cortaz(1810)-zozo(1660):1-0
04/07/2018:Défi blueberry(2110)-mage(1840):1-0
04/07/2018:Défi malmignatte(1499)-baloo(1560):1-0
04/07/2018:Défi jipepe(1760)-superman(1740):0-1
04/07/2018:Défi nogean(1620)-hugues(1540):1/2-1/2
04/07/2018:Défi hberlioz(1630)-bertelsen(1650):1-0
04/07/2018:Défi hberlioz(1620)-intrigue(1640):1-0
04/07/2018:Kawai Chess 2 malmignatte(1989)-turbo(1520):1-0
04/07/2018:le temps des cerises 1 tartu(1620)-malmignatte(1989):0-1
04/07/2018:le temps des cerises 1 zozo(1640)-malmignatte(1989):0-1
04/07/2018:le temps des cerises 1 uliczny(1940)-zozo(1640):1-0
04/07/2018:Tournoi n°18283 jlr(1600)-gaspard83(1600):0-1
04/07/2018:Tournoi n°18373 thierry06(1680)-panchoa(1590):1-0
04/07/2018:Tournoi n°18361 verson(1810)-gonzok67(1700):1-0
04/07/2018:Tournoi n°18288 lemagicien(2149)-fabian67(2120):0-1
04/07/2018:Tournoi n°18320 bastien1(1500)-loal(1510):1-0
04/07/2018:Tournoi n°18261 gaspard83(1610)-jlr(1590):0-1
04/07/2018:Tournoi n°18367 spectre(1910)-verson(1820):1/2-1/2
04/07/2018:Tournoi n°18376 simer(1680)-verson(1820):0-1
04/07/2018:Tournoi n°18247 mage(1820)-desaintfegor(1850):1-0
04/07/2018:Tournoi n°18340 mokanne(1550)-panchoa(1590):0-1
04/07/2018:Tournoi n°18274 magyar(1480)-malmignatte(2010):0-1
04/07/2018:Tournoi n°18392 coyotov(1660)-jlr(1440):0-1
04/07/2018:Eq:Royal Kids-CHESS MASTER : bassdark(2070)-uliczny(1940):1/2-1/2
04/07/2018:Eq:Royal Kids-CHESS MASTER : c69(1350)-malmignatte(2030):0-1
04/07/2018:Coupe Niveau 1 patau(1750)-dragon(1900):0-1
04/07/2018:Défi penelope45(1300)-bubbly(1310):1-0
04/07/2018:Défi epervier(1770)-scarfield(1780):1-0
04/07/2018:Défi warriorette(1900)-chessgaston(2090):0-1
04/07/2018:Défi katastrofic(1390)-pierrejean(1440):1-0
04/07/2018:Rapide juin 2018 uliczny(1940)-verson(1820):1/2-1/2
04/07/2018:Tournoi échelle division 1 daniel1(1770)-verson(1820):0-1
04/07/2018:Tournoi n°18302 lychar(1680)-oliver5(1710):1-0
04/07/2018:Tournoi n°18329 miramar(1600)-tartu(1620):0-1
04/07/2018:Tournoi n°18375 vb83(1430)-jlr(1490):1-0
04/07/2018:Eq:Mission Impossible-Les Rebelles : pascalj24(2160)-pionroi(2680):0-1
04/07/2018:Eq:les grenades-Pirates du Mat : pgcbies(2820)-volatile(2500):1-0
04/07/2018:Eq:Les Quebecois-Les Gens du Sud : chloridrix(1540)-emmanuel69(1810):0-1
04/07/2018:Coupe Niveau 2 daniel1(1760)-clafouti(2040):1-0
04/07/2018:Coupe Niveau 1 daniel1(1790)-nimzoindien(1810):1/2-1/2
04/07/2018:Défi lilith(1330)-bubbly(1310):0-1
04/07/2018:Défi mokanne(1550)-cortaz(1760):0-1
04/07/2018:Défi skyfall(1960)-koi34(1840):1-0
04/07/2018:Défi upsalin(1900)-hberlioz(1620):0-1
04/07/2018:Défi cortaz(1810)-ghostdog(1640):1-0
04/07/2018:Bella ciao ptitefrez(2030)-pgo(1690):1-0
04/07/2018:Tournoi n°18108 geantvert(1690)-jlr(1510):1-0
04/07/2018:Tournoi n°18286 ffred(1490)-mayaapof(1630):1-0
04/07/2018:Tournoi n°18354 tartu(1620)-ffred(1550):0-1
04/07/2018:Tournoi n°18280 intrigue(1590)-edison(1600):1-0
04/07/2018:Tournoi n°18378 coyotov(1630)-pionperdu(1590):1-0
04/07/2018:Tournoi n°18272 magyar(1480)-bastien1(1410):1-0
04/07/2018:Tournoi n°18389 upsalin(1910)-verson(1800):1/2-1/2
04/07/2018:Eq:Pirates du Mat-Les Gens du Sud : emmanuel(1970)-volatile(2510):0-1
04/07/2018:Défi linselleschti(1570)-kawa750(1560):1-0
04/07/2018:Défi zozo(1630)-gilberthellemans(1600):0-1
04/07/2018:Défi temistocles(1400)-speedyfil(1470):0-1
04/07/2018:Défi vb83(1340)-perepeinard34(1270):1-0
04/07/2018:Défi intrigue(1630)-degun(1860):0-1
04/07/2018:Défi anumisme(1340)-pasq60(1200):1-0
04/07/2018:Défi intrigue(1640)-algors(1740):1-0
04/07/2018:Eté 2018 n°4 pionperdu(1499)-patrick(1620):1-0
04/07/2018:Le vieux Roi 13 uji40(1600)-bigkahuna(1690):0-1
04/07/2018:Rapide juin 2018 verson(1820)-tartu(1630):1-0
04/07/2018:Tournoi n°18380 fredbauduret(1980)-verson(1810):0-1
04/07/2018:Tournoi n°18362 panchoa(1590)-jlr(1500):1-0
04/07/2018:Tournoi n°18334 uji40(1610)-pionperdu(1499):0-1
04/07/2018:Tournoi n°18336 legrillon(1680)-oliver5(1710):0-1
04/07/2018:Tournoi n°18364 simer(1680)-legrillon(1760):1-0
04/07/2018:Eq:Les Corsaires de Lechiquier-Royal Kids : hogar(2880)-hallon(2390):1-0
04/07/2018:Eq:Les Corsaires de Lechiquier-Royal Kids : hallon(2390)-hogar(2880):0-1
04/07/2018:Coupe Niveau 2 elghribi(1980)-verson(1800):1-0
04/07/2018:Défi albescab(1560)-jmr(1570):1-0
04/07/2018:Défi superman(1730)-sergiodevienne(1750):1/2-1/2
04/07/2018:Défi katastrofic(1450)-turbo(1540):1-0
04/07/2018:Défi nunnmiles(2540)-osteo(2580):1/2-1/2
04/07/2018:Défi alain84(1740)-pj612(1790):0-1
04/07/2018:Défi voyageur14(1280)-anumisme(1350):0-1
04/07/2018:Défi pascalou50(1810)-pitchoune50(1200):1-0
04/07/2018:Défi algors(1740)-vvvv(1760):0-1
04/07/2018:Le vieux Roi 12 turbo(1490)-johannes03(1690):0-1
04/07/2018:HONOLULU 50 yyyg(1640)-janolapin(1880):0-1
04/07/2018:Mario et Luigi 48 petitlulu64(1650)-turbo(1520):0-1
04/07/2018:Bella ciao bertelsen(1650)-leet(1890):0-1
04/07/2018:Kawai Chess 2 turbo(1520)-zozo(1640):1-0
04/07/2018:Kawai Chess 2 legrillon(1710)-petitlulu64(1650):0-1
04/07/2018:poutatine lecevenol(1380)-legrillon(1690):0-1
04/07/2018:Tournoi n°18292 nico(1950)-chomi64(2010):1-0
04/07/2018:Eq:Pirates du Mat-Les Gens du Sud : sp52(2400)-dragon(1900):1-0
04/07/2018:Défi bigoudi(1030)-anumisme(1400):1-0
04/07/2018:Défi gambitmiau(1660)-roschecx(1650):1-0
04/07/2018:Défi chedru2000(2180)-u27940(2050):1-0
04/07/2018:Défi bonafous(1420)-joel(1470):1-0
04/07/2018:Défi stseb(1890)-atestamora(1680):1-0
04/07/2018:Défi bibisept(1870)-sinople(2210):0-1
04/07/2018:Défi augustin(1400)-pgo(1670):0-1
04/07/2018:Défi surcouf(1640)-vb83(1430):0-1
04/07/2018:Défi nuitetoilee(1469)-geantvert06(1500):1-0
04/07/2018:Défi u27940(2040)-bekheira(2100):1-0
04/07/2018:Le vieux Roi 12 roschecx(1650)-johannes03(1690):0-1
04/07/2018:Le vieux Roi 13 legrillon(1710)-roschecx(1640):0-1
04/07/2018:2100 2600 n°4 hallon(2390)-capitaine(2100):1-0
04/07/2018:Tournoi échelle division 1 kaspadesbrik(1720)-fredbauduret(1980):1-0
04/07/2018:Tournoi échelle division 2 coyotov(1630)-uji40(1590):1-0
05/07/2018:Tournoi n°18201 nicodemouscron(2130)-djayphil(2160):1/2-1/2
05/07/2018:Défi gemme11(1589)-aigle12(1420):1-0
05/07/2018:Défi blackbishop(1830)-tunellavage(1750):0-1
05/07/2018:Défi ryba(1940)-swallow(2010):0-1
05/07/2018:Défi asvel69(1720)-gambitmiau(1640):1-0
05/07/2018:Défi anglais(1680)-ramo(1740):1-0
05/07/2018:Défi malmignatte(1499)-gervaise(1110):1-0
05/07/2018:Tournoi n°18077 geantvert(1680)-gilcello(1570):0-1
05/07/2018:Eq:O fou d hello-Les Oiseaux d Amsterdam : marieclaire(1370)-junior1966(1330):0-1
05/07/2018:Coupe Niveau 2 senegaulois(1950)-pascalou50(1810):1-0
05/07/2018:Tournoi n°18288 lemagicien(2149)-retraite53(2260):0-1
05/07/2018:Tournoi n°18235 legrillon(1770)-aramis(1740):1-0
05/07/2018:Tournoi n°18386 miramar(1600)-coyotov(1660):1-0
05/07/2018:Tournoi n°18393 jlr(1440)-coyotov(1670):1-0
05/07/2018:Eq:Les Gens du Sud-les modestes : mpatruyo(2350)-dragon(1930):1-0
05/07/2018:Coupe Niveau 1 verson(1790)-legros(1700):1-0
05/07/2018:Défi yann56(1680)-pgo(1670):1-0
05/07/2018:Défi gilberthellemans(1630)-hberlioz(1610):1-0
05/07/2018:Défi atestamora(1660)-upsalin(1830):0-1
05/07/2018:Défi raymar(1530)-malmignatte(1499):0-1
05/07/2018:Défi petitlulu64(1650)-pierrejean(1460):1/2-1/2
05/07/2018:Défi hberlioz(1630)-patau(1840):0-1
05/07/2018:Défi midas(1840)-bilitis(1850):0-1
05/07/2018:Défi adrienne(1060)-chobi(1730):0-1
05/07/2018:Kawai Chess 2 turbo(1520)-malmignatte(1989):0-1
05/07/2018:Kawai Chess 2 petitlulu64(1650)-zozo(1640):0-1
05/07/2018:Tournoi n°18384 verson(1810)-patau(1820):1-0
05/07/2018:Eq:les grenades-Pirates du Mat : roka(2420)-saurug(2480):0-1
05/07/2018:Eq:Les Corsaires de Lechiquier-les modestes : jetjet91330(2190)-april(2120):1-0
05/07/2018:Eq:Les Gens du Sud-Royal Kids : silveur(1960)-uliczny(1940):1-0
05/07/2018:Eq:Les Gens du Sud-Royal Kids : uliczny(1940)-silveur(1960):0-1
05/07/2018:Coupe Niveau 2 patau(1840)-elghribi(1950):1-0
05/07/2018:Défi hachevitch(2490)-lens37(2430):0-1
05/07/2018:Défi tian(1370)-malmignatte(1499):0-1
05/07/2018:Défi malmignatte(1499)-lecevenol(1370):1-0
05/07/2018:Défi jhz(1680)-cineyxp(2090):0-1
05/07/2018:le temps des cerises 1 malmignatte(1989)-pgo(1700):1-0
05/07/2018:Tournoi n°18379 patau(1820)-verson(1810):1-0
05/07/2018:Tournoi n°18347 louis67(1540)-jlr(1540):1-0
05/07/2018:Tournoi n°18288 oranmore(2000)-lemagicien(2169):1-0
05/07/2018:Eq:les modestes-LA CITE ARDENTE : quasar999(1960)-jetjet91330(2140):0-1
05/07/2018:Eq:Les Corsaires de Lechiquier-Les Gens du Sud : levelmax(2770)-ryba(1940):1-0
05/07/2018:Coupe Niveau 1 patau(1840)-verson(1800):0-1
05/07/2018:Défi amoursincere(1199)-deric(1550):1-0
05/07/2018:Défi vvvv(1740)-tinenfant(1860):1/2-1/2
05/07/2018:Défi patau(1820)-papymiche(1700):0-1
05/07/2018:Défi dpcarballo(2170)-morloch(1870):1/2-1/2
05/07/2018:Défi chedru2000(2170)-nassim(2030):0-1
05/07/2018:Rapide juin 2018 verson(1820)-uliczny(1940):1/2-1/2
05/07/2018:Tournoi échelle eldiablo90(2820)-fredelebouric12(2560):1/2-1/2
05/07/2018:Tournoi n°18105 joel(1450)-jlr(1490):1-0
05/07/2018:Tournoi n°18355 coyotov(1650)-bastien1(1480):0-1
05/07/2018:Tournoi n°18201 baudoin(1990)-nicodemouscron(2130):0-1
05/07/2018:Tournoi n°18346 albescab(1510)-bastien1(1450):0-1
05/07/2018:Tournoi n°18303 saruman(1800)-mistralgagnant(1960):1-0
05/07/2018:Tournoi n°18288 hilts(2190)-lemagicien(2179):1-0
05/07/2018:Défi saby(1620)-bazart(2030):0-1
05/07/2018:Défi cortaz(1810)-pgo(1670):1-0
05/07/2018:Défi mdc(1770)-pasq60(1200):1-0
05/07/2018:Défi plaisance(1920)-skyfall(1960):0-1
05/07/2018:Le vieux Roi 13 bigkahuna(1690)-uji40(1600):1-0
05/07/2018:Tournoi échelle division 2 uji40(1580)-desmoulins(2510):0-1
05/07/2018:Tournoi n°18274 malmignatte(1499)-bastien1(1490):1-0
05/07/2018:Tournoi n°18386 miramar(1600)-ffred(1570):0-1
05/07/2018:Eq:Danielsen City-ThalesTeam : blueberry(2140)-e2e4(2070):0-1
05/07/2018:Coupe Niveau 2 verson(1840)-crca(1930):1-0
05/07/2018:Défi wenoketo(1620)-azur(1580):1-0
05/07/2018:Défi perepeinard34(1280)-turbo(1520):0-1
05/07/2018:Défi pgo(1670)-nuitetoilee(1589):0-1
05/07/2018:Défi pilouface(1460)-nuitetoilee(999):1-0
05/07/2018:Défi jajaf1959(1920)-nimzoindien(1700):0-1
05/07/2018:Défi cortaz(1810)-jpjay(1770):1-0
05/07/2018:Défi daniel1(1790)-patau(1770):0-1
05/07/2018:Défi kaspadesbrik(1710)-alainv(1990):1-0
05/07/2018:Eté 2018 n°6 epervier14(1410)-bastien1(1460):1-0
05/07/2018:Le vieux Roi 13 bigkahuna(1690)-zozo(1650):0-1
05/07/2018:le temps des cerises 1 zozo(1640)-chessmat(1809):1-0
05/07/2018:le temps des cerises 1 malmignatte(1989)-chessmat(1809):1-0
05/07/2018:Tournoi n°18324 ffred(1580)-bastien1(1490):1-0
05/07/2018:Tournoi n°18318 bastien1(1490)-coyotov(1670):0-1
05/07/2018:Tournoi n°18312 verson(1780)-gognol(1820):0-1
05/07/2018:Tournoi n°18384 spectre(1920)-verson(1810):1-0
05/07/2018:Tournoi n°18272 bastien1(1430)-sylvainwb(1700):0-1
05/07/2018:Tournoi n°18348 scarfield(1730)-legros(1710):0-1
05/07/2018:Tournoi n°18370 scarfield(1710)-simer(1680):0-1
05/07/2018:Tournoi n°18390 simer(1700)-verson(1800):0-1
05/07/2018:Tournoi n°18393 coyotov(1660)-ffred(1580):1-0
05/07/2018:Tournoi n°18390 upsalin(1900)-verson(1820):1-0
05/07/2018:Eq:Danielsen City-LES CHATTERBOX : xao(1550)-bistro1(1530):1-0
05/07/2018:Eq:Danielsen City-LES CHATTERBOX : bistro1(1530)-xao(1550):0-1
05/07/2018:Eq:Les Gens du Sud-LA CITE ARDENTE : halhor(2390)-emmanuel(1940):1-0
05/07/2018:Coupe Niveau 3 cereus69300(1809)-kasad(1690):1-0
05/07/2018:Coupe Niveau 1 clafouti(2010)-elghribi(1950):0-1
05/07/2018:Coupe Niveau 4 spectre(1910)-djayphil(2150):1/2-1/2
05/07/2018:Défi blueberry(2060)-kaspy(1990):1-0
05/07/2018:Défi scarfield(1800)-mayaapof(1640):0-1
05/07/2018:Défi den(1970)-bassdark(2060):1-0
05/07/2018:Tournoi échelle division 2 yyyg(1540)-desmoulins(2510):0-1
05/07/2018:Tournoi n°18298 marmotte50(1920)-leet(1910):1-0
05/07/2018:Tournoi n°18319 warriorette(1900)-philou(1870):0-1
05/07/2018:Tournoi n°18302 lychar(1680)-mojo(1710):1-0
05/07/2018:Tournoi n°18369 upsalin(1860)-xercott(1740):1-0
05/07/2018:Tournoi n°18390 upsalin(1900)-simer(1690):1-0
05/07/2018:Eq:Pirates du Mat-les modestes : blutch70(2230)-thierry7ardeche(1980):0-1
05/07/2018:Eq:Les Rebelles-les fous de bassans : trueman(1960)-nassim(2020):0-1
05/07/2018:Coupe Niveau 1 silveur(1920)-bastien1(1370):1-0
05/07/2018:Défi matlepuma(1150)-tootsienet(1020):1-0
05/07/2018:Défi jpjay(1760)-skyfall(1960):0-1
05/07/2018:Le vieux Roi 12 yab414(1620)-roschecx(1650):1-0
05/07/2018:MARGARITA leet(1850)-juantonio(1830):1-0
05/07/2018:Le vieux Roi 13 roschecx(1640)-legrillon(1710):1-0
05/07/2018:Tournoi échelle division 3 vachefolle(2080)-jlr(1550):1-0
05/07/2018:Tournoi n°18249 magyar(1480)-malmignatte(1499):0-1
05/07/2018:Tournoi n°18365 maldorox(1480)-katastrofic(1430):1-0
05/07/2018:Tournoi n°18272 magyar(1480)-jlr(1580):0-1
05/07/2018:Tournoi n°18272 sylvainwb(1700)-magyar(1480):1-0
05/07/2018:Tournoi n°18306 jlr(1590)-thierry22(1620):1-0
05/07/2018:Tournoi n°18288 fabian67(2100)-oranmore(2000):1-0
05/07/2018:Tournoi n°18370 simer(1680)-biquet(1820):1-0
05/07/2018:Tournoi n°18396 coyotov(1660)-jlr(1430):0-1
05/07/2018:Eq:La Crim Team-Les diplomates : desmoulins(2550)-pessoa(2190):1-0
05/07/2018:Eq:Les Gens du Sud-Royal Kids : ryba(1940)-regor(1990):1-0
05/07/2018:Eq:Pirates du Mat-Les Quebecois : roschecx(1640)-rackam(2160):0-1
05/07/2018:Eq:Les Corsaires de Lechiquier-Pirates du Mat : eltche(2460)-z1000(2800):0-1
05/07/2018:Eq:Les Corsaires de Lechiquier-Royal Kids : regor(2010)-z1000(2800):0-1
05/07/2018:Défi amoursincere(1199)-azur(1620):0-1
05/07/2018:Défi joelcouturier(1210)-neddy(1160):0-1
05/07/2018:Défi scarfield(1780)-tbeau44(1700):0-1
05/07/2018:Défi gina(1390)-buzz84(1430):0-1
05/07/2018:Défi scarfield(1820)-berjay(1690):1-0
05/07/2018:Défi chobi(1720)-cortaz(1810):1-0
05/07/2018:Défi chessgaston(2100)-tichaton(1470):1-0
05/07/2018:Défi angerpat(1560)-tichaton(1480):1-0
05/07/2018:Défi biquet(1850)-mrmatchnul(2310):0-1
05/07/2018:Défi tichaton(1480)-albescab(1560):0-1
05/07/2018:Défi tichaton(1480)-geantvert06(1510):0-1
05/07/2018:Printemps 2018 n°1 vickort(2430)-buats007(2690):0-1
05/07/2018:Le vieux Roi 13 roschecx(1640)-uji40(1600):1-0
05/07/2018:Kawai Chess 2 legrillon(1710)-turbo(1520):0-1
06/07/2018:Tournoi n°17749 aphatsum(2640)-nunnmiles(2530):1/2-1/2
06/07/2018:Eq:LA CITE ARDENTE-Pirates du Mat : blutch70(2280)-micmoun(2050):1-0
06/07/2018:Coupe Niveau 6 abc47(2120)-levelmax(2790):0-1
06/07/2018:Tournoi échelle division 2 yab414(1620)-pasctin(1870):0-1
06/07/2018:Tournoi n°18025 chomi64(2010)-clafouti(1809):1-0
06/07/2018:Tournoi n°18271 desaintfegor(1840)-leet(1870):1-0
06/07/2018:Tournoi n°18356 chomi64(1980)-verson(1810):0-1
06/07/2018:Tournoi n°18315 chomi64(1990)-fredbauduret(2000):0-1
06/07/2018:Tournoi n°18353 leredoutable(1760)-fooy33(1800):1-0
06/07/2018:Tournoi n°18315 chomi64(1990)-verson(1820):0-1
06/07/2018:Tournoi n°18252 chomi64(1970)-fredbauduret(1980):0-1
06/07/2018:Tournoi n°18342 chomi64(1990)-verson(1820):0-1
06/07/2018:Tournoi n°18292 chomi64(1990)-verson(1790):0-1
06/07/2018:Tournoi n°18366 chomi64(1970)-verson(1780):0-1
06/07/2018:Défi burgman(2070)-loco11(1900):1-0
06/07/2018:Défi vvvv(1720)-papymiche(1700):0-1
06/07/2018:Tournoi échelle division 1 verson(1810)-tinenfant(1860):0-1
06/07/2018:Tournoi n°18315 rvsinovitch(2010)-chomi64(1990):1-0
06/07/2018:Tournoi n°18353 arno(1720)-leredoutable(1760):0-1
06/07/2018:Tournoi n°18342 patau(1810)-chomi64(2010):1-0
06/07/2018:Tournoi n°18236 chomi64(1990)-zax(2020):0-1
06/07/2018:Tournoi n°18342 chomi64(2000)-zax(2000):0-1
06/07/2018:Tournoi n°18219 patau(1810)-mistralgagnant(1990):0-1
06/07/2018:Tournoi n°18305 zax(2000)-chomi64(2010):1-0
06/07/2018:Tournoi n°18356 chomi64(1970)-zax(2010):0-1
06/07/2018:Tournoi n°18390 dark(1799)-upsalin(1900):0-1
06/07/2018:Eq:les modestes-Les Corsaires de Lechiquier : apollon(2720)-mohamedramdane(2750):1/2-1/2
06/07/2018:Eq:les modestes-Les Corsaires de Lechiquier : mohamedramdane(2770)-apollon(2760):1/2-1/2
06/07/2018:Eq:les modestes-Les Corsaires de Lechiquier : apollon(2760)-mohamedramdane(2770):1/2-1/2
06/07/2018:Eq:Les Quebecois-Les Gens du Sud : dragon(1910)-flmnh(1710):1-0
06/07/2018:Défi calcedoine(1880)-nassim(1799):0-1
06/07/2018:Défi berjay(1690)-chobi(1770):0-1
06/07/2018:Défi burgman(2060)-alain34(2200):0-1
06/07/2018:Défi mrmatchnul(2310)-laquina(1169):1-0
06/07/2018:Défi bassdark(2100)-cocodou(1940):1-0
06/07/2018:2200 2600 n°1 berniz(2240)-nunnmiles(2540):0-1
06/07/2018:2200 2700 n°2 mehr(2560)-akkullanu(2640):0-1
06/07/2018:2200 2700 n°2 hachevitch(2480)-mehr(2560):1-0
06/07/2018:Tournoi n°17863 walnux(1900)-chomi64(2020):1-0
06/07/2018:Tournoi n°18356 salut(1940)-chomi64(1980):1-0
06/07/2018:Tournoi n°17913 chomi64(1990)-willkommen54(2010):0-1
06/07/2018:Tournoi n°18129 intrigue(1620)-maxzur(1550):0-1
06/07/2018:Tournoi n°18285 clemm(1700)-ephixe(1720):0-1
06/07/2018:Tournoi n°18285 leredoutable(1710)-ephixe(1720):1-0
06/07/2018:Tournoi n°18315 salut(1950)-chomi64(2020):1-0
06/07/2018:Tournoi n°18305 salut(1950)-chomi64(2020):1-0
06/07/2018:Coupe Niveau 1 intrigue(1590)-sylvainwb(1690):0-1
06/07/2018:Défi wenoketo(1530)-tartu(1610):0-1
06/07/2018:Défi roidechecs(1290)-malmignatte(1499):0-1
06/07/2018:Défi jajaf1959(1920)-patau(1820):1-0
06/07/2018:Défi anglais(1690)-bb7553(1760):0-1
06/07/2018:Défi albescab(1530)-algors(1740):1-0
06/07/2018:Défi jimi50(1880)-alain34(2150):0-1
06/07/2018:Défi burgman(2060)-tonton77(1760):1-0
06/07/2018:Bella ciao leet(1890)-bertelsen(1650):1-0
06/07/2018:Bella ciao intrigue(1610)-mistralgagnant(1970):0-1
06/07/2018:Bella ciao bertelsen(1650)-ptitefrez(2030):0-1
06/07/2018:Kawai Chess 2 malmignatte(1989)-zozo(1640):1-0
06/07/2018:Tournoi échelle division 3 yyyg(1540)-malmignatte(2060):0-1
06/07/2018:Tournoi n°18016 verson(1860)-chomi64(2010):0-1
06/07/2018:Tournoi n°18251 gonzok67(1690)-tartu(1600):1-0
06/07/2018:Tournoi n°18348 legros(1710)-leredoutable(1750):0-1
06/07/2018:Tournoi n°18361 verson(1830)-arno(1730):0-1
06/07/2018:Tournoi n°18361 tartu(1610)-pionperdu(1730):0-1
06/07/2018:Tournoi n°18396 ffred(1600)-coyotov(1650):1-0
06/07/2018:Défi pj612(1800)-ghostdog(1650):1-0
06/07/2018:Défi jipepe(1680)-malmignatte(1499):0-1
06/07/2018:Défi stseb(1870)-skyfall(1960):1/2-1/2
06/07/2018:Défi skyfall(1960)-upsalin(1840):0-1
06/07/2018:Défi vb83(1440)-bertelsen(1680):0-1
06/07/2018:Défi tartu(1630)-midas(1840):1-0
06/07/2018:Défi scroff(2660)-toutankhamon24(2139):1-0
06/07/2018:Défi bastien1(1390)-malvina(1270):0-1
06/07/2018:Défi kaspadesbrik(1740)-lecouz(1670):1-0
06/07/2018:Défi arno(1710)-cortaz(1810):1-0
06/07/2018:Défi azur(1540)-albescab(1490):1-0
06/07/2018:Défi bassdark(2070)-patau(1830):1-0
06/07/2018:Interne 1pur bastien1(1400)-c0d3(1240):1-0
06/07/2018:Rapide juin 2018 tartu(1630)-verson(1820):0-1
06/07/2018:Tournoi n°18382 spectre(1920)-verson(1820):1/2-1/2
06/07/2018:Tournoi n°18152 gwada50(1310)-futhark(999):1-0
06/07/2018:Tournoi n°18372 verson(1830)-arno(1700):1-0
06/07/2018:Tournoi n°18226 fredoparis(1730)-verson(1760):0-1
06/07/2018:Tournoi n°18298 spectre(1890)-desaintfegor(1830):1-0
06/07/2018:Tournoi n°18302 mojo(1710)-xercott(1730):1-0
06/07/2018:Tournoi n°18384 verson(1810)-desaintfegor(1830):1/2-1/2
06/07/2018:Tournoi n°18371 zed34(1510)-ffred(1530):0-1
06/07/2018:Tournoi n°18369 xercott(1740)-verson(1790):0-1
06/07/2018:Tournoi n°18362 vb83(1430)-jlr(1500):1-0
06/07/2018:Eq:Les Quebecois-Les Corsaires de Lechiquier : hub(1890)-fredelebouric12(2560):0-1
06/07/2018:Coupe Niveau 4 toutankhamon24(2270)-verson(1800):1-0
06/07/2018:Défi doudou(1700)-luz(1660):0-1
06/07/2018:Défi zayka(1870)-fisher22(1799):1-0
06/07/2018:Pion de sa gente dame bubblegum(1700)-verson(1790):1/2-1/2
06/07/2018:Eq:Les Corsaires de Lechiquier-Pirates du Mat : eltche(2470)-apollon(2820):1/2-1/2
06/07/2018:Défi fredoparis(1730)-fragol(1750):1/2-1/2
06/07/2018:Défi aigle12(1450)-temistocles(1400):0-1
06/07/2018:Tournoi n°18390 verson(1830)-dark(1799):1-0
06/07/2018:Eq:Fair play-Danielsen City : azerty1(2230)-lool(2640):0-1
06/07/2018:Eq:Les Gens du Sud-Royal Kids : verson(1860)-manulatus(1850):1-0
06/07/2018:Coupe Niveau 3 jmarcboury(1930)-salut(1920):1-0
06/07/2018:Coupe Niveau 5 elghribi(1970)-yatman(1960):0-1
06/07/2018:Défi ramo(1770)-luz(1660):1-0
06/07/2018:Défi speedyfil(1480)-geantvert06(1490):0-1
06/07/2018:Défi orchidee(2130)-crca(1950):1-0
06/07/2018:Défi clafouti(2060)-pascalou50(1800):0-1
06/07/2018:Défi kaspi007(2100)-chess287(2120):1/2-1/2
06/07/2018:Défi titit1(1320)-anumisme(1450):0-1
06/07/2018:Tournoi n°18323 jhz(1680)-xercott(1720):0-1
06/07/2018:Tournoi n°18390 dark(1799)-simer(1700):1-0
06/07/2018:Défi tootsienet(1040)-largo(999):0-1
06/07/2018:Défi loco11(1900)-kaby771(2050):0-1
06/07/2018:Défi tjspret(1770)-berjay(1690):0-1
06/07/2018:Bella ciao intrigue(1610)-leet(1890):0-1
06/07/2018:le temps des cerises 1 yyyg(1510)-uliczny(1940):0-1
06/07/2018:Tournoi n°18359 ghostdog(1640)-leredoutable(1770):1-0
06/07/2018:Tournoi n°18330 magyar(1480)-legrillon(1710):1-0
06/07/2018:Eq:Les Rebelles-Les Quebecois : pionroi(2680)-janolapin(1910):1-0
06/07/2018:Défi hilts(2140)-maxzur(1520):1-0
06/07/2018:Défi kousso(1350)-bigoudi(1000):0-1
06/07/2018:Défi razowski(2450)-maitreabord(2800):0-1
06/07/2018:Kawai Chess 2 petitlulu64(1650)-legrillon(1710):0-1
07/07/2018:Tournoi n°18223 gilcello(1650)-doudou(1690):1-0
07/07/2018:Eq:Pirates du Mat-cotenstock : djayphil(2150)-blutch70(2230):0-1
07/07/2018:Défi caramanlisse(2070)-kaby771(2080):1-0
07/07/2018:Défi lancov(1940)-gari(1780):1-0
07/07/2018:Eq:Royal Kids-Les Oiseaux d Amsterdam : rondoudou(2010)-skalfa(1780):0-1
07/07/2018:Eq:Les Gens du Sud-O fou d hello : boucher28(1400)-verson(1820):0-1
07/07/2018:Défi zacharie(1689)-jmjustice(1530):1-0
07/07/2018:Tournoi n°18213 bnj(1860)-darkchossete(1820):1-0
07/07/2018:Tournoi n°18285 leredoutable(1710)-clemm(1700):1-0
07/07/2018:Défi scarfield(1780)-sergiodevienne(1770):1-0
07/07/2018:Kawai Chess 2 zozo(1640)-petitlulu64(1650):1-0
07/07/2018:Tournoi échelle champions zax(2010)-ptitefrez(2040):0-1
07/07/2018:Tournoi échelle division 2 zozo(1660)-kaspadesbrik(1710):0-1
07/07/2018:Tournoi échelle division 2 yyyg(1540)-thomas(1680):0-1
07/07/2018:Tournoi n°18042 oranmore(1940)-chomi64(1980):1-0
07/07/2018:Tournoi n°18025 chomi64(2000)-verson(1860):1-0
07/07/2018:Tournoi n°18159 chomi64(1990)-verson(1850):0-1
07/07/2018:Tournoi n°18385 ghostdog(1650)-simer(1700):0-1
07/07/2018:Tournoi n°18284 manu32(1820)-verson(1790):1-0
07/07/2018:Tournoi n°18253 breitenbach(2290)-kichmat(2060):1/2-1/2
07/07/2018:Tournoi n°18349 kendo2d(1800)-defense(1840):0-1
07/07/2018:Tournoi n°18349 oliver5(1710)-kendo2d(1800):0-1
07/07/2018:Tournoi n°18345 intrigue(1620)-clemantoine(1780):1-0
07/07/2018:Tournoi n°18383 guitare59(1009)-katastrofic(1470):1-0
07/07/2018:Eq:Pirates du Mat-Les Oiseaux d Amsterdam : sampiero2a(1360)-blutch70(2230):0-1
07/07/2018:Eq:Les Gens du Sud-O fou d hello : verson(1820)-boucher28(1400):1-0
07/07/2018:Défi buzz84(1400)-fr7d(1470):0-1
07/07/2018:Défi cortaz(1810)-papymiche(1680):0-1
07/07/2018:Défi damotte(2000)-steflam(1430):0-1
07/07/2018:Défi shailo(2080)-steflam(1430):1-0
07/07/2018:Défi zozo(1660)-intrigue(1640):0-1
07/07/2018:Kawai Chess 2 legrillon(1710)-zozo(1640):0-1
07/07/2018:2100 2600 n°4 nunnmiles(2570)-capitaine(2100):1-0
07/07/2018:Coupe Niveau 5 djayphil(2160)-alain64(2190):1-0
07/07/2018:Coupe Niveau 2 silveur(1980)-elghribi(1950):0-1
07/07/2018:Défi damotte(1990)-fisher22(1799):1-0
07/07/2018:Défi patau(1800)-cricri57(1800):1-0
07/07/2018:Défi bubblegum(1680)-malmignatte(1499):0-1
07/07/2018:Défi doudou(1680)-malmignatte(1499):0-1
07/07/2018:Défi kasad(1600)-schnibble(2390):0-1
07/07/2018:Défi nassim(1829)-kaby771(2050):1-0
07/07/2018:Défi ziviol(1440)-adrienne(1070):1-0
07/07/2018:Défi jazzzz(2000)-toutankhamon24(1809):0-1
07/07/2018:Défi aigle12(1400)-superman(1720):0-1
07/07/2018:Tournoi échelle division 1 domenico(1780)-pionfou(1780):1-0
07/07/2018:Tournoi échelle division 3 vachefolle(2080)-bastien1(1490):1-0
07/07/2018:Tournoi n°18314 manulatus(1870)-moris54(2000):0-1
07/07/2018:Tournoi n°17931 cramsnellac(1850)-poireau(1780):1-0
07/07/2018:Tournoi n°18365 katastrofic(1440)-joel(1470):1-0
07/07/2018:Tournoi n°18376 simer(1680)-clemm(1670):1-0
07/07/2018:Tournoi n°18202 xercott(1730)-poireau(1740):1-0
07/07/2018:Tournoi n°18277 mick13(1720)-scarfield(1810):0-1
07/07/2018:Tournoi n°18329 tartu(1620)-oliver5(1700):1/2-1/2
07/07/2018:Tournoi n°18352 vvvv(1740)-darkchossete(1830):0-1
07/07/2018:Eq:les modestes-Les Corsaires de Lechiquier : mohamedarab(2830)-apollon(2760):1-0
07/07/2018:Eq:O fou d hello-les modestes : olivyeah(1960)-breitenbach(2290):0-1
07/07/2018:Coupe Niveau 1 verson(1820)-darkchossete(1870):0-1
07/07/2018:Défi morloch(1910)-jazzzz(1980):1-0
07/07/2018:Défi anumisme(1400)-titit1(1300):1-0
07/07/2018:Défi gambou(1770)-elghribi(1970):0-1
07/07/2018:Défi anumisme(1430)-pivoine78(1180):1-0
07/07/2018:Défi lens37(2420)-dpcarballo(2170):0-1
07/07/2018:Défi claudus(1660)-ramo(1760):0-1
07/07/2018:Défi intrigue(1640)-den(1970):0-1
07/07/2018:HONOLULU 50 janolapin(1880)-petitlulu64(1630):1-0
07/07/2018:Tournoi n°18285 didactik44(1740)-clemm(1700):1-0
07/07/2018:Tournoi n°18175 jlr(1520)-artistepeintre(1520):0-1
07/07/2018:Tournoi n°18185 mayaapof(1640)-wenoketo(1620):1-0
07/07/2018:Tournoi n°18370 scarfield(1710)-biquet(1820):1-0
07/07/2018:Tournoi n°18391 zax(2040)-verson(1860):1-0
07/07/2018:Eq:LES CHATTERBOX-Les Gens du Sud : ephixe(1710)-verson(1820):0-1
07/07/2018:Coupe Niveau 2 elghribi(1990)-clafouti(2030):1-0
07/07/2018:Coupe Niveau 1 non(1699)-jlr(1520):0-1
07/07/2018:Défi sergesee(1540)-jlr(1520):1-0
07/07/2018:Défi tootsienet(1010)-titit1(1290):0-1
07/07/2018:Défi alain34(2160)-lancov(1910):1-0
07/07/2018:Défi kaspadesbrik(1720)-zatopek(1620):1-0
07/07/2018:Défi cortaz(1800)-jconetti(1700):1-0
07/07/2018:Défi riothamus(1690)-comte57(1690):1-0
07/07/2018:Le vieux Roi 13 bigkahuna(1690)-tartu(1620):1-0
07/07/2018:Bella ciao leet(1890)-ptitefrez(2030):0-1
07/07/2018:le temps des cerises 1 mistralgagnant(1970)-chessmat(1809):1-0
07/07/2018:le temps des cerises 1 uliczny(1940)-yyyg(1510):1-0
07/07/2018:Tournoi échelle division 1 domenico(1740)-coyotov(1670):1-0
07/07/2018:Tournoi n°18352 darkchossete(1830)-scarfield(1730):1-0
07/07/2018:Tournoi n°18285 clemm(1700)-verson(1790):0-1
07/07/2018:Tournoi n°18287 janul13(1440)-malmignatte(1499):0-1
07/07/2018:Tournoi n°18378 panchoa(1590)-coyotov(1630):1-0
07/07/2018:Tournoi n°18343 magyar(1480)-pilouface(1460):0-1
07/07/2018:Tournoi n°18376 verson(1820)-clemm(1670):1-0
07/07/2018:Tournoi n°18274 bastien1(1490)-janul13(1440):1-0
07/07/2018:Tournoi n°18369 arno(1710)-upsalin(1870):1-0
07/07/2018:Tournoi n°18388 upsalin(1900)-arno(1710):1-0
07/07/2018:Tournoi n°18390 scarfield(1690)-upsalin(1910):0-1
07/07/2018:Eq:Vikings-Royal Kids : skalfa(1710)-seb(1870):0-1
07/07/2018:Eq:Royal Kids-Les Oiseaux d Amsterdam : skalfa(1780)-rondoudou(2010):1-0
07/07/2018:Eq:Pirates du Mat-les fous de bassans : ericb(2220)-sp52(2390):1/2-1/2
07/07/2018:Défi malmignatte(1499)-calisege2008(1500):1-0
07/07/2018:Défi castor(1330)-malmignatte(1499):0-1
07/07/2018:Défi marco858(1610)-nuitetoilee(1589):1-0
07/07/2018:Défi pourquoipas(1480)-fisher(1630):1-0
07/07/2018:Défi pasq60(1200)-anumisme(1320):1-0
07/07/2018:VACHEFOLLE2 karkaskat(2050)-rons(2550):0-1
07/07/2018:Kawai Chess 2 petitlulu64(1650)-malmignatte(1989):0-1
07/07/2018:SBT3 tartu(1610)-coyotov(1660):1-0
07/07/2018:Rapide juin 2018 tartu(1630)-pasctin(1930):1-0
07/07/2018:Rapide juin 2018 pasctin(1930)-tartu(1630):1-0
07/07/2018:Rapide juin 2018 pasctin(1930)-verson(1820):1/2-1/2
07/07/2018:Rapide juin 2018 verson(1820)-pasctin(1930):1-0
07/07/2018:Tournoi n°18317 minecraft(1840)-upsalin(1830):1-0
07/07/2018:Tournoi n°18349 kendo2d(1800)-arno(1710):1-0
07/07/2018:Tournoi n°18376 clemm(1670)-leredoutable(1740):0-1
07/07/2018:Tournoi n°18211 clemm(1710)-leredoutable(1660):0-1
07/07/2018:Tournoi n°18298 desaintfegor(1830)-leet(1900):0-1
07/07/2018:Tournoi n°18365 katastrofic(1440)-janul13(1480):1-0
07/07/2018:Tournoi n°18264 intrigue(1610)-lyly(1560):1-0
07/07/2018:Tournoi n°18388 legrillon(1750)-upsalin(1900):1-0
07/07/2018:Eq:cotenstock-les fous de bassans : lekaribou(2330)-vachefolle(2050):1/2-1/2
07/07/2018:Coupe Niveau 4 spectre(1940)-elghribi(1980):1-0
07/07/2018:Défi vincentcoste(1670)-cortaz(1810):0-1
07/07/2018:Défi katastrofic(1440)-lecevenol(1390):1-0
07/07/2018:Défi cortaz(1780)-doudou(1700):1-0
07/07/2018:Défi yogour(2030)-zatopek(1600):1-0
07/07/2018:HONOLULU 50 brettsinclair(1730)-petitlulu64(1630):0-1
07/07/2018:Tournoi échelle division 1 domenico(1750)-kaspadesbrik(1710):0-1
07/07/2018:Défi guig47(2040)-gari(1780):1-0
07/07/2018:Bella ciao chessmat(1809)-emmanuel(1920):0-1
07/07/2018:le temps des cerises 1 chessmat(1809)-leet(1900):0-1
08/07/2018:Tournoi n°18033 mazdaroket(2020)-mandos(2200):0-1
08/07/2018:Défi bertelsen(1670)-titit1(1300):1-0
08/07/2018:Défi matlepuma(999)-fisher22(1959):1-0
08/07/2018:Memorial Lara XXXIII jyf(1890)-pournelle(2710):0-1
08/07/2018:Bella ciao chessmat(1809)-bertelsen(1650):0-1
08/07/2018:le temps des cerises 1 chessmat(1809)-yyyg(1510):1-0
08/07/2018:Défi malmignatte(1499)-chloridrix(1530):1-0
08/07/2018:Défi asvel69(1700)-holyhour(1630):1-0
08/07/2018:Défi gilmade(1650)-cortaz(1810):0-1
08/07/2018:Bella ciao pgo(1690)-chessmat(1809):1-0
08/07/2018:le temps des cerises 1 pgo(1700)-chessmat(1809):1-0
08/07/2018:Défi karadayi(1540)-bastien1(1430):0-1
08/07/2018:Défi nanaluce(1130)-anumisme(1320):1-0
08/07/2018:Défi matsonic(1900)-gari(1780):1-0
08/07/2018:Tournoi n°17749 aphatsum(2640)-rons(2550):1/2-1/2
08/07/2018:Tournoi n°18350 jlr(1510)-coyotov(1650):0-1
08/07/2018:Tournoi n°18282 emmanuel(1920)-warriorette(1890):1-0
08/07/2018:Tournoi n°18280 bastien1(1410)-jlr(1590):1-0
08/07/2018:Tournoi n°18308 petitlulu64(1650)-yyyg(1510):1-0
08/07/2018:Tournoi n°18329 jlr(1540)-miramar(1590):0-1
08/07/2018:Tournoi n°18387 coyotov(1660)-scarfield(1690):0-1
08/07/2018:Tournoi n°18397 spectre(1940)-verson(1850):1-0
08/07/2018:Coupe Niveau 2 bastien1(1520)-verson(1750):0-1
08/07/2018:Défi david969(1890)-senegaulois(1930):0-1
08/07/2018:Défi chobi(1740)-algors(1740):1-0
08/07/2018:Défi hugues(1540)-gobois(1650):0-1
08/07/2018:Défi lens37(2440)-artorg(2070):1-0
08/07/2018:Défi kiki24(1940)-matsonic(1910):1/2-1/2
08/07/2018:Défi joelcouturier(1220)-bilou75(1290):0-1
08/07/2018:Défi titine(999)-gervaise(1110):1-0
08/07/2018:Défi morloch(1910)-roquefort(2010):1-0
08/07/2018:Eté 2018 n°3 sylvainwb(1690)-mayaapof(1610):0-1
08/07/2018:Tournoi n°17138 chomi64(1920)-fly(1970):1/2-1/2
08/07/2018:Tournoi n°18295 lamagouille(1620)-jlr(1600):0-1
08/07/2018:Tournoi n°18223 jlr(1520)-gilcello(1700):0-1
08/07/2018:Tournoi n°18350 pionperdu(1499)-jlr(1510):1-0
08/07/2018:Tournoi n°18282 silveur(1970)-emmanuel(1920):1-0
08/07/2018:Tournoi n°18356 jmarcboury(1940)-zax(2010):0-1
08/07/2018:Eq:LA CITE ARDENTE-Les Oiseaux d Amsterdam : sorim(2100)-hachevitch(2470):0-1
08/07/2018:Eq:O fou d hello-Mission Impossible : pascalj24(2130)-ragg(1540):1-0
08/07/2018:Eq:1pur-Les Oiseaux d Amsterdam : cicerond(1430)-marieclaire(1360):1-0
08/07/2018:Eq:1pur-Les Oiseaux d Amsterdam : marieclaire(1360)-cicerond(1430):0-1
08/07/2018:Eq:Royal Kids-Les Oiseaux d Amsterdam : regor(2030)-sorim(2030):1-0
08/07/2018:Eq:Les Quebecois-Royal Kids : qasar(2010)-uliczny(1930):0-1
08/07/2018:Eq:Les Quebecois-Royal Kids : uliczny(1930)-qasar(2010):1-0
08/07/2018:Coupe Niveau 1 petitlulu64(1650)-jlr(1530):1-0
08/07/2018:Coupe Niveau 1 verson(1800)-jlr(1460):1-0
08/07/2018:Défi chrispga(1400)-malmignatte(1499):0-1
08/07/2018:Défi bastien1(1320)-patrick(1590):0-1
08/07/2018:Défi fly(1980)-elghribi(2030):0-1
08/07/2018:Défi rvsinovitch(2030)-fly(1990):1-0
08/07/2018:Défi arno(1680)-youliyouli(1850):1-0
08/07/2018:Défi joelcouturier(1220)-malvina(1280):0-1
08/07/2018:Défi cortaz(1810)-boxit(1780):1-0
08/07/2018:Défi degun(1880)-vvvv(1750):1-0
08/07/2018:honolulu ptitefrez(2000)-fly(2010):1-0
08/07/2018:Kawai Chess 2 bastien1(1490)-zozo(1640):1-0
08/07/2018:le temps des cerises 1 uliczny(1940)-leet(1900):0-1
08/07/2018:Tournoi échelle division 2 bastien1(1450)-jlr(1560):1-0
08/07/2018:Tournoi n°18115 mage(1840)-lepiton(1810):1-0
08/07/2018:Tournoi n°18366 chomi64(1970)-jaimelamer(1940):0-1
08/07/2018:Tournoi n°18302 scarfield(1800)-mojo(1710):0-1
08/07/2018:Tournoi n°18352 vvvv(1740)-kala(1900):1-0
08/07/2018:Coupe Niveau 5 elghribi(1970)-toutankhamon24(2280):0-1
08/07/2018:Défi cowboyarthur(1890)-morloch(1910):1-0
08/07/2018:Défi vincentcoste(1640)-malmignatte(1499):0-1
08/07/2018:Défi alban75018(1499)-mayaapof(1610):0-1
08/07/2018:Défi nuitetoilee(999)-titine(999):1-0
08/07/2018:Défi azur(1540)-marco858(1610):0-1
08/07/2018:Défi anumisme(1330)-joelcouturier(1200):1-0
08/07/2018:Défi nathk(999)-anumisme(1330):1-0
08/07/2018:Memorial Lara XXXII fly(2020)-karkaskat(2100):0-1
08/07/2018:Francaise avec e5 fly(2030)-karkaskat(2100):0-1
08/07/2018:Francaise avec e5 spectre(1760)-fly(2030):0-1
08/07/2018:Memorial Lara XXXIII jyf(1890)-karkaskat(2050):1-0
08/07/2018:Memorial Lara XXXIII rons(2540)-karkaskat(2050):1-0
08/07/2018:Le vieux Roi 13 bigkahuna(1690)-homer31(1720):1/2-1/2
08/07/2018:Tournoi échelle division 1 pascalou50(1780)-dragon(1930):1-0
08/07/2018:Tournoi n°17959 fly(1870)-marmotte50(1940):1-0
08/07/2018:Tournoi n°18336 legrillon(1680)-mayaapof(1600):0-1
08/07/2018:Eq:Les Gens du Sud-Royal Kids : emmanuel(1920)-regor(2030):1-0
08/07/2018:Eq:Pirates du Mat-Les Oiseaux d Amsterdam : blutch70(2230)-sampiero2a(1360):1-0
08/07/2018:Coupe Niveau 1 gilcello(1720)-verson(1810):1-0
08/07/2018:Coupe Niveau 2 elghribi(1980)-verson(1860):0-1
08/07/2018:SBT3 coyotov(1660)-legrillon(1700):0-1
08/07/2018:Tournoi n°18356 salut(1950)-jmarcboury(1940):1-0
08/07/2018:Tournoi n°18372 verson(1830)-kaspalex(1750):0-1
08/07/2018:Tournoi n°18237 bubblegum(1680)-albescab(1540):1-0
08/07/2018:Tournoi n°18340 legrillon(1690)-bastien1(1460):1-0
08/07/2018:Tournoi n°18369 verson(1800)-arno(1710):1-0
08/07/2018:Tournoi n°18398 verson(1860)-simer(1710):0-1
08/07/2018:Eq:Vikings-Les Gens du Sud : ghostdog(1610)-ryba(1970):0-1
08/07/2018:Défi xao(1500)-noos(1540):0-1
08/07/2018:Défi xao(1540)-intrigue(1620):0-1
08/07/2018:Défi gilberthellemans(1570)-petain(1580):0-1
08/07/2018:Défi nuitetoilee(999)-fredoparis(1720):0-1
08/07/2018:Défi chocotov(1960)-fisher22(1799):1-0
08/07/2018:Défi steflam(1430)-jazzzz(2000):0-1
08/07/2018:Défi ryba(1940)-capitaine(2070):0-1
08/07/2018:Défi bastien1(1480)-anumisme(1370):0-1
08/07/2018:Défi maximax(1360)-malvina(1290):0-1
08/07/2018:Défi anumisme(1320)-tootsienet(1050):1-0
08/07/2018:HONOLULU 50 tiounet(1610)-yyyg(1640):1-0
08/07/2018:Tournoi échelle division 3 yyyg(1540)-vachefolle(2060):0-1
08/07/2018:Tournoi n°18066 kichmat(2050)-berniz(2240):0-1
08/07/2018:Tournoi n°18261 panchoa(1600)-gaspard83(1610):1/2-1/2
08/07/2018:Tournoi n°18391 verson(1860)-upsalin(1910):0-1
08/07/2018:Tournoi n°18115 verson(1810)-lepiton(1810):1-0
08/07/2018:Tournoi n°18306 jlr(1590)-domisol(1550):0-1
08/07/2018:Tournoi n°18328 atestamora(1680)-blackbishop(1850):1-0
08/07/2018:Eq:Pirates du Mat-Les diplomates : eltche(2480)-fabio985(1840):1-0
08/07/2018:Eq:Pirates du Mat-Les diplomates : fabio985(1840)-eltche(2480):0-1
08/07/2018:Défi tropa(1470)-castor(1380):0-1
08/07/2018:Défi elghribi(1980)-zayka(1890):1-0
08/07/2018:Défi skyfall(1970)-blackbishop(1850):1-0
08/07/2018:Défi blackbishop(1850)-skyfall(1970):0-1
08/07/2018:Memoire a David Bowie numero 2 fly(1940)-zorglub42(1890):1-0
08/07/2018:honolulu brettsinclair(1790)-fly(2010):0-1
08/07/2018:HONOLULU 50 yyyg(1640)-tiounet(1610):0-1
08/07/2018:SBT3 turbo(1540)-coyotov(1660):0-1
08/07/2018:Rapide juin 2018 connecticcut(1790)-verson(1820):0-1
08/07/2018:Tournoi échelle division 1 gonzok67(1700)-pasctin(1930):1/2-1/2
08/07/2018:Tournoi échelle élite elghribi(1980)-fredelebouric12(2640):0-1
08/07/2018:Tournoi n°18363 biquet(1850)-leredoutable(1740):1-0
08/07/2018:Tournoi n°18249 gwada50(1240)-magyar(1480):1-0
08/07/2018:Tournoi n°18385 simer(1700)-leredoutable(1710):0-1
08/07/2018:Tournoi n°18227 sergesee(1580)-uji40(1600):1-0
08/07/2018:Tournoi n°18382 pahlo111(1890)-spectre(1920):0-1
08/07/2018:Tournoi n°18376 leredoutable(1740)-simer(1680):0-1
08/07/2018:Tournoi n°18364 leredoutable(1740)-simer(1670):0-1
08/07/2018:Tournoi n°18364 leredoutable(1740)-upsalin(1860):1-0
08/07/2018:Eq:Mission Impossible-ThalesTeam : blueberry(1599)-anakin(2080):1-0
08/07/2018:Eq:Mission Impossible-1pur : spectre(1860)-apage(2040):1-0
08/07/2018:Eq:Les Corsaires de Lechiquier-Royal Kids : z1000(2800)-regor(2010):1-0
08/07/2018:Coupe Niveau 6 saurug(2480)-craghack(2390):1-0
08/07/2018:Défi holyhour(1620)-lecouz(1650):0-1
08/07/2018:Défi malmignatte(1499)-marco(1650):1-0
08/07/2018:Défi anumisme(1360)-lilou(1450):0-1
08/07/2018:Défi gambou(1770)-nuitetoilee(1329):1-0
08/07/2018:Défi nef1(1510)-holyhour(1660):0-1
08/07/2018:Défi gari(1780)-burgman(2080):0-1
08/07/2018:Défi fisher(1610)-cortaz(1840):1-0
08/07/2018:Eté 2018 n°6 vickort(2330)-horseman(1770):1-0
08/07/2018:le temps des cerises 1 leet(1900)-malmignatte(1989):0-1
08/07/2018:le temps des cerises 1 yyyg(1510)-chessmat(1809):0-1
08/07/2018:Tournoi n°18392 coyotov(1660)-vb83(1440):1-0
08/07/2018:Tournoi n°18390 simer(1700)-scarfield(1690):1-0
08/07/2018:Tournoi n°18387 magyar(1510)-coyotov(1650):1-0
09/07/2018:Eq:les modestes-Les Corsaires de Lechiquier : buats007(2690)-izemassalas(2660):1/2-1/2
09/07/2018:Eq:Vikings-Royal Kids : seb(1870)-skalfa(1710):0-1
09/07/2018:Coupe Niveau 3 bubblegum(1710)-senegaulois(1940):0-1
09/07/2018:Coupe Niveau 1 sylvainwb(1690)-spectre(1890):1-0
09/07/2018:Défi lancov(1910)-morloch(1900):0-1
09/07/2018:Défi cortaz(1810)-asvel69(1690):0-1
09/07/2018:Défi ziviol(1470)-fisher22(2109):0-1
09/07/2018:Défi joel(1490)-mcgregor(2140):0-1
09/07/2018:Défi yab414(1640)-petitlulu64(1650):1-0
09/07/2018:Parties ouvertes e4 e5 bubblegum(1800)-fly(1990):1/2-1/2
09/07/2018:Défi bigkahuna(1750)-fredoparis(1800):1-0
09/07/2018:Défi anumisme(1330)-mario46(1370):1-0
09/07/2018:Défi bilitis(1820)-kaspy(1980):1/2-1/2
09/07/2018:Parties ouvertes e4 e5 crca(1830)-fly(1990):1-0
09/07/2018:Défi lemagicien(2179)-degun(1840):0-1
09/07/2018:Défi vvvv(1740)-asvel69(1720):1-0
09/07/2018:Tournoi échelle division 2 desmoulins(2530)-vachefolle(2080):1-0
09/07/2018:Tournoi n°18355 bastien1(1510)-yann56(1650):1-0
09/07/2018:Tournoi n°18320 malmignatte(1499)-magyar(1480):1-0
09/07/2018:Tournoi n°18295 ffred(1510)-jlr(1600):1-0
09/07/2018:Tournoi n°18376 verson(1800)-leredoutable(1740):1-0
09/07/2018:Tournoi n°18389 verson(1800)-desaintfegor(1830):1/2-1/2
09/07/2018:Eq:Les Corsaires de Lechiquier-La Crim Team : lechat(2850)-apollon(2770):1/2-1/2
09/07/2018:Défi anumisme(1360)-ohnopleyel(1420):0-1
09/07/2018:Défi naxomi(1499)-tian(1320):1-0
09/07/2018:Memorial Lara XXXI skalfa(1780)-flmnh(1770):1-0
09/07/2018:MARGARITA karkaskat(2060)-flmnh(1670):1-0
09/07/2018:Tournoi n°18385 bidoche(1700)-simer(1700):1-0
09/07/2018:Tournoi n°18344 senegaulois(1920)-verson(1820):1-0
09/07/2018:Défi roger72(1510)-roquefort(2000):0-1
09/07/2018:Le vieux Roi 13 zozo(1650)-roschecx(1640):0-1
09/07/2018:Tournoi échelle division 1 verson(1810)-ptitefrez(2020):0-1
09/07/2018:Tournoi n°18334 pionperdu(1499)-jlr(1540):1-0
09/07/2018:Eq:Les Corsaires de Lechiquier-Mission Impossible : z1000(2710)-lechiquiere(2480):1-0
09/07/2018:Eq:Pirates du Mat-Les Gens du Sud : verson(1850)-eltche(2480):0-1
09/07/2018:Coupe Niveau 4 spectre(1890)-abc47(2140):0-1
09/07/2018:Défi cortaz(1810)-ramo(1750):1-0
09/07/2018:Défi bilitis(1850)-cowboyarthur(1890):0-1
09/07/2018:Défi nef1(1440)-upsalin(1870):0-1
09/07/2018:Défi roidechecs(1270)-anumisme(1330):0-1
09/07/2018:Défi bibisept(1880)-gambou(1750):0-1
09/07/2018:Défi pivoine78(1170)-anumisme(1410):0-1
09/07/2018:Défi alain84(1740)-ramo(1750):1/2-1/2
09/07/2018:Défi alain34(2160)-bibisept(1870):1-0
09/07/2018:Défi swallow2(2070)-swallow(2020):1-0
09/07/2018:Défi vb83(1440)-jimi50(1870):0-1
09/07/2018:Défi bassdark(2060)-johndoe(1900):1-0
09/07/2018:Tournoi échelle division 1 verson(1780)-pionfou(1800):1-0
09/07/2018:Tournoi échelle champions karkaskat(2040)-ptitefrez(2030):1-0
09/07/2018:Tournoi n°18283 gaspard83(1600)-petitlulu64(1650):1-0
09/07/2018:Tournoi n°17943 hinnol(1800)-rvsinovitch(2020):1-0
09/07/2018:Tournoi n°18355 nimzoindien(1700)-yann56(1660):1-0
09/07/2018:Tournoi n°18393 azur(1550)-ffred(1590):1-0
09/07/2018:Coupe Niveau 5 griffedours(1960)-kartush(2080):0-1
09/07/2018:Défi fanch2pic(1460)-fisher22(2159):0-1
09/07/2018:Défi gilberthellemans(1600)-ghostdog(1630):0-1
09/07/2018:Défi arno(1710)-skyfall(1960):1/2-1/2
09/07/2018:Défi aigle12(1400)-cortaz(1840):0-1
09/07/2018:Défi tartu(1640)-encore1fois(1950):1-0
09/07/2018:Défi fanch2pic(1430)-redqueen(1660):1-0
09/07/2018:Défi bed2bed(1840)-hberlioz(1620):1-0
09/07/2018:Eté 2018 n°6 horseman(1770)-pitouwb(1750):0-1
09/07/2018:2200 2700 n°3 azerty1(2220)-oscar(2370):0-1
09/07/2018:Tournoi échelle division 2 thomas(1680)-jlr(1440):1-0
09/07/2018:Tournoi n°18246 deric(1580)-jlr(1530):0-1
09/07/2018:Tournoi n°18397 verson(1850)-upsalin(1910):0-1
09/07/2018:Tournoi n°18324 jlr(1550)-zed34(1520):0-1
09/07/2018:Tournoi n°18394 geantvert(1720)-verson(1830):0-1
09/07/2018:Eq:les modestes-Les Corsaires de Lechiquier : apollon(2770)-mohamedarab(2830):1-0
09/07/2018:Eq:Pirates du Mat-Les Gens du Sud : totorov(2460)-dragon(1860):1-0
09/07/2018:Eq:Pirates du Mat-Les Gens du Sud : eltche(2480)-verson(1850):1-0
09/07/2018:Coupe Niveau 7 hallon(2400)-maitreabord(2820):0-1
09/07/2018:Défi marcol(1100)-anumisme(1390):0-1
09/07/2018:Défi anumisme(1320)-vb83(1440):0-1
09/07/2018:Défi jimi50(1870)-jajaf1959(1920):1-0
09/07/2018:Défi gambou(1770)-upsalin(1900):0-1
09/07/2018:Défi pourquoipas(1480)-hberlioz(1620):1-0
09/07/2018:Défi hberlioz(1650)-upsalin(1910):1-0
09/07/2018:Rapide juin 2018 mistralgagnant(1960)-verson(1820):0-1
09/07/2018:Tournoi échelle champions nico(1950)-mistralgagnant(1960):1/2-1/2
09/07/2018:Tournoi échelle champions salut(1900)-elghribi(1970):1-0
09/07/2018:Tournoi n°18403 verson(1850)-upsalin(1900):0-1
09/07/2018:Eq:Pirates du Mat-Les Quebecois : rackam(2160)-roschecx(1640):1-0
09/07/2018:Coupe Niveau 1 bubblegum(1820)-yyyg(1610):1-0
09/07/2018:Défi cocodou(1960)-alain34(2160):0-1
09/07/2018:Défi owow44(1750)-jpjay(1750):0-1
09/07/2018:Défi regor(2020)-bilitis(1830):1-0
09/07/2018:Défi pierre1(1740)-gambou(1750):1-0
09/07/2018:Interne 1pur c0d3(1240)-bastien1(1400):1-0
09/07/2018:Le vieux Roi 13 roschecx(1640)-homer31(1720):0-1
09/07/2018:Tournoi échelle division 3 bastien1(1490)-guitoune(1950):0-1
09/07/2018:Tournoi n°18218 panchoa(1560)-jlr(1520):1-0
09/07/2018:Tournoi n°18308 yyyg(1450)-panchoa(1590):0-1
09/07/2018:Tournoi n°18192 ditmir(999)-clemantoine(1099):0-1
09/07/2018:Tournoi n°18271 desaintfegor(1840)-luckyluc(2040):0-1
09/07/2018:Tournoi n°18393 panchoa(1590)-coyotov(1660):0-1
09/07/2018:Eq:Royal Kids-CHESS MASTER : uliczny(1940)-bassdark(2070):1-0
09/07/2018:Défi gambitor(1460)-aigle12(1450):1-0
09/07/2018:Défi aigle12(1420)-bastien1(1320):1-0
09/07/2018:Défi uji40(1590)-nuitetoilee(1459):0-1
09/07/2018:Défi tootsienet(1050)-anumisme(1330):0-1
09/07/2018:Défi katastrofic(1460)-jetjet91330(2100):0-1
09/07/2018:Défi letsplay(1520)-hugues(1540):0-1
09/07/2018:2200 2700 n°3 azerty1(2220)-bobo(2290):0-1
09/07/2018:Le vieux Roi 13 uji40(1600)-roschecx(1640):0-1
09/07/2018:Kawai Chess 2 petitlulu64(1650)-bastien1(1490):0-1
09/07/2018:Tournoi échelle division 2 trebillig(1560)-uji40(1580):1-0
09/07/2018:Tournoi n°17128 fly(1980)-chomi64(1910):1-0
09/07/2018:Tournoi n°18162 bubblegum(1710)-lamagouille(1610):1-0
09/07/2018:Tournoi n°18345 clemantoine(1780)-oliver5(1710):1-0
09/07/2018:Tournoi n°18362 qsdmlk(1630)-vb83(1430):1-0
09/07/2018:Tournoi n°18371 coyotov(1650)-sergesee(1640):0-1
09/07/2018:Eq:Les Corsaires de Lechiquier-les modestes : mpatruyo(2340)-fredelebouric12(2560):0-1
09/07/2018:Eq:Mission Impossible-Royal Kids : pascalj24(2180)-regor(2020):1-0
09/07/2018:Défi minon(2080)-tichaton(1470):1-0
09/07/2018:Défi upsalin(1910)-vb83(1430):1-0
09/07/2018:Défi epervier(1780)-superman(1740):1-0
09/07/2018:Défi gemme11(1399)-aigle12(1420):1-0
09/07/2018:Défi cowboyarthur(1890)-skyfall(1960):0-1
09/07/2018:Défi nuitetoilee(1459)-petitlulu64(1650):0-1
09/07/2018:Défi berjay(1700)-cineyxp(2080):0-1
09/07/2018:Défi angerpat(1560)-fisher(1610):1-0
09/07/2018:Défi otrigo3(1740)-chobi(1730):1-0
09/07/2018:Défi largo(999)-ohnopleyel(1490):0-1
09/07/2018:Défi anglais(1680)-zozo(1640):1-0
09/07/2018:Défi biquet(1830)-tyakyx(2250):1/2-1/2
09/07/2018:SBT3 coyotov(1660)-turbo(1540):1-0
10/07/2018:Tournoi n°18322 tyakyx(2250)-nicodemouscron(2150):1-0
10/07/2018:Coupe Niveau 1 bubblegum(1820)-calisege2008(1410):1-0
10/07/2018:Défi guillaumefi(1620)-doudou(1680):0-1
10/07/2018:Défi ghostdog(1620)-guillaumefi(1610):1-0
10/07/2018:Coupe Niveau 4 toutankhamon24(2280)-guig47(2040):1-0
10/07/2018:Défi pascalou50(1790)-crca(1950):1-0
10/07/2018:Tournoi n°18403 scarfield(1710)-verson(1860):1-0
10/07/2018:Tournoi n°18390 verson(1830)-scarfield(1690):1-0
10/07/2018:Défi xao(1500)-longjohn(1540):0-1
10/07/2018:Défi adrienne(1030)-ziviol(1420):0-1
10/07/2018:Défi rambonov(1320)-pierrejean(1460):0-1
10/07/2018:Défi nimzoindien(1710)-jajaf1959(1920):1-0
10/07/2018:Francaise avec e5 fly(2030)-flmnh(1720):1-0
10/07/2018:Interne 1pur c0d3(1240)-bigkahuna(1720):0-1
10/07/2018:Kawai Chess 2 zozo(1640)-legrillon(1710):0-1
10/07/2018:Tournoi n°18272 thierry06(1640)-jlr(1600):1-0
10/07/2018:Tournoi n°18378 ffred(1550)-jlr(1510):0-1
10/07/2018:Tournoi n°18394 verson(1830)-clemantoine(1790):0-1
10/07/2018:Tournoi n°18402 jlr(1410)-bastien1(1490):0-1
10/07/2018:Tournoi n°18398 simer(1720)-scarfield(1720):1-0
10/07/2018:Eq:Danielsen City-Les Corsaires de Lechiquier : buats007(2690)-azerty1(2230):1-0
10/07/2018:Eq:les modestes-Les Corsaires de Lechiquier : pilinapolgar(2440)-apollon(2810):0-1
10/07/2018:Eq:les modestes-Les Corsaires de Lechiquier : apollon(2810)-pilinapolgar(2440):1-0
10/07/2018:Coupe Niveau 2 elghribi(1980)-clafouti(2009):1-0
10/07/2018:Défi nathk(999)-titine(999):1-0
10/07/2018:Défi roger72(1500)-gervaise(1100):1-0
10/07/2018:Défi baloo(1520)-katastrofic(1440):0-1
10/07/2018:Interne 1pur bigkahuna(1720)-c0d3(1240):1-0
10/07/2018:Kawai Chess 2 legrillon(1710)-horseman(1770):1-0
10/07/2018:Kawai Chess 2 horseman(1770)-legrillon(1710):0-1
10/07/2018:poutatine lecevenol(1380)-bastien1(1450):0-1
10/07/2018:Tournoi échelle division 2 vachefolle(2060)-jlr(1440):1-0
10/07/2018:Tournoi n°18324 ffred(1550)-jlr(1570):1-0
10/07/2018:Tournoi n°18382 verson(1830)-bonamur(1980):1/2-1/2
10/07/2018:Tournoi n°18301 bastien1(1450)-ffred(1510):0-1
10/07/2018:Tournoi n°18340 panchoa(1590)-bastien1(1460):0-1
10/07/2018:Tournoi n°18398 leredoutable(1740)-verson(1860):1-0
10/07/2018:Eq:CHESS MASTER-Les Gens du Sud : ryba(1940)-mistralgagnant(2010):1-0
10/07/2018:Eq:Les Rebelles-les fous de bassans : nassim(2020)-trueman(1960):1-0
10/07/2018:Défi bastien1(1440)-vb83(1400):1-0
10/07/2018:Défi bilitis(1830)-degun(1850):0-1
10/07/2018:Défi breitenbach(2340)-lens37(2410):1-0
10/07/2018:Défi owow44(1720)-ghostdog(1610):0-1
10/07/2018:Défi degun(1870)-skyfall(1960):0-1
10/07/2018:Défi challenger2015(1570)-bastien1(1320):1-0
10/07/2018:Défi david969(1950)-roquefort(1960):1/2-1/2
10/07/2018:Défi jm29(1490)-geantvert06(1460):0-1
10/07/2018:Défi chrispga(1410)-jm29(1490):1-0
10/07/2018:Défi mage(1820)-bilitis(1840):0-1
10/07/2018:Défi didactik44(1760)-albescab(1490):1-0
10/07/2018:Défi coyotov(1630)-vb83(1470):0-1
10/07/2018:Eté 2018 n°3 pournelle(2700)-mistralgagnant(1970):1-0
10/07/2018:Kawai Chess 2 horseman(1770)-malmignatte(1989):0-1
10/07/2018:Tournoi n°18357 upsalin(1830)-pionfou(1820):0-1
10/07/2018:Tournoi n°18378 panchoa(1590)-pionperdu(1590):1-0
10/07/2018:Tournoi n°18134 sylvainwb(1720)-kasad(1600):0-1
10/07/2018:Tournoi n°18317 arno(1680)-minecraft(1840):0-1
10/07/2018:Tournoi n°18288 oranmore(2000)-hilts(2190):1/2-1/2
10/07/2018:Tournoi n°18403 scarfield(1710)-simer(1720):1-0
10/07/2018:Tournoi n°18343 gwada50(1280)-ivanleterrible(1499):0-1
10/07/2018:Eq:les chics capons-Vikings : ratzi(2060)-kapten(1870):1-0
10/07/2018:Coupe Niveau 2 sylvainwb(1700)-blackbishop(1870):0-1
10/07/2018:Défi fafamanga(2140)-lens37(2440):1-0
10/07/2018:Défi neddy(1200)-gervaise(1100):0-1
10/07/2018:Défi zukchess(1650)-fisher22(1799):1-0
10/07/2018:Défi jpjay(1770)-vvvv(1750):1-0
10/07/2018:Défi buzz84(1430)-temistocles(1400):0-1
10/07/2018:Défi buzz84(1410)-malvina(1290):1-0
10/07/2018:Défi fragol(1740)-mysport(1750):0-1
10/07/2018:Défi asvel69(1710)-mage(1800):1-0
10/07/2018:Rapide juin 2018 uliczny(1940)-mistralgagnant(1960):0-1
10/07/2018:Rapide juin 2018 verson(1820)-connecticcut(1790):1/2-1/2
10/07/2018:Tournoi n°18385 legrillon(1750)-ghostdog(1650):1-0
10/07/2018:Défi burgman(2090)-blueberry(2090):1-0
10/07/2018:Défi lecevenol(1370)-cortaz(1830):0-1
10/07/2018:Défi mick(1950)-marieange88(1470):1-0
10/07/2018:Défi anumisme(1340)-pitchoune50(1200):1-0
10/07/2018:Bella ciao bertelsen(1650)-chessmat(1809):1-0
10/07/2018:Tournoi échelle division 3 malmignatte(2010)-toutankhamon24(1989):0-1
10/07/2018:Tournoi n°18376 clemm(1670)-patau(1840):0-1
10/07/2018:Tournoi n°18360 katastrofic(1440)-janul13(1440):1-0
10/07/2018:Tournoi n°18403 upsalin(1900)-scarfield(1700):1-0
10/07/2018:Tournoi n°18403 leredoutable(1750)-verson(1850):1-0
10/07/2018:Tournoi n°18403 verson(1860)-simer(1720):1-0
10/07/2018:Tournoi n°18372 zacharie(1709)-arno(1700):1-0
10/07/2018:Tournoi n°18386 jlr(1460)-miramar(1600):0-1
10/07/2018:Tournoi n°18398 leredoutable(1750)-simer(1710):0-1
10/07/2018:Tournoi n°18403 simer(1740)-upsalin(1900):0-1
10/07/2018:Eq:Mission Impossible-Royal Kids : regor(2020)-pascalj24(2180):1/2-1/2
10/07/2018:Eq:Les Rebelles-1pur : spectre(1910)-nassim(2030):0-1
10/07/2018:Défi bastien1(1430)-turbo(1540):1-0
10/07/2018:Défi cortaz(1810)-azur(1540):1-0
10/07/2018:Défi nuitetoilee(1589)-thierry06(1700):0-1
10/07/2018:Défi christie(1280)-anumisme(1360):1-0
10/07/2018:Défi nicodemouscron(2130)-nassim(2030):0-1
10/07/2018:Tournoi n°18385 simer(1700)-legrillon(1740):1-0
10/07/2018:Tournoi n°18412 upsalin(1900)-verson(1850):1-0
10/07/2018:Tournoi n°18188 geantvert(1730)-yyyg(1660):1-0
10/07/2018:Tournoi n°18398 scarfield(1720)-verson(1850):1-0
10/07/2018:Tournoi n°18270 gilcello(1690)-pionfou(1750):1/2-1/2
10/07/2018:Tournoi n°18392 mayaapof(1610)-coyotov(1660):1-0
10/07/2018:Tournoi n°18398 scarfield(1720)-leredoutable(1740):0-1
10/07/2018:Eq:Les Gens du Sud-ThalesTeam : chooper(1479)-ryba(1940):0-1
10/07/2018:Coupe Niveau 2 onetwoyve(1690)-elghribi(1950):0-1
10/07/2018:Défi bidoche(1720)-aristote62(2320):0-1
10/07/2018:Défi joelcouturier(1190)-fisher22(1959):0-1
10/07/2018:Défi c69(1350)-kerenor(1590):1-0
10/07/2018:Défi goedendag(1799)-leredoutable(1750):1-0
10/07/2018:Défi echecetmat(1850)-regor(2000):0-1
10/07/2018:Défi vvvv(1750)-jimi50(1880):1/2-1/2
10/07/2018:Défi marco858(1199)-fisher22(2030):1-0
10/07/2018:Défi temistocles(1400)-gambitor(1470):0-1
10/07/2018:Défi tunellavage(1750)-zatopek(1640):1-0
10/07/2018:Défi bilitis(1850)-trueman(1930):0-1
10/07/2018:Défi mathildedn(1370)-nuitetoilee(1469):0-1
10/07/2018:Défi cowboyarthur(1910)-zayka(1890):1-0
10/07/2018:Eté 2018 n°2 legrillon(1690)-casparuf(1530):1-0
10/07/2018:Tournoi n°18261 petitlulu64(1650)-gaspard83(1610):1-0
10/07/2018:Tournoi n°18357 pionfou(1820)-leredoutable(1770):1-0
10/07/2018:Tournoi n°18238 jlr(1530)-legionnaire(1540):0-1
10/07/2018:Tournoi n°18328 oliver5(1710)-atestamora(1680):1-0
10/07/2018:Tournoi n°18368 legrillon(1750)-scarfield(1720):1-0
10/07/2018:Eq:Les Quebecois-O fou d hello : pionfou(1830)-legrillon(1750):1-0
10/07/2018:Défi superman(1740)-turbo(1540):1-0
10/07/2018:Défi baudoin(2010)-morloch(1900):0-1
10/07/2018:2200 2700 n°3 roka(2350)-azerty1(2220):1-0
10/07/2018:Le vieux Roi 13 roschecx(1640)-zozo(1650):0-1
10/07/2018:SBT3 geantvert(1720)-coyotov(1660):1-0
11/07/2018:Eq:Les Corsaires de Lechiquier-Pirates du Mat : z1000(2800)-eltche(2460):1-0
11/07/2018:Défi aristote62(2320)-baudoin(2000):1/2-1/2
11/07/2018:Défi gari(1780)-trueman(1960):0-1
11/07/2018:MARGARITA juantonio(1830)-karkaskat(2060):0-1
11/07/2018:Tournoi n°18115 lepiton(1810)-patau(1790):0-1
11/07/2018:Eq:Du sucre et des vices-Royal Kids : gonzok67(1690)-defense(1850):1/2-1/2
11/07/2018:Défi testbon(1499)-test18(1499):1-0
11/07/2018:Défi adrienne(1030)-chobi(1740):0-1
11/07/2018:Tournoi n°18310 breitenbach(2250)-arcadie(2110):1-0
11/07/2018:Défi retinolls(1930)-fisher22(1799):1-0
11/07/2018:Tournoi n°18185 donjon(1670)-coyotov(1610):1-0
11/07/2018:Tournoi n°18374 hilts(2190)-kartush(2120):0-1
11/07/2018:Tournoi n°18380 verson(1810)-yatman(2030):1-0
11/07/2018:Tournoi n°18387 scarfield(1690)-oliver5(1670):0-1
11/07/2018:Coupe Niveau 1 legrillon(1710)-verson(1830):1-0
11/07/2018:Défi lecavaliernoir(1520)-gambitor(1460):1-0
11/07/2018:Défi joel(1470)-pierrejean(1430):1-0
11/07/2018:Défi bastien1(1430)-katastrofic(1450):0-1
11/07/2018:Défi anumisme(1380)-bastet(1000):1-0
11/07/2018:Défi goedendag(1799)-pj612(1800):1-0
11/07/2018:Francaise avec e5 flmnh(1720)-pitouwb(1710):0-1
11/07/2018:portes ouvertes en Espagnol yyyg(1670)-flmnh(1720):0-1
11/07/2018:Kawai Chess 2 legrillon(1710)-bastien1(1490):1-0
11/07/2018:2100 2600 n°4 hilts(2190)-hallon(2390):0-1
11/07/2018:Tournoi n°18355 yann56(1650)-coyotov(1650):0-1
11/07/2018:Tournoi n°18318 ffred(1540)-bastien1(1490):1-0
11/07/2018:Tournoi n°18401 ivanleterrible(1499)-bastien1(1480):1-0
11/07/2018:Tournoi n°18330 legrillon(1720)-bastien1(1490):1-0
11/07/2018:Tournoi n°18379 verson(1830)-deric(1600):1-0
11/07/2018:Eq:Les Rebelles-Vikings : doudou(1680)-nassim(2020):0-1
11/07/2018:Défi bastien1(1380)-ys07(1400):1-0
11/07/2018:Défi mokanne(1550)-jeanre(1670):1-0
11/07/2018:2200 2700 n°3 azerty1(2220)-gortax(2230):0-1
11/07/2018:Tournoi n°18133 legrillon(1680)-deric(1580):1-0
11/07/2018:Tournoi n°18379 arno(1720)-verson(1820):0-1
11/07/2018:Tournoi n°18323 deric(1620)-xercott(1720):0-1
11/07/2018:Tournoi n°18403 simer(1730)-leredoutable(1750):1-0
11/07/2018:Tournoi n°18372 poireau(1730)-verson(1810):0-1
11/07/2018:Tournoi n°18406 artistepeintre(1540)-ivanleterrible(1499):0-1
11/07/2018:Tournoi n°18412 verson(1850)-leredoutable(1740):1-0
11/07/2018:Tournoi n°18412 simer(1730)-verson(1840):0-1
11/07/2018:Eq:Les Quebecois-Les Rebelles : baudoin(1990)-zukchess(1670):0-1
11/07/2018:Eq:les modestes-Mission Impossible : karpov(2430)-jetjet91330(2100):1-0
11/07/2018:Coupe Niveau 1 spectre(1880)-emmanuel69(1800):0-1
11/07/2018:Défi gambou(1770)-zacharie(1729):1-0
11/07/2018:Défi ivanleterrible(1499)-lecevenol(1370):1-0
11/07/2018:Défi pourquoipas(1480)-doudou(1680):0-1
11/07/2018:Défi jetjet91330(2100)-katastrofic(1460):1-0
11/07/2018:Tournoi échelle élite fredelebouric12(2570)-chronik(2160):1-0
11/07/2018:Tournoi échelle champions tinenfant(1850)-karkaskat(2030):0-1
11/07/2018:Tournoi n°17849 pilouface(1490)-supernono(1510):1/2-1/2
11/07/2018:Tournoi n°17864 ycar(1680)-kapten(1870):1/2-1/2
11/07/2018:Tournoi n°17943 mistralgagnant(1940)-chomi64(2010):1/2-1/2
11/07/2018:Tournoi n°18401 ivanleterrible(1499)-legrillon(1700):1-0
11/07/2018:Tournoi n°18337 verson(1830)-pitouwb(1750):1-0
11/07/2018:Tournoi n°18377 oranmore(2000)-nicodemouscron(2140):0-1
11/07/2018:Eq:Pirates du Mat-Danielsen City : azerty1(2230)-volatile(2550):0-1
11/07/2018:Coupe Niveau 1 dark(1799)-spectre(1940):1-0
11/07/2018:Défi bastien1(1320)-kawa750(1530):0-1
11/07/2018:Défi nanaluce(1100)-anumisme(1330):0-1
11/07/2018:Défi pascalou50(1800)-pitchoune50(1200):1-0
11/07/2018:Défi tichaton(1480)-perepeinard34(1230):0-1
11/07/2018:Défi perepeinard34(1230)-tichaton(1480):1-0
11/07/2018:2200 2700 n°3 alizarine(2400)-azerty1(2220):1-0
11/07/2018:Tournoi échelle division 1 pionfou(1780)-daniel1(1770):0-1
11/07/2018:Tournoi n°18414 upsalin(1900)-verson(1850):1/2-1/2
11/07/2018:Tournoi n°18410 arno(1730)-verson(1840):0-1
11/07/2018:Tournoi n°18109 clafouti(2060)-retraite53(2080):0-1
11/07/2018:Tournoi n°18383 katastrofic(1480)-gwada50(1280):0-1
11/07/2018:Tournoi n°18406 ivanleterrible(1499)-legrillon(1700):1-0
11/07/2018:Tournoi n°18281 verson(1800)-mistralgagnant(1960):0-1
11/07/2018:Tournoi n°18367 verson(1820)-marmotte50(1940):0-1
11/07/2018:Coupe Niveau 7 maitreabord(2810)-levelmax(2790):1/2-1/2
11/07/2018:Défi maya24(1590)-trebillig(1570):0-1
11/07/2018:Défi superman(1740)-wenoketo(1520):1-0
11/07/2018:Défi wenoketo(1540)-mayaapof(1650):0-1
11/07/2018:Défi bastien1(1370)-ohnopleyel(1450):1-0
11/07/2018:Défi ziviol(1430)-pierrejean(1470):0-1
11/07/2018:Défi ivanleterrible(1499)-gambitor(1440):1-0
11/07/2018:Défi flo71(1810)-hberlioz(1650):1-0
11/07/2018:Défi aigle12(1450)-malvina(1280):1-0
11/07/2018:Défi youliyouli(1840)-jetjet91330(2100):0-1
11/07/2018:Défi xao(1570)-pourquoipas(1480):0-1
11/07/2018:albatros14 bigkahuna(1760)-legrillon(1710):1/2-1/2
11/07/2018:Bella ciao verson(1820)-mistralgagnant(1970):0-1
11/07/2018:Rapide juin 2018 verson(1820)-mistralgagnant(1960):0-1
11/07/2018:Tournoi n°18108 geantvert(1700)-nogean(1630):1-0
11/07/2018:Tournoi n°18304 scarfield(1780)-bira47(1690):1-0
11/07/2018:Tournoi n°18405 verson(1850)-echecetmat(1850):1-0
11/07/2018:Tournoi n°18200 willkommen54(2000)-silveur(1920):1/2-1/2
11/07/2018:Tournoi n°18366 verson(1830)-jaimelamer(1940):0-1
11/07/2018:Tournoi n°18368 vvvv(1760)-scarfield(1700):1-0
11/07/2018:Tournoi n°18351 silveur(2000)-upsalin(1920):1-0
11/07/2018:Coupe Niveau 9 conde7(2850)-maitreabord(2810):1/2-1/2
11/07/2018:Défi cortaz(1790)-wenoketo(1600):0-1
11/07/2018:Défi pierre1(1750)-vb83(1470):1-0
11/07/2018:Défi gaby1811(1180)-anumisme(1440):0-1
11/07/2018:Défi nogean(1640)-anumisme(1460):1-0
11/07/2018:Eté 2018 n°5 daniel1(1780)-mandos(2270):0-1
11/07/2018:Tournoi échelle champions verson(1850)-salut(1930):1/2-1/2
11/07/2018:Tournoi n°18360 jmjustice(1500)-katastrofic(1440):1-0
11/07/2018:Tournoi n°18393 coyotov(1660)-azur(1550):0-1
11/07/2018:Défi tichaton(1480)-minon(2090):0-1
11/07/2018:Défi katastrofic(1480)-baloo(1510):0-1
11/07/2018:Défi anumisme(1430)-rambonov(1350):1-0
11/07/2018:Défi nuitetoilee(1570)-katastrofic(1480):1-0
11/07/2018:Défi gemme11(1589)-anumisme(1410):1-0
11/07/2018:Défi maximax(1350)-fisher22(2080):0-1
11/07/2018:Défi aigle12(1430)-katastrofic(1410):0-1
11/07/2018:Francaise avec e5 fly(2030)-dpcarballo(1859):0-1
11/07/2018:Rapide juin 2018 verson(1820)-defense(1840):0-1
11/07/2018:Tournoi n°18402 ffred(1610)-vb83(1460):1-0
11/07/2018:Tournoi n°18288 retraite53(2280)-hilts(2190):1-0
11/07/2018:Eq:Les diplomates-Pirates du Mat : roxane(1630)-daiwen(2330):0-1
11/07/2018:Eq:Royal Kids-O fou d hello : bed2bed(1880)-yab414(1620):1-0
11/07/2018:Eq:Pirates du Mat-Les Oiseaux d Amsterdam : marieclaire(1380)-sp52(2380):0-1
11/07/2018:Défi anumisme(1400)-lilith(1290):0-1
12/07/2018:Tournoi n°17942 warriorette(1930)-fly(1960):0-1
12/07/2018:Tournoi n°18373 coyotov(1650)-onetwoyve(1690):0-1
12/07/2018:Tournoi n°18364 legrillon(1760)-leredoutable(1740):0-1
12/07/2018:Défi arno(1650)-fly(2000):0-1
12/07/2018:Défi turbo(1540)-tryphon(1510):1-0
12/07/2018:Défi lancov(1970)-elghribi(1980):0-1
12/07/2018:Défi xao(1540)-owow44(1720):1-0
12/07/2018:Défi roschecx(1640)-gilberthellemans(1590):1-0
12/07/2018:SBT3 legrillon(1700)-coyotov(1660):1-0
12/07/2018:le temps des cerises 1 leet(1900)-chessmat(1809):1-0
12/07/2018:Eq:Pirates du Mat-Danielsen City : volatile(2550)-azerty1(2230):1-0
12/07/2018:Tournoi n°18253 breitenbach(2290)-annakhine(2090):0-1
12/07/2018:Défi scarfield(1800)-mequinho(1780):1/2-1/2
12/07/2018:Kawai Chess 2 malmignatte(1989)-horseman(1770):1-0
12/07/2018:Tournoi n°18276 samchess(1750)-oliver5(1720):0-1
12/07/2018:Tournoi n°18389 upsalin(1910)-desaintfegor(1830):0-1
12/07/2018:Eq:Les Gens du Sud-ThalesTeam : blueberry(1989)-emmanuel(1930):0-1
12/07/2018:Eq:Pirates du Mat-Les Quebecois : roka(2350)-flmnh(1670):1-0
12/07/2018:Eq:Danielsen City-ThalesTeam : e2e4(2070)-blueberry(2140):1-0
12/07/2018:Défi fragol(1750)-riothamus(1690):1-0
12/07/2018:honolulu spectre(1770)-fly(2010):0-1
12/07/2018:portes ouvertes en Espagnol yyyg(1670)-tiounet(1600):0-1
12/07/2018:Kawai Chess 1 legrillon(1740)-geantvert(1720):1-0
12/07/2018:Le vieux Roi 13 legrillon(1710)-zozo(1650):1/2-1/2
12/07/2018:Kawai Chess 2 turbo(1520)-bastien1(1490):0-1
12/07/2018:Tournoi n°18383 jlr(1420)-katastrofic(1480):1-0
12/07/2018:Tournoi n°18362 panchoa(1590)-vb83(1430):1-0
12/07/2018:Tournoi n°18396 ffred(1600)-bastien1(1490):1-0
12/07/2018:Eq:Danielsen City-Royal Kids : azerty1(2230)-regor(2020):1/2-1/2
12/07/2018:Eq:Les Quebecois-Les Rebelles : nassim(2030)-flmnh(1680):1-0
12/07/2018:Défi lens37(2380)-burgman(2090):1-0
12/07/2018:Défi riothamus(1690)-chobi(1740):0-1
12/07/2018:Défi mokanne(1550)-rambonov(1320):1-0
12/07/2018:Défi anumisme(1360)-titine(999):0-1
12/07/2018:Défi calcedoine(1870)-vvvv(1750):1-0
12/07/2018:Kawai Chess 2 zozo(1640)-bastien1(1490):1-0
12/07/2018:Kawai Chess 2 horseman(1770)-petitlulu64(1650):0-1
12/07/2018:Tournoi n°18402 bastien1(1500)-ffred(1610):1-0
12/07/2018:Tournoi n°18412 verson(1820)-ghostdog(1680):1-0
12/07/2018:Tournoi n°18256 artistepeintre(1520)-jlr(1560):1-0
12/07/2018:Tournoi n°18286 jlr(1590)-vb83(1410):0-1
12/07/2018:Tournoi n°18298 desaintfegor(1830)-marmotte50(1920):0-1
12/07/2018:Tournoi n°18302 scarfield(1800)-lychar(1680):1-0
12/07/2018:Défi goedendag(1949)-minon(2090):0-1
12/07/2018:Défi anglais(1690)-tbeau44(1700):1-0
12/07/2018:Défi artorg(2050)-alain34(2170):1-0
12/07/2018:Défi max2007(1380)-lecevenol(1370):0-1
12/07/2018:Défi bed2bed(1860)-vb83(1440):1-0
12/07/2018:Tournoi n°18357 verson(1810)-pionfou(1820):0-1
12/07/2018:Tournoi n°18382 spectre(1920)-bonamur(1980):1-0
12/07/2018:Tournoi n°18304 bira47(1690)-upsalin(1810):0-1
12/07/2018:Tournoi n°18372 arno(1700)-poireau(1730):0-1
12/07/2018:Tournoi n°18389 verson(1800)-mage(1830):1-0
12/07/2018:Eq:les fous de bassans-Vikings : vachefolle(2050)-moutarde18(1900):1-0
12/07/2018:Coupe Niveau 4 guig47(2040)-hilts(2180):1-0
12/07/2018:Défi roidechecs(1170)-fisher22(2109):0-1
12/07/2018:Défi flo19(1360)-fisher22(2080):0-1
12/07/2018:Défi cowboyarthur(1880)-youliyouli(1850):1-0
12/07/2018:Défi albescab(1530)-calisege2008(1500):1-0
12/07/2018:Défi marieange88(1470)-mick(1950):0-1
12/07/2018:Défi upsalin(1880)-pascalou50(1800):1-0
12/07/2018:Défi anumisme(1330)-pasq60(1180):1/2-1/2
12/07/2018:Rapide juin 2018 connecticcut(1790)-uliczny(1940):1-0
12/07/2018:Tournoi n°18398 simer(1700)-legros(1680):1-0
12/07/2018:Tournoi n°18346 legrillon(1710)-artistepeintre(1540):1-0
12/07/2018:Tournoi n°18338 verson(1830)-saruman(1800):1-0
12/07/2018:Tournoi n°18328 atestamora(1680)-1thibou(1810):1-0
12/07/2018:Tournoi n°18389 mage(1830)-upsalin(1910):0-1
12/07/2018:Tournoi n°18387 coyotov(1650)-oliver5(1670):0-1
12/07/2018:Eq:Pirates du Mat-Les diplomates : fafamanga(2140)-totorov(2460):0-1
12/07/2018:Eq:Les Seigneurs de l Atlantide-les fous de bassans : kendo2d(1830)-mrmatchnul(2300):0-1
12/07/2018:Coupe Niveau 2 pitouwb(1670)-bubblegum(1810):0-1
12/07/2018:Défi largo(1050)-erod(1180):0-1
12/07/2018:Défi buzz84(1400)-malmignatte(1499):0-1
12/07/2018:Défi hberlioz(1630)-cortaz(1810):1-0
12/07/2018:Défi claudus(1660)-ecjc(2030):0-1
12/07/2018:Défi joraq(2260)-bekheira(2140):1-0
12/07/2018:Défi kala(1890)-ycar(1700):1-0
12/07/2018:Jeanmichelle fly(2010)-mathador93(1440):1-0
12/07/2018:portes ouvertes en Espagnol yyyg(1670)-saruman(1750):0-1
12/07/2018:Le vieux Roi 13 homer31(1720)-roschecx(1640):0-1
12/07/2018:Bella ciao mistralgagnant(1970)-ptitefrez(2030):0-1
12/07/2018:Rapide juin 2018 tartu(1630)-mathador93(1460):0-1
12/07/2018:Rapide juin 2018 mathador93(1460)-tartu(1630):1-0
12/07/2018:Tournoi échelle division 2 uji40(1590)-zozo(1670):1-0
12/07/2018:Tournoi échelle champions ptitefrez(2020)-salut(1930):1-0
12/07/2018:Tournoi échelle division 2 vachefolle(2060)-uji40(1530):1-0
12/07/2018:Tournoi n°18397 upsalin(1910)-spectre(1950):1-0
12/07/2018:Tournoi n°18419 jlr(1400)-ffred(1610):0-1
12/07/2018:Eq:Les Quebecois-Les Corsaires de Lechiquier : mayaapof(1700)-april(2120):0-1
12/07/2018:Défi superman(1720)-colyoun(1590):1/2-1/2
12/07/2018:Défi doudou(1650)-wenoketo(1620):1-0
12/07/2018:Défi uji40(1530)-hberlioz(1650):0-1
12/07/2018:Défi jm29(1480)-malmignatte(1499):0-1
12/07/2018:Défi dark(1799)-pj612(1790):0-1
12/07/2018:2100 2600 n°4 nunnmiles(2570)-hilts(2190):1-0
12/07/2018:Tournoi échelle division 1 pasctin(1930)-verson(1840):1-0
12/07/2018:Tournoi n°18418 simer(1730)-scarfield(1700):0-1
12/07/2018:Tournoi n°18164 leet(1810)-superlolo83(1850):0-1
12/07/2018:Tournoi n°18350 bubblegum(1690)-coyotov(1650):0-1
12/07/2018:Tournoi n°18391 zax(2030)-upsalin(1910):1/2-1/2
12/07/2018:Tournoi n°18412 simer(1730)-leredoutable(1740):1-0
12/07/2018:Tournoi n°18318 oliver5(1690)-jlr(1570):1-0
12/07/2018:Tournoi n°18381 coyotov(1650)-petitlulu64(1650):1-0
12/07/2018:Eq:Les Quebecois-Les Corsaires de Lechiquier : fredelebouric12(2560)-hub(1890):1-0
12/07/2018:Défi edfal(1299)-c69(1350):0-1
12/07/2018:Défi superman(1740)-pj612(1770):0-1
12/07/2018:Défi berjay(1690)-hebro(1760):0-1
12/07/2018:Défi vvvv(1750)-plaisance(1920):0-1
12/07/2018:Défi bilou75(1290)-anumisme(1390):1-0
12/07/2018:Défi ecjc(2040)-alain34(2160):1-0
12/07/2018:Défi nassim(2030)-ecjc(2040):1-0
12/07/2018:Défi nassim(2030)-bonamur(2020):1-0
12/07/2018:les pirates interne totorov(2460)-blutch70(2260):0-1
12/07/2018:Francaise Tarrasch fermee bubblegum(1810)-fly(2010):0-1
12/07/2018:2100 2600 n°4 capitaine(2100)-hilts(2190):1-0
12/07/2018:Tournoi échelle champions elghribi(1970)-ptitefrez(2040):0-1
12/07/2018:Tournoi n°18380 yatman(2030)-fredbauduret(1980):0-1
12/07/2018:Tournoi n°18246 jhz(1700)-deric(1580):0-1
12/07/2018:Tournoi n°18293 afeyte(1740)-guitoune(1870):0-1
12/07/2018:Tournoi n°18292 nico(1950)-warriorette(1890):0-1
12/07/2018:Tournoi n°18401 legrillon(1700)-scarfield(1690):1-0
12/07/2018:Tournoi n°18421 echecetmat(1739)-leredoutable(1740):0-1
12/07/2018:Eq:Pirates du Mat-Les Oiseaux d Amsterdam : sp52(2380)-marieclaire(1380):1-0
12/07/2018:Eq:Les Rebelles-les fous de bassans : skyfall(1970)-vachefolle(2060):1-0
12/07/2018:Eq:O fou d hello-Les Seigneurs de l Atlantide : capitaine(2090)-legrillon(1700):1-0
12/07/2018:Défi missmich(1460)-anumisme(1410):1-0
12/07/2018:Défi owow44(1720)-chobi(1770):0-1
12/07/2018:Défi fly(1860)-tbeau44(1680):1-0
12/07/2018:Défi superman(1740)-chobi(1740):1-0
12/07/2018:Défi cortaz(1840)-fisher(1610):1-0
12/07/2018:Défi vb83(1430)-chobi(1730):0-1
12/07/2018:Défi fragol(1740)-chobi(1740):1-0
12/07/2018:Défi gaspard83(1620)-nuitetoilee(1589):1-0
12/07/2018:Défi cortaz(1820)-epervier(1800):1-0
12/07/2018:Défi gari(1780)-den(1980):0-1
12/07/2018:Défi comte57(1680)-loki51(1630):0-1
12/07/2018:Défi tichaton(1480)-cortaz(1810):0-1
12/07/2018:Défi cortaz(1810)-aigle12(1400):1-0
12/07/2018:honolulu fly(2010)-spectre(1770):1-0
13/07/2018:Tournoi n°18355 yann56(1650)-bubblegum(1690):0-1
13/07/2018:Tournoi n°18142 wenoketo(1600)-panchoa(1530):0-1
13/07/2018:Tournoi n°18365 janul13(1490)-joel(1470):1-0
13/07/2018:Tournoi n°18274 magyar(1480)-bastien1(1460):0-1
13/07/2018:Eq:Les Corsaires de Lechiquier-les grenades : scroff(2700)-craghack(2390):1-0
13/07/2018:Eq:Pirates du Mat-La Crim Team : pessoa(2220)-totorov(2460):0-1
13/07/2018:Eq:Fair play-Danielsen City : francis94(2050)-xao(1550):1-0
13/07/2018:Coupe Niveau 6 maitreabord(2800)-alizarine(2380):1-0
13/07/2018:Défi minon(2080)-gambou(1770):1-0
13/07/2018:Tournoi échelle division 3 yann56(1660)-malmignatte(2060):0-1
13/07/2018:Eq:Les Rebelles-Mission Impossible : skyfall(1960)-maya24(1610):1-0
13/07/2018:Tournoi n°18280 edison(1600)-jlr(1590):0-1
13/07/2018:Tournoi n°18401 legrillon(1700)-oliver5(1670):1-0
13/07/2018:Tournoi n°18401 oliver5(1670)-scarfield(1700):0-1
13/07/2018:Tournoi n°18304 verson(1770)-bira47(1690):1-0
13/07/2018:Tournoi n°18355 nimzoindien(1700)-bastien1(1530):0-1
13/07/2018:Défi matsonic(1900)-owow44(1740):1-0
13/07/2018:Défi malvina(1280)-beru(1450):1-0
13/07/2018:Défi turbo(1520)-chess54(1480):0-1
13/07/2018:Défi rocketman(1930)-moi50(1850):1-0
13/07/2018:Défi pierrejean(1460)-superman(1720):0-1
13/07/2018:Défi tonton77(1760)-burgman(2060):0-1
13/07/2018:Défi cricri57(1770)-jpjay(1770):0-1
13/07/2018:le combat des chefs yatman(2030)-ciboulette(2100):0-1
13/07/2018:le combat des chefs yatman(2030)-burgman(2080):0-1
13/07/2018:le combat des chefs yatman(2030)-mcgregor(2140):0-1
13/07/2018:Tournoi n°18356 jmarcboury(1940)-chomi64(1980):0-1
13/07/2018:Tournoi n°18355 bubblegum(1690)-coyotov(1650):0-1
13/07/2018:Tournoi n°18304 bira47(1690)-leredoutable(1720):0-1
13/07/2018:Eq:Les Quebecois-Royal Kids : upsalin(1910)-regor(2000):1-0
13/07/2018:Eq:Les Quebecois-Royal Kids : regor(2000)-upsalin(1910):0-1
13/07/2018:Défi pivoine78(1170)-marcol(1100):1-0
13/07/2018:Défi berthe(1820)-otrigo3(1730):1/2-1/2
13/07/2018:Défi coline13(1399)-jipepe(1690):0-1
13/07/2018:Défi turbo(1520)-maluel(1600):0-1
13/07/2018:Défi riothamus(1690)-anglais(1680):1/2-1/2
13/07/2018:Défi gfcyoupi(2120)-morloch(1880):1-0
13/07/2018:Défi katastrofic(1400)-lecavaliernoir(1530):0-1
13/07/2018:Défi gfcyoupi(2110)-salut(1910):1-0
13/07/2018:Défi paul2012(1520)-kala(1890):0-1
13/07/2018:Défi hberlioz(1650)-jimi50(1880):1-0
13/07/2018:Francaise Tarrasch fermee fly(2010)-bubblegum(1810):1-0
13/07/2018:portes ouvertes en Espagnol yyyg(1670)-salut(1880):0-1
13/07/2018:Kawai Chess 2 petitlulu64(1650)-horseman(1770):1-0
13/07/2018:le combat des chefs ptitefrez(2040)-yatman(2030):1-0
13/07/2018:Tournoi n°18385 ghostdog(1650)-leredoutable(1710):0-1
13/07/2018:Tournoi n°18420 ivanleterrible(1769)-leredoutable(1740):1-0
13/07/2018:Eq:les modestes-Vikings : tombelaine(2230)-pilinapolgar(2490):1/2-1/2
13/07/2018:Eq:Les Quebecois-1pur : perepeinard34(1250)-tranquillou66(1100):1-0
13/07/2018:Défi zayka(1890)-jimi50(1900):0-1
13/07/2018:Défi hberlioz(1590)-zatopek(1580):0-1
13/07/2018:Défi zatopek(1570)-hberlioz(1600):0-1
13/07/2018:Défi buzz84(1410)-bastien1(1430):0-1
13/07/2018:Défi calisege2008(1500)-kawa750(1510):1-0
13/07/2018:Défi lecevenol(1380)-bastien1(1430):1-0
13/07/2018:Défi ghostdog(1660)-cortaz(1840):1-0
13/07/2018:Défi lecevenol(1360)-nathk(1489):0-1
13/07/2018:Défi den(1980)-johndoe(1900):1-0
13/07/2018:portes ouvertes en Espagnol yyyg(1670)-spectre(1770):0-1
13/07/2018:Kawai Chess 2 horseman(1770)-turbo(1520):0-1
13/07/2018:Tournoi n°18418 verson(1820)-simer(1730):0-1
13/07/2018:Tournoi n°18397 verson(1830)-leet(1930):1-0
13/07/2018:Tournoi n°18420 ivanleterrible(1769)-verson(1830):1-0
13/07/2018:Eq:Vikings-Pirates du Mat : moutarde18(1900)-rackam(2160):1-0
13/07/2018:Eq:Les Corsaires de Lechiquier-Pirates du Mat : apollon(2820)-eltche(2470):1-0
13/07/2018:Défi steph65(1580)-colyoun(1630):1-0
13/07/2018:Défi jm29(1480)-katastrofic(1400):1-0
13/07/2018:Défi muk(1860)-atestamora(1680):0-1
13/07/2018:Défi flo71(1800)-skyfall(1960):1/2-1/2
13/07/2018:Défi gambou(1770)-rackam(2150):0-1
13/07/2018:Défi lecevenol(1370)-katastrofic(1460):1-0
13/07/2018:Défi maximeg(1360)-claudius94(2130):0-1
13/07/2018:Défi lilou(1440)-pascalou50(1830):0-1
13/07/2018:Défi anumisme(1350)-marcol(1090):1-0
13/07/2018:Défi anumisme(1340)-tootsienet(1040):1-0
13/07/2018:Défi anumisme(1330)-tootsienet(1030):1-0
13/07/2018:Défi minon(2090)-goedendag(2029):1-0
13/07/2018:Jeanmichelle fly(2010)-karkaskat(2100):0-1
13/07/2018:HONOLULU 50 petitlulu64(1630)-brettsinclair(1730):1/2-1/2
13/07/2018:Tetraktus 1 uliczny(1880)-fly(2040):0-1
13/07/2018:Tournoi n°18405 kendo2d(1810)-verson(1860):1-0
13/07/2018:Tournoi n°18119 lio66(2359)-oscar(2340):1-0
13/07/2018:Tournoi n°18417 coyotov(1600)-ivanleterrible(1890):0-1
13/07/2018:Eq:les grenades-Pirates du Mat : saurug(2460)-roka(2370):1-0
13/07/2018:Défi trueman(1890)-owow44(1740):1-0
13/07/2018:Défi oxteball(1400)-hberlioz(1620):0-1
13/07/2018:Défi poireau(1740)-zatopek(1580):1-0
13/07/2018:Défi skyfall(1960)-carabas(1950):1-0
13/07/2018:Défi bezug66(1860)-gambou(1750):1-0
13/07/2018:Défi castor(1340)-buzz84(1400):1-0
13/07/2018:Défi nimzoindien(1730)-jajaf1959(1900):0-1
13/07/2018:Défi vb83(1460)-poireau(1700):0-1
13/07/2018:Défi mick(1950)-marieange88(1470):1-0
13/07/2018:Kawai Chess 2 bastien1(1490)-legrillon(1710):0-1
13/07/2018:Eq:LES CHATTERBOX-Les Quebecois : pionfou(1700)-ephixe(1700):1-0
13/07/2018:Coupe Niveau 4 dragon(1880)-fly(2010):1-0
13/07/2018:Coupe Niveau 3 clafouti(2010)-annakhine(2030):0-1
13/07/2018:Défi anumisme(1320)-sun67170(1290):0-1
13/07/2018:Défi anumisme(1420)-titit1(1290):1-0
13/07/2018:Défi jm29(1480)-geld108(1410):0-1
13/07/2018:Défi koi34(1840)-lemagicien(2149):1-0
13/07/2018:Défi gobois(1640)-gambou(1750):1-0
13/07/2018:Défi turbo(1530)-nathk(1489):0-1
13/07/2018:Défi cortaz(1830)-arno(1720):0-1
13/07/2018:Défi perepeinard34(1230)-tichaton(1480):1-0
13/07/2018:Kawai Chess 2 bastien1(1490)-turbo(1520):1-0
13/07/2018:Kawai Chess 2 bastien1(1490)-petitlulu64(1650):0-1
13/07/2018:Rapide juin 2018 mistralgagnant(1960)-connecticcut(1790):1-0
13/07/2018:Tournoi n°18350 bigkahuna(1650)-bubblegum(1690):0-1
13/07/2018:Tournoi n°18412 upsalin(1900)-simer(1730):0-1
13/07/2018:Tournoi n°18406 ivanleterrible(1499)-oliver5(1670):1-0
13/07/2018:Tournoi n°18371 sergesee(1640)-zed34(1510):1-0
13/07/2018:Tournoi n°18394 clemantoine(1790)-raoullamber(1659):1-0
13/07/2018:Tournoi n°18394 geantvert(1720)-raoullamber(1659):1-0
13/07/2018:Tournoi n°18421 verson(1840)-simer(1740):1-0
13/07/2018:Eq:Les Rebelles-1pur : blackbishop(1850)-chaton(1220):1-0
13/07/2018:Eq:Royal Kids-1pur : homer31(1760)-regor(1990):0-1
13/07/2018:Défi geantvert06(1470)-bastien1(1430):1-0
13/07/2018:Défi kaspy(1990)-temistocles(1400):1-0
13/07/2018:Défi ziviol(1450)-chobi(1760):0-1
13/07/2018:Défi gfcyoupi(2110)-kaspi007(2160):1/2-1/2
13/07/2018:Défi anumisme(1330)-pitchoune50(1190):1-0
13/07/2018:Défi cortaz(1810)-aigle12(1400):1-0
13/07/2018:Eté 2018 n°3 chrislee76(2060)-pournelle(2700):0-1
13/07/2018:le combat des chefs yatman(2030)-uliczny(1940):0-1
13/07/2018:Tournoi n°18412 leredoutable(1740)-upsalin(1900):0-1
13/07/2018:Tournoi n°18403 upsalin(1900)-leredoutable(1740):0-1
13/07/2018:Tournoi n°18421 simer(1740)-leredoutable(1740):0-1
13/07/2018:Eq:Les Gens du Sud-ThalesTeam : ryba(1940)-chooper(1479):1-0
13/07/2018:Défi letsplay(1590)-kawa750(1510):0-1
13/07/2018:Défi albescab(1540)-letsplay(1520):1-0
13/07/2018:Défi gilberthellemans(1590)-letsplay(1560):1-0
13/07/2018:Défi castor(1330)-gambitor(1460):0-1
13/07/2018:Défi janul13(1500)-geantvert06(1510):1-0
13/07/2018:Défi rambonov(1300)-kerenor(1630):0-1
13/07/2018:Défi geantvert06(1520)-letsplay(1520):1-0
14/07/2018:Tournoi n°18102 geantvert(1690)-wenoketo(1570):1-0
14/07/2018:Tournoi n°18191 wenoketo(1620)-panchoa(1560):0-1
14/07/2018:Tournoi n°18418 simer(1730)-leredoutable(1750):1-0
14/07/2018:Tournoi n°18380 yatman(2030)-chomi64(1980):0-1
14/07/2018:Tournoi n°18403 leredoutable(1750)-scarfield(1710):0-1
14/07/2018:Tournoi n°18284 leet(1900)-manu32(1820):0-1
14/07/2018:Tournoi n°18274 janul13(1440)-magyar(1480):1-0
14/07/2018:Tournoi n°18401 scarfield(1710)-ivanleterrible(1499):0-1
14/07/2018:Tournoi n°18387 magyar(1510)-scarfield(1690):0-1
14/07/2018:Tournoi n°18427 simer(1740)-leredoutable(1740):0-1
14/07/2018:Défi kawa750(1520)-wenoketo(1580):1/2-1/2
14/07/2018:Défi lemagicien(2149)-kaby771(2070):0-1
14/07/2018:Défi joelcouturier(1170)-safael(1129):1-0
14/07/2018:Défi bb7553(1760)-gambou(1780):1-0
14/07/2018:Défi kawa750(1510)-cortaz(1820):0-1
14/07/2018:Défi joel(1480)-hugues(1550):1-0
14/07/2018:Défi pascalou50(1820)-pitchoune50(1190):1-0
14/07/2018:le combat des chefs salut(1920)-yatman(2030):1-0
14/07/2018:Rapide juin 2018 connecticcut(1790)-pasctin(1930):1/2-1/2
14/07/2018:Tournoi échelle champions elghribi(1970)-zincou75(2100):1-0
14/07/2018:Tournoi n°18312 gognol(1820)-holyhour(1620):1-0
14/07/2018:Coupe Niveau 3 clafouti(1990)-dpcarballo(2090):0-1
14/07/2018:Défi biquet(1850)-laquina(1169):1-0
14/07/2018:Défi jconetti(1710)-kaspalex(1580):0-1
14/07/2018:Kawai Chess 2 zozo(1640)-horseman(1770):1-0
14/07/2018:Kawai Chess 2 horseman(1770)-zozo(1640):0-1
14/07/2018:Tournoi n°18379 verson(1810)-aramis(1720):1-0
14/07/2018:Tournoi n°18373 onetwoyve(1690)-mokanne(1550):1-0
14/07/2018:Tournoi n°18306 domisol(1550)-thierry22(1620):0-1
14/07/2018:Tournoi n°18308 zozo(1640)-yyyg(1510):1-0
14/07/2018:SBT3 legrillon(1700)-turbo(1540):1-0
14/07/2018:Tournoi n°18347 jlr(1530)-katastrofic(1430):1-0
14/07/2018:Tournoi n°18319 silveur(1970)-bnj(1860):0-1
14/07/2018:Tournoi n°18349 defense(1840)-verson(1850):0-1
14/07/2018:Tournoi n°18318 oliver5(1690)-bastien1(1490):1-0
14/07/2018:Tournoi n°18406 oliver5(1670)-artistepeintre(1540):0-1
14/07/2018:Tournoi n°18188 yyyg(1660)-mimie(1700):0-1
14/07/2018:Tournoi n°18401 oliver5(1670)-ivanleterrible(1499):0-1
14/07/2018:Tournoi n°18301 oliver5(1710)-bastien1(1450):1-0
14/07/2018:Tournoi n°18331 rvsinovitch(2010)-guitoune(1950):0-1
14/07/2018:Tournoi n°18427 scarfield(1710)-simer(1740):0-1
14/07/2018:Tournoi n°18425 verson(1830)-ivanleterrible(1960):1/2-1/2
14/07/2018:Eq:Les Gens du Sud-O fou d hello : emmanuel(1930)-ragg(1520):1-0
14/07/2018:Eq:Les Quebecois-1pur : tranquillou66(1100)-perepeinard34(1250):0-1
14/07/2018:Eq:Les Rebelles-les fous de bassans : blackbishop(1850)-kendo2d(1820):1-0
14/07/2018:Défi domisol(1530)-bastien1(1320):0-1
14/07/2018:Défi geld108(1460)-bastien1(1320):1-0
14/07/2018:Défi kerenor(1600)-tian(1330):0-1
14/07/2018:Défi owow44(1780)-tinenfant(1870):0-1
14/07/2018:Défi caramanlisse(2070)-nassim(2030):0-1
14/07/2018:Défi marcol(1090)-anumisme(1320):0-1
14/07/2018:Anglosaxonneleretour fly(2000)-emmanuel(1940):1-0
14/07/2018:2100 2600 n°4 rons(2590)-capitaine(2100):1-0
14/07/2018:Memorial Lara XXXIV verson(1830)-zozo(1620):1-0
14/07/2018:Tournoi n°17990 morlante(1600)-petitlulu64(1650):1/2-1/2
14/07/2018:Tournoi n°18340 bastien1(1470)-mokanne(1550):1-0
14/07/2018:Eq:Les Corsaires de Lechiquier-cotenstock : levelmax(2820)-akkullanu(2640):1-0
14/07/2018:Eq:cotenstock-Les Corsaires de Lechiquier : fredelebouric12(2550)-mordom(2340):1-0
14/07/2018:Coupe Niveau 6 alizarine(2380)-levelmax(2790):0-1
14/07/2018:Coupe Niveau 1 karclop(1800)-mayaapof(1620):0-1
14/07/2018:Coupe Niveau 4 elghribi(1970)-senegaulois(1940):0-1
14/07/2018:Coupe Niveau 1 senegaulois(1940)-verson(1830):1-0
14/07/2018:Défi titit1(1340)-tootsienet(1050):1-0
14/07/2018:Défi sergiodevienne(1780)-cortaz(1800):1-0
14/07/2018:Défi cortaz(1820)-mvagusta(1720):0-1
14/07/2018:Défi mdc(1770)-pasq60(1180):1-0
14/07/2018:Francaise avec e5 pitouwb(1710)-retinolls(1930):0-1
14/07/2018:Kawai Chess 2 turbo(1520)-horseman(1770):1-0
14/07/2018:SBT3 coyotov(1660)-mayaapof(1610):0-1
14/07/2018:Tournoi n°18380 chomi64(1970)-fredbauduret(1980):0-1
14/07/2018:Tournoi n°18410 verson(1850)-homer31(1760):1/2-1/2
14/07/2018:Tournoi n°18313 jlr(1570)-jhz(1680):1-0
14/07/2018:Tournoi n°18309 holyhour(1620)-jlr(1570):0-1
14/07/2018:Tournoi n°18386 coyotov(1650)-paul2012(1520):0-1
14/07/2018:Défi christie(1260)-anumisme(1360):0-1
14/07/2018:Défi perepeinard34(1250)-fisher22(2080):0-1
14/07/2018:Défi koi34(1860)-rocketman(1930):0-1
14/07/2018:Défi gervaise(1140)-fisher22(2080):0-1
14/07/2018:Défi neddy(1170)-fisher22(2080):0-1
14/07/2018:Défi anumisme(1320)-paul2012(1520):0-1
14/07/2018:Défi 1001110111100(1809)-mcgregor(2140):0-1
14/07/2018:Tournoi n°18251 sergesee(1580)-jlr(1530):0-1
14/07/2018:Tournoi n°18310 arcadie(2110)-burgman(2100):0-1
14/07/2018:Tournoi n°18400 domenico(1750)-verson(1860):0-1
14/07/2018:Tournoi n°18293 spectre(1890)-afeyte(1740):0-1
14/07/2018:Eq:Les Quebecois-Les Rebelles : zukchess(1670)-baudoin(1990):0-1
14/07/2018:Défi kaspalex(1580)-calcedoine(1860):1-0
14/07/2018:Le vieux Roi 12 johannes03(1690)-legrillon(1710):1/2-1/2
14/07/2018:Tournoi n°18398 verson(1870)-legros(1680):1/2-1/2
14/07/2018:Tournoi n°18381 lamagouille(1600)-coyotov(1630):1-0
14/07/2018:Tournoi n°18334 holyhour(1630)-uji40(1610):0-1
14/07/2018:Tournoi n°18416 verson(1830)-legrillon(1730):1-0
14/07/2018:Tournoi n°18427 verson(1840)-simer(1740):0-1
14/07/2018:Eq:Pirates du Mat-Les Oiseaux d Amsterdam : daiwen(2360)-kousso(1360):1-0
14/07/2018:Défi aristote62(2310)-scroff(2690):0-1
14/07/2018:Défi bastien1(1370)-steflam(1410):1-0
14/07/2018:Défi moi50(1850)-jazzzz(1960):0-1
14/07/2018:Défi bonamur(2000)-skyfall(1960):0-1
14/07/2018:Défi gambou(1750)-moris54(1990):0-1
14/07/2018:Défi cortaz(1810)-elghribi(1980):1-0
14/07/2018:Tournoi échelle division 1 pascalou50(1800)-domenico(1750):0-1
14/07/2018:Tournoi échelle division 1 spectre(1920)-verson(1830):1-0
14/07/2018:Tournoi n°18363 leredoutable(1760)-blackrider(1880):0-1
14/07/2018:Tournoi n°18420 verson(1800)-degun(1860):1-0
14/07/2018:Tournoi n°18293 spectre(1890)-guitoune(1870):1-0
14/07/2018:Tournoi n°18305 chomi64(2010)-oranmore(1980):0-1
14/07/2018:Coupe Niveau 1 jlr(1540)-guitoune(1950):0-1
14/07/2018:Coupe Niveau 1 toutankhamon24(1989)-senegaulois(1920):1-0
14/07/2018:Défi cathy17(1050)-pascalou50(1810):0-1
14/07/2018:Défi darkchossete(1840)-zatopek(1610):1-0
14/07/2018:Défi bassdark(2060)-artorg(2060):1/2-1/2
14/07/2018:Défi gilberthellemans(1600)-patrick(1620):0-1
14/07/2018:Défi tootsienet(1020)-anumisme(1320):0-1
14/07/2018:Défi bastien1(1490)-tootsienet(1040):1-0
14/07/2018:Défi arzbro(1520)-albescab(1490):1-0
14/07/2018:Défi papymiche(1730)-cortaz(1830):0-1
14/07/2018:L Espagnole selon Marshall paulinechess(1810)-fly(2010):0-1
14/07/2018:Tournoi n°17094 philou(1940)-chomi64(1920):0-1
14/07/2018:Tournoi n°18114 horseman(1720)-yyyg(1670):1-0
14/07/2018:Tournoi n°18227 yogour(1690)-sergesee(1550):1-0
14/07/2018:Tournoi n°18260 moris54(2020)-philou(1840):1-0
14/07/2018:Tournoi n°18418 scarfield(1710)-verson(1820):0-1
14/07/2018:Tournoi n°18411 janul13(1470)-tumultusgallicus(1390):1-0
14/07/2018:Tournoi n°18417 ivanleterrible(1689)-oliver5(1680):1-0
14/07/2018:Tournoi n°18421 verson(1830)-echecetmat(1739):1-0
14/07/2018:Tournoi n°18404 legrillon(1740)-kala(1880):1/2-1/2
14/07/2018:Tournoi n°18251 oliver5(1690)-sergesee(1550):1-0
14/07/2018:Eq:Royal Kids-cotenstock : hinnol(1770)-bed2bed(1860):0-1
14/07/2018:Eq:Royal Kids-Les Rebelles : skalfa(1780)-baudoin(1990):0-1
14/07/2018:Eq:Les Oiseaux d Amsterdam-ThalesTeam : charlychess(1660)-pozzine(1779):0-1
14/07/2018:Eq:Les Oiseaux d Amsterdam-ThalesTeam : pozzine(1779)-charlychess(1660):1-0
14/07/2018:Eq:Les Corsaires de Lechiquier-Royal Kids : apollon(2840)-vickort(2310):1-0
14/07/2018:Eq:O fou d hello-Les Seigneurs de l Atlantide : legrillon(1700)-capitaine(2090):0-1
14/07/2018:Défi ohnopleyel(1430)-castor(1340):1-0
14/07/2018:Défi joelcouturier(1190)-anumisme(1390):1-0
14/07/2018:Défi serjo(1280)-fisher22(2159):0-1
14/07/2018:Défi regor(2020)-moi50(1810):1-0
14/07/2018:Défi framar(1700)-pierre1(1740):1-0
14/07/2018:Défi anumisme(1450)-joelcouturier(1200):1-0
14/07/2018:Défi jimi50(1870)-morloch(1890):1-0
14/07/2018:Défi morloch(1880)-upsalin(1910):1-0
14/07/2018:Défi roidechecs(1270)-joelcouturier(1210):0-1
14/07/2018:Printemps 2018 n°1 chrislee76(2100)-vickort(2430):1-0
14/07/2018:Rapide juin 2018 mathador93(1460)-connecticcut(1790):0-1
15/07/2018:Tournoi n°18337 arno(1700)-bylka(1790):1/2-1/2
15/07/2018:Coupe Niveau 2 yogour(2010)-emmanuel69(1800):1/2-1/2
15/07/2018:Défi penelope45(1280)-epoldic(1350):1-0
15/07/2018:Défi anumisme(1440)-cathy17(1060):1-0
15/07/2018:Défi pasq60(1200)-anumisme(1320):1-0
15/07/2018:Tournoi n°18298 leet(1910)-spectre(1880):0-1
15/07/2018:Coupe Niveau 1 leet(1910)-spectre(1880):0-1
15/07/2018:Défi erod(1180)-safael(1139):1-0
15/07/2018:portes ouvertes en Espagnol yyyg(1670)-fly(2000):0-1
15/07/2018:Rapide juin 2018 pasctin(1930)-connecticcut(1790):1-0
15/07/2018:Tournoi n°18312 kendo2d(1820)-holyhour(1620):1-0
15/07/2018:Eq:Royal Kids-cotenstock : bed2bed(1860)-hinnol(1770):1-0
15/07/2018:Tournoi n°18249 malmignatte(1499)-bastien1(1500):1-0
15/07/2018:Tournoi n°18210 panchoa(1570)-sergesee(1540):1-0
15/07/2018:Tournoi n°18148 katastrofic(1470)-sergesee(1349):1-0
15/07/2018:Tournoi n°18394 raoullamber(1659)-verson(1840):0-1
15/07/2018:Eq:Pirates du Mat-Les Oiseaux d Amsterdam : kousso(1360)-daiwen(2360):0-1
15/07/2018:Rapide juin 2018 uliczny(1940)-mathador93(1460):0-1
15/07/2018:Rapide juin 2018 mathador93(1460)-uliczny(1940):1-0
15/07/2018:Rapide juin 2018 verson(1820)-mathador93(1460):1-0
15/07/2018:Rapide juin 2018 mathador93(1460)-verson(1820):0-1
15/07/2018:Défi crokodeal(1470)-safael(1149):1-0
15/07/2018:Le vieux Roi 13 legrillon(1710)-bigkahuna(1690):0-1
15/07/2018:Tournoi n°18418 leredoutable(1760)-verson(1810):0-1
15/07/2018:Tournoi n°18322 breitenbach(2250)-nicodemouscron(2140):1-0
15/07/2018:Tournoi n°18371 sergesee(1640)-miramar(1610):1-0
15/07/2018:Tournoi n°18388 arno(1720)-legrillon(1750):0-1
15/07/2018:Tournoi n°18413 bastien1(1500)-jlr(1400):1-0
15/07/2018:Eq:Les Quebecois-Les Rebelles : flmnh(1680)-nassim(2030):0-1
15/07/2018:Eq:Les Rebelles-1pur : chaton(1220)-blackbishop(1850):0-1
15/07/2018:Coupe Niveau 2 guig47(2030)-defense(1840):1-0
15/07/2018:Défi calcedoine(1880)-arno(1690):1-0
15/07/2018:Défi pascalou50(1800)-hberlioz(1630):1-0
15/07/2018:Kawai Chess 2 bastien1(1490)-malmignatte(1989):0-1
15/07/2018:2100 2600 n°4 rons(2590)-hilts(2190):1-0
15/07/2018:Memorial Lara XXXIV zozo(1620)-verson(1830):0-1
15/07/2018:Rapide juin 2018 uliczny(1940)-defense(1840):0-1
15/07/2018:Rapide juin 2018 defense(1840)-uliczny(1940):1-0
15/07/2018:Rapide juin 2018 mistralgagnant(1960)-defense(1840):0-1
15/07/2018:Rapide juin 2018 defense(1840)-mistralgagnant(1960):1-0
15/07/2018:Tournoi n°18237 bubblegum(1660)-mokanne(1560):1-0
15/07/2018:Tournoi n°18349 oliver5(1700)-defense(1840):0-1
15/07/2018:Tournoi n°18311 arno(1670)-deric(1610):1-0
15/07/2018:Tournoi n°18373 onetwoyve(1690)-thierry06(1700):0-1
15/07/2018:Tournoi n°18346 bastien1(1450)-legrillon(1690):0-1
15/07/2018:Tournoi n°18342 oranmore(1990)-chomi64(1990):1-0
15/07/2018:Tournoi n°18411 jlr(1410)-tumultusgallicus(1390):1-0
15/07/2018:Tournoi n°18425 fredbauduret(1990)-verson(1850):1-0
15/07/2018:Tournoi n°18399 miramar(1600)-oliver5(1670):0-1
15/07/2018:Tournoi n°18351 upsalin(1920)-darkchossete(1860):1-0
15/07/2018:Tournoi n°18421 leredoutable(1740)-verson(1830):0-1
15/07/2018:Eq:Les Corsaires de Lechiquier-Pirates du Mat : volatile(2520)-apollon(2830):0-1
15/07/2018:Eq:Les Gens du Sud-O fou d hello : ragg(1520)-emmanuel(1930):0-1
15/07/2018:Coupe Niveau 2 verson(1820)-mayaapof(1620):1-0
15/07/2018:Coupe Niveau 2 ivanleterrible(1990)-verson(1840):1-0
15/07/2018:Coupe Niveau 2 elghribi(1980)-verson(1850):1-0
15/07/2018:Défi lug(1410)-bastet(1000):1-0
15/07/2018:Défi marco858(1660)-lecevenol(1360):1-0
15/07/2018:Défi gervaise(1120)-malvina(1280):1-0
15/07/2018:Défi matsonic(1900)-morloch(1900):1-0
15/07/2018:Tournoi n°18362 jlr(1500)-qsdmlk(1620):1-0
15/07/2018:Eq:Royal Kids-1pur : regor(1990)-homer31(1760):1-0
15/07/2018:Défi gervaise(1090)-skyfall(1960):0-1
15/07/2018:Défi matsonic(1920)-goedendag(1799):1/2-1/2
15/07/2018:Défi matsonic(1910)-ivanleterrible(1499):1/2-1/2
15/07/2018:les pirates interne totorov(2460)-alizarine(2360):1/2-1/2
15/07/2018:le temps des cerises 1 leet(1900)-zozo(1640):1-0
15/07/2018:SBT3 coyotov(1660)-qsdmlk(1630):1-0
15/07/2018:Rapide juin 2018 connecticcut(1790)-mathador93(1460):1-0
15/07/2018:Tournoi n°18372 kaspalex(1750)-zacharie(1709):1-0
15/07/2018:Tournoi n°18432 simer(1750)-verson(1830):1-0
15/07/2018:Coupe Niveau 8 grouik(2340)-conde7(2840):0-1
15/07/2018:Coupe Niveau 6 nunnmiles(2560)-mudra(2320):1/2-1/2
15/07/2018:Défi walnux(1910)-zatopek(1610):1-0
15/07/2018:Défi jmarcboury(1920)-fisher22(1799):1-0
15/07/2018:Défi midas(1850)-skyfall(1960):0-1
15/07/2018:Défi ziviol(1450)-xav(1460):0-1
15/07/2018:Tournoi échelle division 2 desmoulins(2530)-yann56(1670):1-0
15/07/2018:Tournoi n°18296 vvvv(1740)-geantvert(1720):0-1
15/07/2018:Tournoi n°18418 leredoutable(1760)-scarfield(1710):0-1
15/07/2018:Tournoi n°18405 verson(1860)-arno(1730):1-0
15/07/2018:Tournoi n°18417 scarfield(1700)-coyotov(1590):0-1
15/07/2018:Défi scarfield(1770)-clemm(1690):1-0
15/07/2018:Défi bazart(2040)-crocro34(1460):1-0
15/07/2018:Défi roidechecs(1280)-paul2012(1520):0-1
15/07/2018:Défi pitchoune50(1190)-anumisme(1320):0-1
15/07/2018:Défi anumisme(1310)-tootsienet(1010):1-0
15/07/2018:Kawai Chess 1 geantvert(1720)-patrick(1590):1-0
15/07/2018:Tournoi échelle division 1 dragon(1920)-domenico(1750):1-0
15/07/2018:Tournoi n°18152 mathador93(1460)-ratdpoutine(1530):1-0
15/07/2018:Tournoi n°18262 kala(1900)-owow44(1790):1-0
15/07/2018:Tournoi n°18390 scarfield(1690)-dark(1799):1-0
15/07/2018:Eq:les biquetoces-Les Gens du Sud : emmanuel(2010)-garlik(1970):0-1
15/07/2018:Coupe Niveau 2 verson(1830)-ratdpoutine(1530):0-1
15/07/2018:Défi pionperdu(1630)-gilberthellemans(1630):1-0
15/07/2018:Défi morloch(1900)-den(1980):0-1
15/07/2018:Défi turbo(1530)-katastrofic(1470):0-1
15/07/2018:2100 2600 n°4 rons(2590)-nunnmiles(2570):1/2-1/2
15/07/2018:Tournoi n°18373 panchoa(1590)-onetwoyve(1690):0-1
15/07/2018:Tournoi n°18399 panchoa(1590)-legrillon(1700):1-0
15/07/2018:Eq:les grenades-Pirates du Mat : volatile(2510)-pgcbies(2800):0-1
15/07/2018:Eq:les grenades-Les diplomates : letyjo(2890)-tatar(2770):1/2-1/2
15/07/2018:Eq:les grenades-Les diplomates : tatar(2770)-letyjo(2890):1/2-1/2
15/07/2018:Eq:Danielsen City-Royal Kids : xao(1550)-tartu(1640):0-1
15/07/2018:Eq:Les Corsaires de Lechiquier-Royal Kids : vickort(2310)-apollon(2840):0-1
15/07/2018:Coupe Niveau 1 dragon(1880)-verson(1850):0-1
15/07/2018:Défi jmjustice(1530)-tian(1320):1-0
15/07/2018:Défi kiki38(1390)-pierrejean(1460):0-1
15/07/2018:Printemps 2018 n°1 saruman(1770)-marco(1620):1-0
15/07/2018:Tournoi n°18405 arno(1730)-kendo2d(1810):1-0
15/07/2018:Défi malmignatte(1499)-jpmr(1560):1-0
15/07/2018:Défi lantana(1180)-edfal(1299):0-1
15/07/2018:Défi bastien1(1370)-gina(1380):0-1
15/07/2018:Défi nuitetoilee(1329)-missmich(1450):0-1
16/07/2018:Tournoi n°18308 panchoa(1590)-petitlulu64(1650):0-1
16/07/2018:Eq:Pirates du Mat-Les Seigneurs de l Atlantide : philou(1910)-capitaine(2110):0-1
16/07/2018:Défi roschecx(1640)-anglais(1650):1-0
16/07/2018:Défi chrispga(1390)-bigkahuna(1299):0-1
16/07/2018:Défi kawa750(1520)-fragol(1750):0-1
16/07/2018:Défi bekheira(2110)-kaspi007(2100):1/2-1/2
16/07/2018:Défi joraq(2250)-nunnmiles(2570):1/2-1/2
16/07/2018:Défi janul13(1460)-joel(1490):1-0
16/07/2018:Défi pascalou50(1820)-nathk(1569):1-0
16/07/2018:2100 2600 n°4 joraq(2240)-nunnmiles(2570):1/2-1/2
16/07/2018:hauts bois legrillon(1740)-coyotov(1600):1-0
16/07/2018:Tournoi n°18109 vachefolle(2020)-clafouti(2060):1-0
16/07/2018:Coupe Niveau 2 patau(1760)-clafouti(2020):1-0
16/07/2018:Défi vb83(1440)-bonafous(1430):1-0
16/07/2018:Tournoi n°18290 bigbobo(2220)-retraite53(2290):0-1
16/07/2018:Défi atestamora(1710)-guitare59(1519):1-0
16/07/2018:Tournoi n°18006 bournivergne(2220)-milarepa(2240):0-1
16/07/2018:Tournoi n°18375 panchoa(1590)-ffred(1550):0-1
16/07/2018:Défi perepeinard34(1260)-zozo(1660):0-1
16/07/2018:Défi cathy17(1060)-hberlioz(1620):0-1
16/07/2018:Défi voyageur14(1280)-neddy(1220):0-1
16/07/2018:Rapide juin 2018 pasctin(1930)-mathador93(1460):1-0
16/07/2018:Rapide juin 2018 mathador93(1460)-pasctin(1930):0-1
16/07/2018:Tournoi échelle division 2 desmoulins(2520)-thomas(1690):1-0
16/07/2018:Tournoi n°18075 lamagouille(1610)-morlante(1650):0-1
16/07/2018:Tournoi n°17735 chomi64(1940)-loco11(1890):0-1
16/07/2018:Tournoi n°18274 janul13(1440)-albescab(1500):0-1
16/07/2018:Tournoi n°18351 philou(1910)-upsalin(1920):1-0
16/07/2018:Défi jyf(1850)-superman(1730):0-1
16/07/2018:Défi burgman(2120)-electronlibre(1850):1-0
16/07/2018:Défi c69(1350)-pivoine78(1190):1-0
16/07/2018:Défi kiki38(1370)-turbo(1530):0-1
16/07/2018:Défi nassim(1799)-fabio985(1840):1-0
16/07/2018:Défi upsalin(1870)-kiki38(1430):1-0
16/07/2018:Défi toutankhamon24(2280)-jazzzz(1970):1-0
16/07/2018:Kawai Chess 2 malmignatte(1989)-petitlulu64(1650):1-0
16/07/2018:le temps des cerises 1 zozo(1640)-leet(1900):0-1
16/07/2018:Tournoi échelle division 3 yann56(1680)-jlr(1590):0-1
16/07/2018:Tournoi échelle division 1 daniel1(1770)-dragon(1910):0-1
16/07/2018:Tournoi échelle division 1 pasctin(1930)-daniel1(1770):1-0
16/07/2018:Tournoi n°18288 hilts(2190)-fabian67(2100):1-0
16/07/2018:Eq:Pirates du Mat-Les diplomates : blutch70(2230)-saruman(1810):1-0
16/07/2018:Coupe Niveau 7 levelmax(2790)-titeuf(2370):1-0
16/07/2018:Défi roquefort(1960)-cloclo(1840):0-1
16/07/2018:Défi joel(1480)-pierrejean(1450):0-1
16/07/2018:Défi tryphon(1480)-zozo(1620):0-1
16/07/2018:2200 2600 n°1 nunnmiles(2540)-cereus69300(2200):0-1
16/07/2018:Tournoi n°18420 leredoutable(1750)-degun(1860):0-1
16/07/2018:Tournoi n°18045 chomi64(1990)-bubblegum(1810):1-0
16/07/2018:Tournoi n°18411 tumultusgallicus(1390)-lopocompris(1269):0-1
16/07/2018:Tournoi n°18319 darkchossete(1820)-bnj(1850):1-0
16/07/2018:Tournoi n°18420 verson(1800)-leredoutable(1750):0-1
16/07/2018:Tournoi n°18378 ffred(1550)-panchoa(1590):0-1
16/07/2018:Tournoi n°18399 legrillon(1700)-oliver5(1670):0-1
16/07/2018:Tournoi n°18427 verson(1840)-leredoutable(1740):0-1
16/07/2018:Eq:Les Corsaires de Lechiquier-les modestes : april(2120)-jetjet91330(2190):1-0
16/07/2018:Eq:Pirates du Mat-Les Seigneurs de l Atlantide : pgcd(2320)-volatile(2550):0-1
16/07/2018:Eq:Les Seigneurs de l Atlantide-Fair play : francis94(2050)-tjspret(1770):1-0
16/07/2018:Défi cathy17(1020)-missmich(1550):0-1
16/07/2018:Défi didactik44(1750)-pourquoipas(1480):1-0
16/07/2018:Défi toutankhamon24(2270)-gambou(1770):1-0
16/07/2018:Défi bigoudi(1030)-malvina(1290):0-1
16/07/2018:Défi matlepuma(1160)-malmignatte(1969):0-1
16/07/2018:Tournoi n°18057 emmanuel(1980)-chomi64(2000):1-0
16/07/2018:Tournoi n°18406 legrillon(1720)-scarfield(1700):0-1
16/07/2018:Tournoi n°17970 lesmarcels(2500)-pournelle(2670):0-1
16/07/2018:Tournoi n°18381 petitlulu64(1640)-lamagouille(1600):1-0
16/07/2018:Tournoi n°18374 kartush(2120)-breitenbach(2250):0-1
16/07/2018:Eq:Les Seigneurs de l Atlantide-Fair play : tjspret(1770)-francis94(2050):1/2-1/2
16/07/2018:Coupe Niveau 2 clafouti(2040)-jlr(1530):0-1
16/07/2018:Défi lecevenol(1350)-fisher22(2080):0-1
16/07/2018:Défi burgman(2070)-fisher22(1799):1/2-1/2
16/07/2018:Défi gambitor(1440)-maluel(1600):0-1
16/07/2018:Défi biquet(1810)-tyakyx(2250):0-1
16/07/2018:Défi chrispga(1390)-fisher22(1959):0-1
16/07/2018:Défi upsalin(1900)-hberlioz(1640):1/2-1/2
16/07/2018:Défi tinenfant(1860)-ivanleterrible(1499):1/2-1/2
16/07/2018:Défi bastien1(1500)-maitressesse(1370):1-0
16/07/2018:Défi cortaz(1840)-tinenfant(1850):0-1
16/07/2018:Eté 2018 n°5 bonheurinterdit(1340)-joel(1470):0-1
16/07/2018:Tournoi échelle division 3 bastien1(1300)-yann56(1690):1-0
16/07/2018:Tournoi échelle division 3 guitoune(1950)-malmignatte(2000):1/2-1/2
16/07/2018:Tournoi n°18363 blackrider(1880)-biquet(1850):1-0
16/07/2018:Tournoi n°18414 verson(1830)-clemantoine(1770):0-1
16/07/2018:Tournoi n°18406 artistepeintre(1540)-legrillon(1700):0-1
16/07/2018:Tournoi n°18440 coyotov(1600)-jlr(1460):0-1
16/07/2018:Tournoi n°18322 nicodemouscron(2140)-raicolin(2110):0-1
16/07/2018:Tournoi n°18389 willkommen54(1980)-verson(1840):1/2-1/2
16/07/2018:Tournoi n°18429 verson(1830)-pionperdu(1690):0-1
16/07/2018:Eq:Les Quebecois-Les Corsaires de Lechiquier : april(2120)-mayaapof(1700):1-0
16/07/2018:Défi malmignatte(1499)-domisol(1550):1-0
16/07/2018:Défi biquet(1790)-tjspret(1730):1-0
16/07/2018:Défi kerenor(1610)-perepeinard34(1250):1-0
16/07/2018:Défi toucco67(1680)-ghostdog(1640):1-0
16/07/2018:Défi katastrofic(1500)-jetjet91330(2120):0-1
16/07/2018:Eté 2018 n°4 amoursincere(1270)-gonzok67(1690):0-1
16/07/2018:Tournoi n°18042 desaintfegor(1800)-chomi64(1980):1-0
16/07/2018:Eq:LA CITE ARDENTE-LES CHATTERBOX : jazzzz(1980)-hachevitch(2480):0-1
16/07/2018:Défi mauro(1840)-baudoin(1990):1-0
16/07/2018:Défi kawa750(1530)-maluel(1600):1-0
16/07/2018:Défi homer31(1760)-kawa750(1520):1-0
16/07/2018:Défi superman(1720)-tichaton(1470):1-0
16/07/2018:Défi chobi(1760)-cortaz(1830):0-1
16/07/2018:Défi gonzok67(1710)-sergiodevienne(1780):0-1
16/07/2018:Défi roger72(1510)-bastien1(1390):0-1
16/07/2018:Défi tomislav(1800)-goedendag(1909):0-1
16/07/2018:SBT3 turbo(1540)-legrillon(1700):0-1
16/07/2018:Rapide juin 2018 pasctin(1930)-defense(1840):1-0
16/07/2018:Rapide juin 2018 defense(1840)-verson(1820):1/2-1/2
16/07/2018:Tournoi n°18148 amoursincere(1110)-sergesee(1349):1-0
16/07/2018:Eq:CHESS MASTER-Pirates du Mat : bassdark(2060)-volatile(2540):0-1
16/07/2018:Défi joelcouturier(1190)-anumisme(1360):0-1
16/07/2018:Défi azur(1550)-maluel(1600):0-1
16/07/2018:Défi superman(1740)-ghostdog(1610):0-1
16/07/2018:Défi superman(1710)-homer31(1760):1-0
16/07/2018:Défi fabio985(1840)-goedendag(1799):0-1
16/07/2018:Défi anumisme(1330)-voyageur14(1270):1-0
16/07/2018:Défi papymiche(1720)-luz(1700):0-1
16/07/2018:HONOLULU 50 brettsinclair(1730)-janolapin(1880):0-1
16/07/2018:Bella ciao ptitefrez(2030)-emmanuel(1920):1-0
16/07/2018:SBT3 coyotov(1660)-roschecx(1620):1-0
16/07/2018:hauts bois turbo(1520)-petitlulu64(1630):1-0
17/07/2018:Tournoi n°18002 bnj(1820)-ryba(1950):1-0
17/07/2018:Tournoi n°18393 panchoa(1590)-azur(1550):1-0
17/07/2018:Coupe Niveau 3 willkommen54(1970)-elghribi(1940):0-1
17/07/2018:Défi anumisme(1390)-gina(1410):1-0
17/07/2018:Défi calisege2008(1500)-nuitetoilee(1589):0-1
17/07/2018:Défi fabio985(1840)-ghostdog(1640):1-0
17/07/2018:Défi geantvert06(1510)-kawa750(1520):0-1
17/07/2018:Rapide juin 2018 mathador93(1460)-mistralgagnant(1960):1-0
17/07/2018:Tournoi n°18397 desaintfegor(1830)-verson(1850):0-1
17/07/2018:Eq:Royal Kids-ThalesTeam : blueberry(1989)-manulatus(1890):0-1
17/07/2018:Coupe Niveau 8 maitreabord(2790)-vladtepes(2510):1-0
17/07/2018:Gambit dame fly(1990)-holyhour(1630):1-0
17/07/2018:Défi aminezouhair(1399)-c69(1350):0-1
17/07/2018:Tournoi n°18380 verson(1810)-chomi64(1980):0-1
17/07/2018:Tournoi n°18400 verson(1860)-fooy33(1810):1/2-1/2
17/07/2018:Eq:Pirates du Mat-Les Seigneurs de l Atlantide : burgman(2070)-daiwen(2330):0-1
17/07/2018:Coupe Niveau 2 verson(1840)-coppola(1400):1-0
17/07/2018:Défi nanaluce(1090)-fisher22(2080):0-1
17/07/2018:Défi anglais(1680)-doudou(1680):0-1
17/07/2018:Défi coyotov(1660)-jhz(1670):1-0
17/07/2018:Défi vvvv(1760)-epervier(1810):0-1
17/07/2018:Tournoi n°18367 verson(1820)-fbeley(2050):0-1
17/07/2018:Eq:Pirates du Mat-Les Gens du Sud : emmanuel(1980)-totorov(2460):0-1
17/07/2018:Défi bonafous(1430)-hugues(1540):1-0
17/07/2018:Défi midas(1790)-lancov(1920):0-1
17/07/2018:Défi kerenor(1600)-castor(1330):1-0
17/07/2018:Défi schnibble(2350)-nunnmiles(2570):1-0
17/07/2018:Défi pivoine78(1170)-anumisme(1330):1-0
17/07/2018:SBT3 turbo(1540)-qsdmlk(1630):0-1
17/07/2018:Tournoi n°18406 scarfield(1700)-artistepeintre(1540):1-0
17/07/2018:Tournoi n°18373 mokanne(1550)-panchoa(1590):0-1
17/07/2018:Tournoi n°18334 pionperdu(1499)-holyhour(1630):1-0
17/07/2018:Tournoi n°18373 thierry06(1680)-mokanne(1550):1-0
17/07/2018:Eq:Les Quebecois-Danielsen City : janolapin(1910)-fuji972(1960):1-0
17/07/2018:Coupe Niveau 2 elghribi(1980)-senegaulois(1950):0-1
17/07/2018:Défi papymiche(1710)-owow44(1740):1-0
17/07/2018:Défi titit1(1290)-anumisme(1470):1-0
17/07/2018:Défi gilmade(1670)-chobi(1720):0-1
17/07/2018:Défi nuitetoilee(999)-bigkahuna(1650):0-1
17/07/2018:Défi lens37(2430)-nunnmiles(2570):1/2-1/2
17/07/2018:Défi ragg(1510)-fr7d(1480):1-0
17/07/2018:Eté 2018 n°4 buats007(2680)-stanyves(2100):1-0
17/07/2018:Tournoi n°17757 gege24(2030)-philou(1860):1-0
17/07/2018:Tournoi n°18385 leredoutable(1720)-legrillon(1730):1-0
17/07/2018:Tournoi n°18388 tjspret(1740)-legrillon(1750):1-0
17/07/2018:Tournoi n°18383 katastrofic(1470)-bonafous(1450):0-1
17/07/2018:Eq:Les Corsaires de Lechiquier-Les diplomates : desmoulins(2510)-apollon(2800):0-1
17/07/2018:Coupe Niveau 2 pionfou(1710)-mayaapof(1640):0-1
17/07/2018:Défi gambitmiau(1640)-fisher22(1799):0-1
17/07/2018:Défi anumisme(1370)-marieclaire(1390):0-1
17/07/2018:Défi kawa750(1510)-bonafous(1390):1-0
17/07/2018:Défi lecevenol(1360)-edison(1399):1-0
17/07/2018:Défi crocro34(1460)-saby(1620):0-1
17/07/2018:Défi pj612(1790)-alain84(1700):0-1
17/07/2018:Défi clemantoine(1790)-gobois(1650):1-0
17/07/2018:Défi gilmade(1660)-cortaz(1840):0-1
17/07/2018:Défi julie16(999)-tumultusgallicus(1390):1-0
17/07/2018:le combat des chefs mcgregor(2140)-ptitefrez(2040):1-0
17/07/2018:Memorial Lara XXXIV verson(1830)-ptitefrez(2060):0-1
17/07/2018:Tournoi n°18345 mandrak(1600)-clemantoine(1770):0-1
17/07/2018:Tournoi n°18303 jazzzz(1990)-saruman(1800):1-0
17/07/2018:Tournoi n°18420 degun(1860)-ivanleterrible(1769):1/2-1/2
17/07/2018:Défi bilitis(1830)-bibisept(1890):0-1
17/07/2018:Défi maluel(1570)-kiki38(1450):0-1
17/07/2018:Défi kawa750(1510)-gambitor(1460):1-0
17/07/2018:Défi tinenfant(1850)-campa(1740):1-0
17/07/2018:Défi bilitis(1840)-den(1970):0-1
17/07/2018:Tournoi n°18047 willkommen54(2000)-burgman(2070):0-1
17/07/2018:Tournoi n°17909 verson(1820)-chomi64(2000):1-0
17/07/2018:Tournoi n°17970 pournelle(2670)-conde7(2840):0-1
17/07/2018:Tournoi n°18396 coyotov(1650)-mayaapof(1600):0-1
17/07/2018:Tournoi n°18421 echecetmat(1739)-simer(1740):1-0
17/07/2018:Eq:Les Seigneurs de l Atlantide-London : burgman(2100)-rvsinovitch(2020):1/2-1/2
17/07/2018:Défi anumisme(1370)-titia13(1150):1-0
17/07/2018:Défi titia13(1150)-anumisme(1370):1-0
17/07/2018:Défi bidoche(1700)-nassim(2040):0-1
17/07/2018:Défi moi50(1810)-ecjc(2030):0-1
17/07/2018:Défi gambou(1750)-tomislav(1800):1-0
17/07/2018:Défi goedendag(1799)-bb7553(1800):1-0
17/07/2018:SBT3 qsdmlk(1630)-roschecx(1620):0-1
17/07/2018:le combat des chefs salut(1920)-mcgregor(2140):0-1
17/07/2018:Tournoi n°18361 arno(1730)-gonzok67(1700):1-0
17/07/2018:Tournoi n°18377 djayphil(2130)-manuel(2170):1-0
17/07/2018:Tournoi n°18381 azur(1560)-coyotov(1630):0-1
17/07/2018:Tournoi n°18432 leredoutable(1750)-verson(1840):1-0
17/07/2018:Tournoi n°18350 pionperdu(1499)-bubblegum(1690):1-0
17/07/2018:Tournoi n°18234 intrigue(1620)-jlr(1520):1-0
17/07/2018:Tournoi n°18395 aramis(1710)-kala(1880):0-1
17/07/2018:Tournoi n°18239 c0d3(1250)-chaton(1210):0-1
17/07/2018:Tournoi n°18355 bubblegum(1700)-nimzoindien(1700):0-1
17/07/2018:Tournoi n°18394 raoullamber(1659)-intrigue(1610):0-1
17/07/2018:Tournoi n°18404 kala(1880)-scarfield(1700):1-0
17/07/2018:Tournoi n°18427 scarfield(1710)-verson(1840):0-1
17/07/2018:Coupe Niveau 1 petitlulu64(1640)-daniel1(1730):0-1
17/07/2018:Défi kerenor(1590)-maximeg(1300):0-1
17/07/2018:Défi papymiche(1700)-superman(1740):0-1
17/07/2018:Défi superman(1710)-coyotov(1620):0-1
17/07/2018:Défi skyfall(1960)-jazzzz(1980):1/2-1/2
17/07/2018:Défi skyfall(1960)-calcedoine(1870):1/2-1/2
17/07/2018:Défi renec(1650)-mayaapof(1640):1-0
17/07/2018:Défi intrigue(1640)-azur(1540):0-1
17/07/2018:Défi joelcouturier(1200)-anumisme(1330):0-1
17/07/2018:Défi pitchoune50(1180)-pascalou50(1820):0-1
17/07/2018:Gambit dame intrigue(1600)-fly(1990):0-1
17/07/2018:portes ouvertes en Espagnol fly(2000)-yyyg(1670):1-0
17/07/2018:Pour le plaisir 65 ponyboy(1490)-tartu(1650):0-1
17/07/2018:Le vieux Roi 12 johannes03(1690)-roschecx(1650):1-0
17/07/2018:HONOLULU 50 janolapin(1880)-turbo(1520):1-0
17/07/2018:SBT3 coyotov(1660)-tartu(1610):0-1
17/07/2018:Tournoi n°18343 pilouface(1490)-ivanleterrible(1499):0-1
17/07/2018:Tournoi n°18404 scarfield(1710)-legrillon(1720):0-1
17/07/2018:Tournoi n°18412 ghostdog(1680)-simer(1740):1-0
17/07/2018:Tournoi n°18381 lamagouille(1570)-azur(1560):1-0
17/07/2018:Tournoi n°18115 lepiton(1810)-uliczny(1940):0-1
17/07/2018:Tournoi n°18274 albescab(1500)-magyar(1480):0-1
17/07/2018:Défi vvvv(1680)-chevalice(1670):0-1
17/07/2018:Défi jpmr(1530)-temistocles(1430):0-1
17/07/2018:Défi minon(2090)-tichaton(1480):1-0
17/07/2018:SBT3 qsdmlk(1630)-coyotov(1660):0-1
17/07/2018:SBT3 roschecx(1620)-coyotov(1660):1-0
17/07/2018:hauts bois coyotov(1600)-legrillon(1740):0-1
17/07/2018:Rapide juin 2018 mistralgagnant(1960)-mathador93(1460):0-1
18/07/2018:Tournoi n°18174 geantvert(1700)-fredoparis(1780):0-1
18/07/2018:Tournoi n°18423 scarfield(1700)-oliver5(1690):1-0
18/07/2018:Tournoi n°18432 leredoutable(1750)-simer(1750):0-1
18/07/2018:Eq:Pirates du Mat-Les Seigneurs de l Atlantide : alizarine(2400)-capitaine(2060):1-0
18/07/2018:Eq:Les Rebelles-Vikings : baudoin(2000)-lecavaliernoir(1530):1-0
18/07/2018:Défi coyotov(1650)-kawa750(1520):1-0
18/07/2018:Défi kawa750(1510)-didactik44(1760):1-0
18/07/2018:Défi kawa750(1510)-tryphon(1510):1-0
18/07/2018:Tournoi n°18256 linselleschti(1540)-artistepeintre(1520):1-0
18/07/2018:Tournoi n°18419 jlr(1400)-zukchess(1680):0-1
18/07/2018:Eq:Vikings-Du sucre et des vices : moutarde18(1900)-graffenstaden(2000):1-0
18/07/2018:Eq:Danielsen City-Pirates du Mat : eltche(2480)-hilts(2160):1/2-1/2
18/07/2018:Défi oxteball(1400)-maitressesse(1370):1-0
18/07/2018:Défi pionfou(1800)-samjf(1339):1-0
18/07/2018:Tournoi n°18319 warriorette(1900)-silveur(1960):0-1
18/07/2018:Coupe Niveau 8 aphatsum(2640)-maitreabord(2770):1/2-1/2
18/07/2018:Défi anumisme(1320)-bastet(1000):1-0
18/07/2018:Tournoi n°18134 tartu(1670)-kasad(1600):0-1
18/07/2018:Tournoi n°18251 gonzok67(1690)-oliver5(1690):0-1
18/07/2018:Tournoi n°18343 ivanleterrible(1499)-jlr(1410):1-0
18/07/2018:Tournoi n°18391 upsalin(1900)-jmarcboury(1940):1-0
18/07/2018:Eq:les modestes-Les Rebelles : breitenbach(2250)-mehr(2600):0-1
18/07/2018:Défi anumisme(1340)-xuafapec(999):0-1
18/07/2018:Défi gilberthellemans(1630)-reemyyy(1630):0-1
18/07/2018:Défi pierrejean(1460)-kawa750(1510):0-1
18/07/2018:Défi roger72(1490)-titit1(1330):0-1
18/07/2018:Défi zozo(1640)-cortaz(1840):0-1
18/07/2018:poutatine intrigue(1620)-ratdpoutine(1570):0-1
18/07/2018:Tournoi n°18377 oranmore(2010)-manuel(2170):1-0
18/07/2018:Tournoi n°18381 petitlulu64(1620)-azur(1560):0-1
18/07/2018:Tournoi n°18286 mayaapof(1630)-oliver5(1700):0-1
18/07/2018:Tournoi n°18388 upsalin(1900)-tjspret(1740):0-1
18/07/2018:Tournoi n°18417 scarfield(1700)-ivanleterrible(1890):0-1
18/07/2018:Défi morloch(1910)-bibisept(1890):1/2-1/2
18/07/2018:Défi rvsinovitch(1990)-nassim(2120):0-1
18/07/2018:Tournoi n°18188 mimie(1700)-patrick(1590):1-0
18/07/2018:Tournoi n°18122 trebillig(1560)-intrigue(1660):1-0
18/07/2018:Tournoi n°18425 ivanleterrible(1990)-fredbauduret(1990):1-0
18/07/2018:Tournoi n°18409 verson(1840)-spectre(1920):0-1
18/07/2018:Eq:Les Corsaires de Lechiquier-Pirates du Mat : eltche(2490)-levelmax(2790):1-0
18/07/2018:Eq:CHESS MASTER-Pirates du Mat : volatile(2540)-bassdark(2060):1-0
18/07/2018:Défi epervier14(1400)-katastrofic(1440):1-0
18/07/2018:Défi bed2bed(1840)-xuafapec(999):1-0
18/07/2018:Défi gobois(1640)-gilberthellemans(1630):1/2-1/2
18/07/2018:Défi safael(1129)-maitressesse(1370):1-0
18/07/2018:Défi gobois(1650)-ragg(1510):0-1
18/07/2018:Tournoi n°18205 ponyboy(1580)-gaspard83(1600):0-1
18/07/2018:Tournoi n°18406 scarfield(1700)-ivanleterrible(1499):0-1
18/07/2018:Tournoi n°18412 ghostdog(1680)-upsalin(1910):0-1
18/07/2018:Tournoi n°18394 verson(1860)-intrigue(1610):1-0
18/07/2018:Tournoi n°18368 vvvv(1770)-legrillon(1750):1-0
18/07/2018:Tournoi n°18399 oliver5(1670)-panchoa(1590):0-1
18/07/2018:Tournoi n°18443 ivanleterrible(2000)-verson(1820):1-0
18/07/2018:Eq:les grenades-Les diplomates : pgcbies(2820)-desmoulins(2550):1-0
18/07/2018:Eq:Les Corsaires de Lechiquier-Les diplomates : apollon(2800)-desmoulins(2510):1-0
18/07/2018:Coupe Niveau 3 verson(1860)-senegaulois(1980):0-1
18/07/2018:Défi titit1(1310)-anumisme(1460):1-0
18/07/2018:Défi chessgaston(2100)-titit1(1320):1-0
18/07/2018:Défi bidoche(1720)-pionfou(1830):1-0
18/07/2018:SBT3 roschecx(1620)-legrillon(1700):1-0
18/07/2018:Tournoi échelle division 3 ivanleterrible(1890)-jlr(1400):1-0
18/07/2018:Tournoi échelle division 1 spectre(1910)-fredbauduret(1990):1-0
18/07/2018:Tournoi n°18057 chomi64(2000)-verson(1820):1-0
18/07/2018:Tournoi n°18440 coyotov(1600)-ffred(1620):0-1
18/07/2018:Tournoi n°18435 katastrofic(1460)-artistepeintre(1550):0-1
18/07/2018:Tournoi n°18302 xercott(1730)-lychar(1680):1-0
18/07/2018:Tournoi n°18283 gaspard83(1600)-intrigue(1590):0-1
18/07/2018:Tournoi n°18369 arno(1710)-xercott(1740):1-0
18/07/2018:Tournoi n°18365 speedyfil(1440)-katastrofic(1450):0-1
18/07/2018:Tournoi n°18409 verson(1830)-blueberry(2080):0-1
18/07/2018:Eq:Les Gens du Sud-ThalesTeam : emmanuel69(1810)-guitoune(1950):0-1
18/07/2018:Eq:Les Rebelles-les fous de bassans : kendo2d(1820)-blackbishop(1850):0-1
18/07/2018:Coupe Niveau 3 ivanleterrible(2010)-elghribi(1970):1-0
18/07/2018:Défi doudou(1660)-roschecx(1650):0-1
18/07/2018:Défi blackbishop(1840)-tunellavage(1770):1-0
18/07/2018:Défi pilouface(1460)-albescab(1530):0-1
18/07/2018:Défi gambou(1770)-roidechecs(1270):1-0
18/07/2018:Défi jazzzz(1970)-kaspadesbrik(1730):1-0
18/07/2018:Défi pascalou50(1790)-vb83(1430):1-0
18/07/2018:Défi tunellavage(1770)-blackbishop(1840):0-1
18/07/2018:Défi titit1(1300)-anumisme(1410):0-1
18/07/2018:Défi toutankhamon24(2059)-chance2000(1760):1-0
18/07/2018:Tournoi n°18425 blueberry(2080)-verson(1840):1-0
18/07/2018:Tournoi n°18389 willkommen54(1980)-upsalin(1900):1-0
18/07/2018:Tournoi n°18428 bigkahuna(1660)-doudou(1680):0-1
18/07/2018:Eq:Les Quebecois-les grenades : flmnh(1700)-thebigchief(2060):1-0
18/07/2018:Eq:Danielsen City-Pirates du Mat : hilts(2160)-eltche(2480):1-0
18/07/2018:Coupe Niveau 6 levelmax(2800)-grouik(2350):1-0
18/07/2018:Défi malmignatte(1499)-thierry06(1640):1-0
18/07/2018:Défi bastien1(1320)-flo19(1360):1-0
18/07/2018:Défi maluel(1600)-lecevenol(1370):1/2-1/2
18/07/2018:Défi jimi50(1920)-rocketman(1940):0-1
18/07/2018:Défi luz(1680)-tbeau44(1710):0-1
18/07/2018:Défi epervier14(1410)-cortaz(1810):1-0
18/07/2018:Défi uji40(1590)-gambou(1750):0-1
18/07/2018:Défi baloo(1530)-pourquoipas(1470):0-1
18/07/2018:Défi jpjay(1750)-cortaz(1830):1-0
18/07/2018:Défi jetjet91330(2120)-katastrofic(1500):1-0
18/07/2018:SBT3 mayaapof(1610)-turbo(1540):1-0
18/07/2018:hauts bois turbo(1520)-coyotov(1600):0-1
18/07/2018:Tournoi n°18216 chomi64(2000)-percy62(2090):0-1
18/07/2018:Tournoi n°18119 oscar(2340)-radar(2309):0-1
18/07/2018:Tournoi n°18119 alizarine(2390)-bobo(2270):1/2-1/2
18/07/2018:Eq:Mission Impossible-Danielsen City : azerty1(2230)-pascalj24(2160):1-0
18/07/2018:Eq:Du sucre et des vices-Royal Kids : defense(1850)-gonzok67(1690):1/2-1/2
18/07/2018:Eq:Les Rebelles-Mission Impossible : stanyves(2100)-pascalj24(2090):1-0
18/07/2018:Eq:Royal Kids-Les Seigneurs de l Atlantide : capitaine(2090)-malmignatte(2190):0-1
18/07/2018:Coupe Niveau 1 blackbishop(1870)-intrigue(1660):0-1
18/07/2018:Coupe Niveau 1 coyotov(1620)-verson(1820):0-1
18/07/2018:Défi marieange88(1470)-minon(2080):0-1
18/07/2018:Défi fabio985(1840)-zozo(1660):1-0
18/07/2018:Défi fredoparis(1710)-bouffon(1960):1-0
18/07/2018:Défi kawa750(1520)-ivanleterrible(1499):0-1
18/07/2018:Défi azur(1530)-kawa750(1510):1-0
18/07/2018:Défi campa(1750)-calcedoine(1870):1-0
18/07/2018:Défi vb83(1440)-bigkahuna(1630):0-1
18/07/2018:Défi pasq60(1200)-anumisme(1320):0-1
18/07/2018:Pour le plaisir 65 petitlulu64(1640)-ponyboy(1490):1-0
18/07/2018:poutatine lecevenol(1380)-ratdpoutine(1570):0-1
18/07/2018:hauts bois coyotov(1600)-zozo(1620):0-1
18/07/2018:tournoi quatro verson(1820)-geantvert(1740):0-1
18/07/2018:Tournoi n°18264 lyly(1560)-jlr(1550):1-0
18/07/2018:Tournoi n°18159 chomi64(2000)-jhz(1800):1-0
18/07/2018:Tournoi n°18375 panchoa(1590)-vb83(1440):1/2-1/2
18/07/2018:Tournoi n°18423 oliver5(1680)-jlr(1400):1-0
18/07/2018:Eq:Les Gens du Sud-LA CITE ARDENTE : hachevitch(2490)-ryba(1980):1-0
18/07/2018:Eq:Les Quebecois-O fou d hello : legrillon(1750)-pionfou(1830):0-1
18/07/2018:Eq:Pirates du Mat-Les Gens du Sud : ninaleo06(1820)-rackam(2150):0-1
18/07/2018:Défi koi34(1820)-pourquoipas(1470):1-0
18/07/2018:Défi guitare59(1009)-silveur(2000):0-1
18/07/2018:Défi vb83(1460)-uji40(1530):1-0
18/07/2018:Défi fanch2pic(1460)-julie16(999):1-0
18/07/2018:Défi marieange88(1470)-mick(1950):1-0
18/07/2018:Défi cortaz(1810)-tichaton(1470):1-0
18/07/2018:Le vieux Roi 13 roschecx(1640)-bigkahuna(1690):0-1
19/07/2018:Défi kaspi007(2160)-nicodemouscron(2130):0-1
19/07/2018:Tournoi n°17413 tombelaine(2230)-arcadie(2050):1-0
19/07/2018:Tournoi n°18235 aramis(1740)-gonzok67(1710):1-0
19/07/2018:Tournoi n°18431 panchoa(1610)-oliver5(1670):1-0
19/07/2018:Tournoi n°18427 lepiton(1760)-verson(1840):0-1
19/07/2018:Eq:Les Gens du Sud-ThalesTeam : emmanuel(1930)-blueberry(1989):0-1
19/07/2018:fleur du 22 ciboulette(2100)-jojo91(1410):1-0
19/07/2018:Tournoi n°18097 deric(1560)-epervier14(1500):1/2-1/2
19/07/2018:Tournoi n°18223 jlr(1520)-jipepe(1680):0-1
19/07/2018:Tournoi n°18344 spectre(1910)-rvsinovitch(2030):1-0
19/07/2018:Tournoi n°18148 epervier14(1470)-amoursincere(1110):0-1
19/07/2018:Tournoi n°18417 coyotov(1600)-oliver5(1680):0-1
19/07/2018:Eq:Les Gens du Sud-Pirates du Mat : emmanuel(1940)-eltche(2480):0-1
19/07/2018:Défi naxomi(1779)-abc47(2160):0-1
19/07/2018:Défi johndyson(1499)-kawa750(1520):1-0
19/07/2018:Défi raymar(1540)-kawa750(1510):0-1
19/07/2018:Défi alphatauri(1500)-aramis(1740):1-0
19/07/2018:Défi katastrofic(1470)-pierrejean(1440):0-1
19/07/2018:SBT3 qsdmlk(1630)-turbo(1540):1-0
19/07/2018:Tournoi n°18402 panchoa(1600)-jlr(1410):1-0
19/07/2018:Tournoi n°18438 katastrofic(1450)-jlr(1460):0-1
19/07/2018:Tournoi n°18433 homer31(1740)-verson(1850):0-1
19/07/2018:Tournoi n°18388 tjspret(1740)-arno(1710):1-0
19/07/2018:Tournoi n°18404 kala(1880)-vvvv(1760):1-0
19/07/2018:Tournoi n°18429 verson(1830)-arno(1700):1-0
19/07/2018:Coupe Niveau 4 mudra(2290)-bubblegum(1690):1-0
19/07/2018:Défi venaline(2250)-jipix(1980):0-1
19/07/2018:Défi lancov(1970)-pj612(1800):1-0
19/07/2018:Défi calcedoine(1870)-lancov(1920):0-1
19/07/2018:Défi naxomi(1779)-ramo(1750):1-0
19/07/2018:Défi vvvv(1760)-ramo(1730):1-0
19/07/2018:tournoi quatro geantvert(1740)-verson(1820):0-1
19/07/2018:Eq:Mission Impossible-Les Rebelles : pionroi(2680)-pascalj24(2160):1-0
19/07/2018:Eq:Les Rebelles-1pur : nassim(2030)-spectre(1910):1-0
19/07/2018:Coupe Niveau 5 toutankhamon24(2340)-dragon(1880):1-0
19/07/2018:Défi morloch(1910)-eloyoy(1950):0-1
19/07/2018:Défi defense(1870)-fisher22(1799):1-0
19/07/2018:Défi gaby1811(1240)-fisher22(1959):0-1
19/07/2018:Défi kiki(1880)-fisher22(1799):0-1
19/07/2018:Défi epoldic(1350)-fisher22(2159):0-1
19/07/2018:Défi roidechecs(1320)-anumisme(1330):0-1
19/07/2018:Défi dark(1799)-degun(1850):1-0
19/07/2018:Défi vb83(1460)-ffred(1610):0-1
19/07/2018:hauts bois coyotov(1600)-petitlulu64(1630):0-1
19/07/2018:Rapide juin 2018 pasctin(1930)-uliczny(1940):1/2-1/2
19/07/2018:Tournoi échelle division 1 verson(1850)-domenico(1760):1-0
19/07/2018:Tournoi n°18354 nogean(1660)-blagnaque(1570):0-1
19/07/2018:Tournoi n°18354 ffred(1550)-nogean(1660):1-0
19/07/2018:Tournoi n°18324 bastien1(1490)-jlr(1550):1-0
19/07/2018:Tournoi n°18451 coyotov(1600)-jlr(1450):0-1
19/07/2018:Défi cortaz(1770)-youliyouli(1830):1-0
19/07/2018:Défi den(1970)-zayka(1890):1-0
19/07/2018:Défi bonafous(1450)-joel(1480):0-1
19/07/2018:Défi johndoe(1900)-jazzzz(1970):0-1
19/07/2018:Défi kiki38(1380)-tichaton(1470):1-0
19/07/2018:Le vieux Roi 13 tartu(1620)-bigkahuna(1690):0-1
19/07/2018:hauts bois coyotov(1600)-turbo(1520):1-0
19/07/2018:hauts bois tartu(1630)-coyotov(1600):1-0
19/07/2018:Tournoi n°18057 ales17(1980)-emmanuel(1970):1-0
19/07/2018:Tournoi n°18286 mayaapof(1630)-jlr(1600):1-0
19/07/2018:Tournoi n°18441 verson(1830)-pionperdu(1710):1-0
19/07/2018:Tournoi n°18425 blueberry(2080)-fredbauduret(1990):1-0
19/07/2018:Tournoi n°18398 legros(1680)-scarfield(1720):1-0
19/07/2018:Tournoi n°18299 bastien1(1450)-magyar(1470):0-1
19/07/2018:Tournoi n°18393 ffred(1590)-panchoa(1590):0-1
19/07/2018:Tournoi n°18427 simer(1740)-lepiton(1760):1-0
19/07/2018:Tournoi n°18427 lepiton(1760)-scarfield(1710):0-1
19/07/2018:Défi arzbro(1530)-cortaz(1810):0-1
19/07/2018:Défi roidechecs(1300)-anumisme(1310):0-1
19/07/2018:Défi zayka(1890)-pj612(1800):1/2-1/2
19/07/2018:Défi minon(2120)-tichaton(1470):1-0
19/07/2018:Tournoi n°18209 kasad(1600)-verson(1800):0-1
19/07/2018:Tournoi n°18399 panchoa(1590)-miramar(1600):0-1
19/07/2018:Tournoi n°18268 zed34(1500)-jlr(1570):1-0
19/07/2018:Tournoi n°18337 pitouwb(1750)-arno(1700):1-0
19/07/2018:Tournoi n°18423 bastien1(1500)-jlr(1400):1-0
19/07/2018:Eq:Pirates du Mat-Les Gens du Sud : rackam(2150)-ninaleo06(1820):1-0
19/07/2018:Coupe Niveau 1 intrigue(1650)-panchoa(1590):0-1
19/07/2018:Défi pionfou(1820)-zukchess(1660):1-0
19/07/2018:Défi reemyyy(1670)-superman(1730):1-0
19/07/2018:Défi anumisme(1360)-nanaluce(1130):1-0
19/07/2018:Défi bastien1(1430)-titit1(1320):1-0
19/07/2018:Défi alain84(1710)-sergiodevienne(1780):0-1
19/07/2018:Défi claudus(1660)-ramo(1720):1-0
19/07/2018:Défi alain84(1730)-loki51(1630):0-1
19/07/2018:SBT3 tartu(1610)-turbo(1540):1-0
19/07/2018:SBT3 turbo(1540)-tartu(1610):0-1
19/07/2018:Rapide juin 2018 tartu(1630)-defense(1840):0-1
19/07/2018:Tournoi échelle champions zincou75(2100)-salut(1900):0-1
19/07/2018:Tournoi n°18406 oliver5(1660)-scarfield(1700):1-0
19/07/2018:Tournoi n°18365 joel(1470)-speedyfil(1440):1-0
19/07/2018:Tournoi n°18408 silveur(2000)-ales17(2020):0-1
19/07/2018:Eq:les modestes-Les Corsaires de Lechiquier : sherezo(2830)-levelmax(2800):0-1
19/07/2018:Eq:Les Quebecois-Les Gens du Sud : janolapin(1910)-dragon(1870):1-0
19/07/2018:Eq:CHESS MASTER-Les Oiseaux d Amsterdam : ales17(1990)-zayka(1880):0-1
19/07/2018:Eq:Les Gens du Sud-LA CITE ARDENTE : ryba(1980)-hachevitch(2490):1/2-1/2
19/07/2018:Défi kaspalex(1870)-goedendag(1909):0-1
19/07/2018:Défi superman(1720)-sergiodevienne(1780):1-0
19/07/2018:Défi nitch(1930)-tichaton(1480):1-0
19/07/2018:Défi tichaton(1470)-superman(1740):0-1
20/07/2018:Tournoi n°18432 ghostdog(1680)-simer(1760):0-1
20/07/2018:Défi nassim(2120)-bournivergne(2250):1-0
20/07/2018:Défi fragol(1730)-superman(1710):0-1
20/07/2018:Défi tomjedusor(1699)-asvel69(1720):1-0
21/07/2018:Tournoi n°17749 unsingeenhiver(2450)-aphatsum(2640):1/2-1/2
21/07/2018:Tournoi n°17613 petitlulu64(1580)-jlr(1450):1-0
21/07/2018:Tournoi n°18205 casparuf(1520)-zozo(1680):0-1
21/07/2018:Tournoi n°18398 legros(1680)-leredoutable(1740):1-0
21/07/2018:Tournoi n°18144 yyyg(1660)-karadayi(1530):0-1
21/07/2018:Tournoi n°18144 yyyg(1660)-mimie(1680):0-1
21/07/2018:Tournoi n°17990 morlante(1600)-kynyo(1499):1-0
21/07/2018:Tournoi n°18416 arno(1730)-verson(1820):1-0
21/07/2018:Tournoi n°18346 artistepeintre(1540)-albescab(1520):1-0
21/07/2018:Tournoi n°18232 philou(1850)-kiki24(1950):1-0
21/07/2018:Tournoi n°18438 katastrofic(1450)-janul13(1500):1-0
21/07/2018:Tournoi n°18438 joel(1480)-katastrofic(1450):0-1
21/07/2018:Tournoi n°18432 verson(1820)-thierry06(1720):1-0
21/07/2018:Tournoi n°18445 clemantoine(1850)-verson(1820):0-1
21/07/2018:Tournoi n°18434 verson(1820)-jazzzz(1960):0-1
21/07/2018:Tournoi n°18343 jlr(1410)-magyar(1500):1-0
21/07/2018:Tournoi n°18343 gwada50(1290)-jlr(1410):0-1
21/07/2018:Tournoi n°18347 coyotov(1670)-louis67(1540):1-0
21/07/2018:Tournoi n°18175 intrigue(1600)-jlr(1520):1-0
21/07/2018:Tournoi n°18397 desaintfegor(1820)-upsalin(1910):0-1
21/07/2018:Tournoi n°18367 spectre(1910)-marmotte50(1950):0-1
21/07/2018:Tournoi n°18184 bububfo(1960)-graffenstaden(2000):0-1
21/07/2018:Tournoi n°18441 verson(1820)-arno(1710):1-0
21/07/2018:Tournoi n°18438 janul13(1500)-joel(1480):0-1
21/07/2018:Tournoi n°18437 legrillon(1740)-verson(1830):0-1
21/07/2018:Tournoi n°18441 lychar(1720)-pionperdu(1730):1-0
21/07/2018:Tournoi n°18440 miramar(1590)-coyotov(1600):1-0
21/07/2018:Tournoi n°18440 ffred(1620)-miramar(1590):1-0
21/07/2018:Tournoi n°18377 nicodemouscron(2150)-djayphil(2130):1-0
21/07/2018:Tournoi n°18431 jlr(1410)-albescab(1550):0-1
21/07/2018:Tournoi n°18323 arno(1690)-jhz(1680):1-0
21/07/2018:Tournoi n°18259 joel(1450)-amoursincere(1180):0-1
21/07/2018:Tournoi n°18273 dodogod(2050)-virinc(2110):0-1
21/07/2018:Tournoi n°18375 vb83(1440)-tartu(1640):0-1
21/07/2018:Tournoi n°18388 legrillon(1750)-xercott(1750):0-1
21/07/2018:Tournoi n°18368 legrillon(1750)-intrigue(1620):1-0
21/07/2018:Tournoi n°18387 yab414(1610)-coyotov(1660):0-1
21/07/2018:Tournoi n°18387 oliver5(1670)-magyar(1500):1-0
21/07/2018:Tournoi n°18395 kala(1880)-mojo(1720):1-0
21/07/2018:Tournoi n°18427 leredoutable(1740)-lepiton(1760):1-0
21/07/2018:Tournoi n°18391 jaimelamer(1970)-verson(1830):1-0
21/07/2018:Tournoi n°18426 oranmore(2020)-ivanleterrible(2000):1/2-1/2
21/07/2018:Tournoi n°18442 ffred(1610)-tartu(1640):1/2-1/2
21/07/2018:Tournoi n°18442 jlr(1460)-tartu(1640):0-1
21/07/2018:Tournoi n°18432 verson(1810)-ghostdog(1680):1-0
21/07/2018:Tournoi n°18449 tjspret(1750)-verson(1810):0-1
21/07/2018:Tournoi n°18455 jlr(1430)-coyotov(1590):1-0
21/07/2018:Tournoi n°18457 coyotov(1590)-jlr(1430):0-1
21/07/2018:Eq:Mission Impossible-Pirates du Mat : anakin(2060)-totorov(2450):0-1
21/07/2018:Eq:Vikings-Les Gens du Sud : ryba(1970)-ghostdog(1610):1-0
21/07/2018:Eq:Royal Kids-les fous de bassans : fisher22(1850)-skalfa(1710):0-1
21/07/2018:Eq:Fair play-Danielsen City : lool(2640)-azerty1(2230):1-0
21/07/2018:Eq:Danielsen City-Royal Kids : regor(2020)-azerty1(2230):1/2-1/2
21/07/2018:Eq:LES CHATTERBOX-Les Gens du Sud : verson(1820)-ephixe(1710):1-0
21/07/2018:Coupe Niveau 1 defense(1840)-tartu(1620):1-0
21/07/2018:Coupe Niveau 5 mudra(2320)-toutankhamon24(2300):0-1
21/07/2018:Coupe Niveau 2 elghribi(1970)-verson(1830):1-0
21/07/2018:Coupe Niveau 1 nabiloubk(1200)-verson(1830):0-1
21/07/2018:Défi pivoine78(1170)-tootsienet(1010):1/2-1/2
21/07/2018:Défi artorg(2090)-rocketman(2010):1-0
21/07/2018:Défi intrigue(1600)-youliyouli(1850):0-1
21/07/2018:Défi wenoketo(1580)-didactik44(1650):0-1
21/07/2018:Défi riothamus(1670)-malmignatte(1499):0-1
21/07/2018:Défi titine(999)-mc2108(1110):0-1
21/07/2018:Défi pierrejean(1450)-maluel(1600):0-1
21/07/2018:Défi anumisme(1360)-junior1966(1320):0-1
21/07/2018:Défi malmignatte(1499)-tartu(1640):1-0
21/07/2018:Défi bilitis(1830)-matsonic(1900):0-1
21/07/2018:Défi pj612(1800)-bilitis(1830):1/2-1/2
21/07/2018:Défi chevalice(1680)-malmignatte(1499):0-1
21/07/2018:Défi youliyouli(1830)-blueberry(2090):0-1
21/07/2018:Défi epervier14(1410)-malmignatte(1499):0-1
21/07/2018:Défi mokanne(1550)-wenoketo(1580):1-0
21/07/2018:Défi goedendag(1909)-koi34(1830):1-0
21/07/2018:Défi doudou(1710)-owow44(1720):1-0
21/07/2018:Défi titit1(1280)-anumisme(1440):0-1
21/07/2018:Défi safael(1109)-steflam(1430):0-1
21/07/2018:Défi tartu(1630)-roquefort(1990):0-1
21/07/2018:Défi tartu(1630)-koi34(1840):1/2-1/2
21/07/2018:Défi anumisme(1340)-vb83(1460):0-1
21/07/2018:Défi fisher(1610)-albescab(1540):0-1
21/07/2018:Défi vb83(1470)-oliver5(1670):1-0
21/07/2018:Défi maluel(1600)-bonafous(1450):1-0
21/07/2018:Défi xao(1580)-albescab(1530):0-1
21/07/2018:Défi schnibble(2390)-razowski(2450):0-1
21/07/2018:Défi fisher(1630)-longjohn(1560):0-1
21/07/2018:Défi doudou(1680)-tomjedusor(1699):1-0
21/07/2018:Défi carotor(1830)-matsonic(1920):0-1
21/07/2018:Défi berjay(1700)-tomjedusor(1699):1-0
21/07/2018:Défi intrigue(1610)-chevalice(1680):1-0
21/07/2018:Défi carabas(1960)-morloch(1910):1-0
21/07/2018:Défi fabio985(1830)-intrigue(1590):1-0
21/07/2018:Défi mokanne(1550)-katastrofic(1390):0-1
21/07/2018:Défi toutankhamon24(1809)-burgman(2060):1-0
21/07/2018:Défi zayka(1890)-morloch(1910):1-0
21/07/2018:Défi ephixe(1730)-jazzzz(2000):0-1
21/07/2018:Défi nanaluce(1120)-missmich(1430):0-1
21/07/2018:Défi nanaluce(1140)-anumisme(1370):0-1
21/07/2018:Défi ephixe(1720)-asvel69(1720):1/2-1/2
21/07/2018:Défi morloch(1900)-eric34(2130):0-1
21/07/2018:Défi bigkahuna(1690)-bilou75(1290):1-0
21/07/2018:Défi roger72(1500)-albescab(1490):0-1
21/07/2018:Défi ramo(1740)-superman(1710):0-1
21/07/2018:Défi nuitetoilee(1329)-maitressesse(1370):1-0
21/07/2018:Défi tonton77(1780)-skyfall(1970):0-1
21/07/2018:Défi vvvv(1760)-chobi(1730):0-1
21/07/2018:Défi johndoe(1900)-lecouz(1680):1-0
21/07/2018:Défi intrigue(1620)-tjspret(1740):0-1
21/07/2018:Défi anumisme(1330)-bastet(1000):1-0
21/07/2018:Défi anumisme(1340)-julie16(999):1-0
21/07/2018:Défi jajaf1959(1890)-nimzoindien(1730):1-0
21/07/2018:Défi den(1990)-julie16(999):1-0
21/07/2018:Défi tinenfant(1860)-goedendag(1909):1/2-1/2
21/07/2018:Défi ghostdog(1670)-cortaz(1810):0-1
21/07/2018:Défi jazzzz(1970)-goedendag(2000):0-1
21/07/2018:Défi nabiloubk(1200)-tichaton(1460):1-0
21/07/2018:Défi aigle12(1400)-cortaz(1810):0-1
21/07/2018:Défi tichaton(1460)-nabiloubk(1200):0-1
21/07/2018:Printemps 2018 n°1 marco(1600)-boisdechene(1630):1-0
21/07/2018:Eté 2018 n°6 epervier14(1410)-bubblegum(1680):0-1
21/07/2018:Eté 2018 n°2 toutankhamon24(1989)-eldiablo90(2830):0-1
21/07/2018:Eté 2018 n°5 mandos(2270)-lool(2670):0-1
21/07/2018:Bella ciao ptitefrez(2030)-intrigue(1610):1-0
21/07/2018:le temps des cerises 1 malmignatte(1989)-tartu(1620):1-0
21/07/2018:poutatine lecevenol(1380)-intrigue(1620):1/2-1/2
21/07/2018:poutatine legrillon(1690)-intrigue(1620):1-0
21/07/2018:le combat des chefs c0d3(1310)-mcgregor(2140):0-1
21/07/2018:le combat des chefs burgman(2080)-mcgregor(2140):0-1
21/07/2018:hauts bois coyotov(1600)-tartu(1630):1-0
21/07/2018:hauts bois petitlulu64(1630)-zozo(1620):1-0
21/07/2018:Memorial Lara XXXIV ptitefrez(2060)-intrigue(1630):1-0
21/07/2018:Memorial Lara XXXIV intrigue(1630)-verson(1830):1-0
21/07/2018:Memorial Lara XXXIV verson(1830)-intrigue(1630):0-1
22/07/2018:Tournoi n°18142 intrigue(1640)-jlr(1520):1-0
22/07/2018:Tournoi n°17889 kala(1850)-caraca2(1810):1-0
22/07/2018:Tournoi n°17974 chomi64(2020)-tifointer(1860):1-0
22/07/2018:Tournoi n°18385 bidoche(1700)-ghostdog(1650):1-0
22/07/2018:Tournoi n°18354 jlr(1500)-tartu(1620):0-1
22/07/2018:Tournoi n°18344 spectre(1910)-senegaulois(1950):1-0
22/07/2018:Tournoi n°18291 ghostdog(1600)-jhz(1710):1-0
22/07/2018:Tournoi n°18239 c0d3(1250)-xuafapec(999):1-0
22/07/2018:Tournoi n°18412 leredoutable(1750)-ghostdog(1680):1-0
22/07/2018:Tournoi n°18385 legrillon(1730)-bidoche(1700):1-0
22/07/2018:Tournoi n°18432 simer(1770)-thierry06(1720):1-0
22/07/2018:Tournoi n°18391 verson(1850)-jmarcboury(1940):1-0
22/07/2018:Tournoi n°18378 pionperdu(1590)-jlr(1500):1-0
22/07/2018:Tournoi n°18434 plaisance(1930)-verson(1850):1-0
22/07/2018:Tournoi n°18406 legrillon(1700)-oliver5(1670):0-1
22/07/2018:Tournoi n°18439 coyotov(1600)-oliver5(1680):0-1
22/07/2018:Tournoi n°18436 doudou(1680)-onetwoyve(1690):1-0
22/07/2018:Tournoi n°18411 tumultusgallicus(1390)-buzz84(1360):0-1
22/07/2018:Tournoi n°18436 oliver5(1680)-doudou(1680):1-0
22/07/2018:Tournoi n°18399 legrillon(1700)-miramar(1600):1-0
22/07/2018:Tournoi n°18333 epervier14(1410)-bonafous(1390):1-0
22/07/2018:Tournoi n°18328 1thibou(1810)-intrigue(1630):1/2-1/2
22/07/2018:Tournoi n°18351 philou(1880)-silveur(1980):1-0
22/07/2018:Tournoi n°18388 xercott(1750)-upsalin(1900):1/2-1/2
22/07/2018:Tournoi n°18387 yab414(1610)-magyar(1510):1-0
22/07/2018:Tournoi n°18410 gonzok67(1720)-verson(1850):0-1
22/07/2018:Tournoi n°18431 panchoa(1610)-jlr(1440):0-1
22/07/2018:Tournoi n°18431 oliver5(1680)-jlr(1400):1-0
22/07/2018:Tournoi n°18452 verson(1800)-simer(1760):1-0
22/07/2018:Tournoi n°18452 simer(1760)-upsalin(1900):1-0
22/07/2018:Tournoi n°18449 upsalin(1900)-verson(1810):1-0
22/07/2018:Tournoi n°18451 jlr(1450)-panchoa(1640):0-1
22/07/2018:Tournoi n°18451 coyotov(1590)-intrigue(1630):0-1
22/07/2018:Tournoi n°18454 simer(1770)-upsalin(1900):0-1
22/07/2018:Tournoi n°18454 upsalin(1900)-verson(1830):1-0
22/07/2018:Tournoi n°18453 tartu(1650)-verson(1830):0-1
22/07/2018:Eq:LA CITE ARDENTE-Les Seigneurs de l Atlantide : bigbobo(2180)-mazdaroket(2040):1-0
22/07/2018:Eq:les grenades-Les diplomates : bibisept(1890)-herakles(2080):0-1
22/07/2018:Eq:La Crim Team-Les diplomates : zeusuez(2140)-fafamanga(2150):1/2-1/2
22/07/2018:Eq:Les Quebecois-Les Oiseaux d Amsterdam : sorim(2040)-hub(1940):1-0
22/07/2018:Eq:O fou d hello-les modestes : thierry7ardeche(1980)-yab414(1660):1-0
22/07/2018:Eq:Les Seigneurs de l Atlantide-London : rvsinovitch(2020)-burgman(2100):0-1
22/07/2018:Eq:Les Quebecois-1pur : c0d3(1260)-pionfou(1820):0-1
22/07/2018:Eq:Les Gens du Sud-LA CITE ARDENTE : micmoun(2090)-dragon(1920):1-0
22/07/2018:Eq:cotenstock-LA CITE ARDENTE : akkullanu(2620)-hachevitch(2490):1-0
22/07/2018:Eq:Les Quebecois-Mission Impossible : bezug66(1860)-maya24(1610):1-0
22/07/2018:Eq:Les Seigneurs de l Atlantide-Les Quebecois : bezug66(1850)-capitaine(2110):0-1
22/07/2018:Coupe Niveau 2 senegaulois(1960)-silveur(1980):0-1
22/07/2018:Coupe Niveau 1 jlr(1440)-legros(1690):0-1
22/07/2018:Coupe Niveau 2 darkchossete(1860)-elghribi(1980):1-0
22/07/2018:Coupe Niveau 2 verson(1840)-silveur(2000):1-0
22/07/2018:Coupe Niveau 2 senegaulois(2000)-ivanleterrible(2000):0-1
22/07/2018:Défi titit1(1290)-anumisme(1440):0-1
22/07/2018:Défi loco11(1950)-herakles(2110):1-0
22/07/2018:Défi fisher22(1799)-boxit(1810):1-0
22/07/2018:Défi kartush(2070)-fly(2040):0-1
22/07/2018:Défi degun(1900)-rocketman(2010):1-0
22/07/2018:Défi maximax(1330)-fisher22(2159):0-1
22/07/2018:Défi joelcouturier(1190)-anumisme(1360):1-0
22/07/2018:Défi malmignatte(1499)-yann56(1670):1-0
22/07/2018:Défi malmignatte(1499)-gina(1410):1-0
22/07/2018:Défi gervaise(1150)-titit1(1300):1-0
22/07/2018:Défi maximax(1350)-kiki38(1450):0-1
22/07/2018:Défi ramo(1720)-ghostdog(1650):1-0
22/07/2018:Défi epervier14(1410)-malmignatte(1499):0-1
22/07/2018:Défi pierre1(1710)-superman(1720):0-1
22/07/2018:Défi kawa750(1520)-pionperdu(1590):0-1
22/07/2018:Défi morloch(1900)-bonamur(2020):0-1
22/07/2018:Défi zayka(1850)-cocodou(1950):0-1
22/07/2018:Défi malmignatte(1499)-mokanne(1560):1-0
22/07/2018:Défi anumisme(1330)-tootsienet(1020):1-0
22/07/2018:Défi jlouism(1440)-kiki38(1370):1-0
22/07/2018:Défi c0d3(999)-fly(2000):0-1
22/07/2018:Défi gilberthellemans(1630)-maya24(1610):0-1
22/07/2018:Défi tartu(1630)-vincentcoste(1660):0-1
22/07/2018:Défi gambou(1740)-panchoa(1590):1-0
22/07/2018:Défi ephixe(1710)-hberlioz(1620):1-0
22/07/2018:Défi asvel69(1700)-fabio985(1840):1-0
22/07/2018:Défi hberlioz(1610)-gambou(1750):1-0
22/07/2018:Défi lecevenol(1380)-bigkahuna(1680):0-1
22/07/2018:Défi chobi(1760)-alain84(1700):1-0
22/07/2018:Défi kaspy(1990)-morloch(1900):1-0
22/07/2018:Défi matalafin(1399)-turbo(1510):1-0
22/07/2018:Défi castor(1340)-kawa750(1470):0-1
22/07/2018:Défi artorg(2060)-nassim(2030):0-1
22/07/2018:Défi toucco67(1690)-ghostdog(1650):1-0
22/07/2018:Défi tomislav(1810)-asvel69(1700):1-0
22/07/2018:Défi ghostdog(1640)-zozo(1650):1-0
22/07/2018:Défi voyageur14(1280)-joelcouturier(1210):0-1
22/07/2018:Défi anumisme(1320)-largo(1040):1-0
22/07/2018:Défi hugues(1540)-tartu(1630):0-1
22/07/2018:Défi elghribi(1980)-bilitis(1830):1-0
22/07/2018:Défi thierry06(1690)-vb83(1440):1-0
22/07/2018:Défi fredoparis(1710)-bigkahuna(1660):1/2-1/2
22/07/2018:Défi zayka(1890)-regor(2000):0-1
22/07/2018:Défi pourquoipas(1500)-hberlioz(1650):0-1
22/07/2018:Défi kala(1870)-ycar(1710):1-0
22/07/2018:Défi katastrofic(1460)-lecevenol(1370):1-0
22/07/2018:Défi tomjedusor(1699)-bb7553(1810):0-1
22/07/2018:Défi upsalin(1940)-vb83(1460):1-0
22/07/2018:Défi mick(1950)-marieange88(1470):1-0
22/07/2018:Eté 2018 n°4 amoursincere(1270)-pionperdu(1499):1-0
22/07/2018:2200 2600 n°1 berniz(2240)-vickort(2430):1-0
22/07/2018:2200 2600 n°1 cereus69300(2200)-silv(2280):1-0
22/07/2018:néo quatro legrillon(1720)-janolapin(1880):1/2-1/2
22/07/2018:SBT3 mayaapof(1610)-coyotov(1660):1-0
22/07/2018:SBT3 coyotov(1660)-geantvert(1720):0-1
22/07/2018:SBT3 mayaapof(1610)-geantvert(1720):1-0
22/07/2018:SBT3 tartu(1610)-qsdmlk(1630):1-0
22/07/2018:SBT3 qsdmlk(1630)-legrillon(1700):0-1
22/07/2018:le combat des chefs djayphil(2130)-c0d3(1310):1-0
22/07/2018:hauts bois turbo(1520)-tartu(1630):0-1
22/07/2018:hauts bois zozo(1620)-turbo(1520):1-0
22/07/2018:hauts bois zozo(1620)-tartu(1630):0-1
22/07/2018:hauts bois zozo(1620)-coyotov(1600):1-0
22/07/2018:Memorial Lara XXXIV intrigue(1630)-zozo(1620):1-0
22/07/2018:Memorial Lara XXXIV emmanuel(1950)-verson(1830):1/2-1/2
22/07/2018:Rapide juin 2018 uliczny(1940)-pasctin(1930):1-0
22/07/2018:Rapide juin 2018 connecticcut(1790)-defense(1840):0-1
22/07/2018:Rapide juin 2018 defense(1840)-pasctin(1930):0-1
22/07/2018:Tournoi échelle élite alizarine(2370)-elghribi(1980):1-0
22/07/2018:Tournoi échelle champions nico(1970)-verson(1860):1-0